     2              OBSERVATION DATA    GPS                 RINEX VERSION / TYPE
teqc 2002Apr3 20041109 01:33:01UTC                          PGM / RUN BY / DATE
                                                            COMMENT
L2: 1 -> 1; 5 -> 5; 60 -> 9                                 COMMENT
L2: 1 -> 1; 5 -> 5; 60 -> 9                                 COMMENT
L2: 1 -> 1; 5 -> 5; 60 -> 9                                 COMMENT
L2: 1 -> 1; 5 -> 5; 60 -> 9                                 COMMENT
L2: 1 -> 1; 5 -> 5; 60 -> 9                                 COMMENT
Original Marker Name: 7368                                  COMMENT
Campaign Name: CSRC/Caltrans post-San Simeon                COMMENT
4-Character Station Name: GARR                              COMMENT
6-Character Antenna Code: TRZEPH                            COMMENT
Vertical Measurement Point: BPA                             COMMENT
Vertical Offset to Rinex Ref. Point: 0.0000                 COMMENT
Radial Measurement Point: RRP                               COMMENT
Radial Offset to Rinex Ref. Point: 0.0000                   COMMENT
Antenna Height from Field Measurement: 2.0000 m             COMMENT
Original XYZ: -2646903.5000 -4448827.5242 3713669.8553      COMMENT
New XYZ position is based on association with SCEC monument COMMENT
E1F1E3M8+0011. Position of that monument is believed to be  COMMENT
valid to within 1 m horizontally; vertical accuracy         COMMENT
should be no worse than 3-times this value.                 COMMENT
                                                            COMMENT
Revised Rinex header created by UCSD GPS archive for        COMMENT
GSAC on 11-Feb-2005 (2005:042) 22:04:07 GMT                 COMMENT
For assistance contact dagnew@ucsd.edu                      COMMENT
or anderson@python.ucsd.edu                                 COMMENT
                                                            COMMENT
GARRISON RESET                                              MARKER NAME
7368                                                        MARKER NUMBER
K. A. Forsberg CALIF DEPT TRANSPORTATION DISTRICT 5         OBSERVER / AGENCY
0220247368 TRIMBLE 5700 NP 2.01 / SP 0.00                   REC # / TYPE / VERS
12200350 TRM41249.00                                        ANT # / TYPE
 -2646903.0000 -4448825.0000  3713671.0000                  APPROX POSITION XYZ
        2.0000        0.0000        0.0000                  ANTENNA: DELTA H/E/N
     1     1     0                                          WAVELENGTH FACT L1/2
     7    C1    L1    L2    P1    P2    S1    S2            # / TYPES OF OBSERV
     0                                                      INTERVAL
  2004     7    12    17    28    0.000000                  TIME OF FIRST OBS
  2004     7    12    19    15   15.000000                  TIME OF LAST OBS
                                                            END OF HEADER
 04  7 12 17 28  0.0000000  0  8G 3G 9G14G15G18G19G21G22
  22127511.7284     -93682.21149    -66230.54347                  22127511.5444
        48.0004         33.2504
  23591243.9364    -131602.50049    -92120.43047                  23591241.2384
        44.0004         28.0004
  20385671.4154    -250064.58649   -171998.68048                  20385669.2254
        47.7504         41.2504
  20152205.5624    -143528.02049    -99086.64548                  20152204.1134
        51.7504         42.5004
  22720459.1774     -60326.52749    -44177.94547                  22720457.4594
        45.5004         29.0004
  22482967.2294    -255607.53949   -173062.91447                  22482963.8174
        45.5004         32.7504
  23249738.1154      -7074.81249     -9183.97346                  23249737.9484
        40.5004         24.5004
  21036491.5454    -130803.63349    -90796.69948                  21036487.8884
        50.0004         40.0004
 04  7 12 17 28 15.0000000  0  8G 3G 9G14G15G18G19G21G22
  22123023.4254    -117271.40649    -84611.75447                  22123022.5754
        48.2504         34.0004
  23584921.1894    -164825.27749   -118008.31647                  23584920.6904
        41.5004         28.2504
  20373768.8244    -312613.51249   -220738.10248                  20373766.4294
        46.5004         41.7504
  20145340.9624    -179601.17249   -127195.60548                  20145339.9324
        52.2504         42.0004
  22717530.0534     -75721.67249    -56174.18447                  22717528.2624
        45.0004         29.2504
  22470803.5054    -319527.91049   -222871.00047                  22470800.5344
        44.5004         32.5004
  23249359.9004      -9062.94949    -10733.15647                  23249358.1604
        41.0004         26.2504
  21030219.6384    -163762.77749   -116479.15648                  21030216.0564
        48.7504         40.2504
 04  7 12 17 28 30.0000000  0  8G 3G 9G14G15G18G19G21G22
  22118548.5094    -140788.07049   -102936.44547                  22118548.1094
        47.5004         33.5004
  23578619.9864    -197936.19549   -143809.05547                  23578621.1614
        38.7504         28.0004
  20361884.2644    -375066.22749   -269402.55548                  20361882.3104
        46.5004         42.0004
  20138492.2114    -215593.59449   -155241.66048                  20138490.5944
        52.5004         41.7504
  22714596.9274     -91133.29349    -68183.25847                  22714594.8714
        45.2504         28.5004
  22458659.1734    -383346.78549   -272600.00047                  22458656.4484
        44.5004         33.2504
  23248986.8334     -11025.54749    -12262.53147                  23248985.6584
        41.2504         25.7504
  21023948.4604    -196717.41849   -142158.10248                  21023944.5454
        48.5004         40.7504
 04  7 12 17 28 45.0000000  0  8G 3G 9G14G15G18G19G21G22
  22114088.0704    -164224.06649   -121198.27347                  22114088.2014
        48.0004         33.2504
  23572341.9614    -230926.71149   -169516.00047                  23572344.0084
        38.0004         28.2504
  20350020.0204    -437414.30149   -317985.46548                  20350018.0064
        45.7504         42.5004
  20131659.9494    -251496.84049   -183218.21948                  20131658.6464
        52.0004         42.0004
  22711662.0274    -106553.08649    -80198.69147                  22711660.6454
        44.7504         27.5004
  22446535.8554    -447055.51249   -322243.17247                  22446532.9864
        43.7504         32.5004
  23248620.5014     -12954.28149    -13765.46547                  23248618.4044
        41.5004         25.7504
  21017680.2094    -229659.09849   -167826.94948                  21017676.1644
        48.5004         40.5004
 04  7 12 17 29  0.0000000  0  8G 3G 9G14G15G18G19G21G22
  22109645.3924    -187573.22349   -139392.44147                  22109645.3044
        48.2504         34.0004
  23566088.0224    -263790.65249   -195124.33647                  23566090.2154
        38.5004         28.0004
  20338176.6344    -499651.36349   -366481.87948                  20338174.4114
        48.0004         42.2504
  20124845.9484    -287304.50449   -211120.30548                  20124844.6824
        52.5004         42.2504
  22708727.8974    -121974.85949    -92215.67647                  22708726.3724
        45.2504         28.2504
  22434434.6974    -510647.66449   -371795.50047                  22434431.7124
        43.7504         34.0004
  23248259.9154     -14843.02349    -15237.25846                  23248258.8354
        40.0004         24.7504
  21011415.2474    -262581.57449   -193480.83248                  21011411.2334
        49.5004         40.0004
 04  7 12 17 29 15.0000000  0  8G 3G 9G14G15G18G19G21G22
  22105219.2674    -210833.11749   -157517.04347                  22105218.6624
        48.2504         34.5004
  23559859.5244    -296525.36749   -220631.96547                  23559860.9394
        39.0004         28.2504
  20326355.1264    -561774.60549   -414889.59848                  20326352.7654
        47.0004         42.2504
  20118050.9104    -323013.76249   -238945.71948                  20118049.5834
        52.2504         42.5004
  22705792.7694    -137395.66049   -104231.88747                  22705791.9594
        45.0004         28.5004
  22422356.0704    -574120.32449   -421254.73047                  22422353.2084
        45.0004         33.5004
  23247908.9534     -16689.12549    -16675.80147                  23247908.8514
        41.7504         27.0004
  21005154.6664    -295482.07849   -219117.59848                  21005150.6184
        48.2504         40.0004
 04  7 12 17 29 30.0000000  0  8G 3G 9G14G15G18G19G21G22
  22100810.0024    -234001.38749   -175570.25447                  22100810.0294
        48.7504         33.5004
  23553655.8044    -329128.34849   -246036.89147                  23553656.2144
        41.7504         28.2504
  20314555.6754    -623781.37949   -463206.55948                  20314553.2164
        47.7504         42.2504
  20111274.9434    -358621.92649   -266692.34848                  20111273.2944
        51.2504         42.0004
  22702859.3444    -152813.11749   -116245.51647                  22702857.5914
        46.5004         28.2504
  22410300.9124    -637470.80949   -470618.74647                  22410297.9034
        45.0004         33.2504
  23247566.6894     -18490.12949    -18079.23047                  23247563.6304
        41.5004         26.5004
  20998898.2664    -328358.09049   -244735.28948                  20998894.4094
        49.0004         40.0004
 04  7 12 17 29 45.0000000  0  8G 3G 9G14G15G18G19G21G22
  22096419.2554    -257077.52349   -193551.68047                  22096418.8344
        48.7504         33.5004
  23547477.0144    -361598.96949   -271338.66047                  23547475.7104
        43.0004         27.0004
  20302778.5384    -685671.05149   -511432.27348                  20302776.3984
        48.2504         42.5004
  20104518.1954    -394128.29349   -294359.65248                  20104516.4884
        52.0004         42.5004
  22699927.3374    -168226.43449   -128255.91847                  22699924.6534
        46.0004         28.2504
  22398269.0184    -700698.23849   -519886.88747                  22398266.4364
        44.0004         34.0004
  23247232.7524     -20245.53149    -19447.12947                  23247232.9654
        41.2504         27.5004
  20992646.5504    -361209.05549   -270333.44948                  20992642.9944
        50.2504         39.5004
 04  7 12 17 30  0.0000000  0  8G 3G 9G14G15G18G19G21G22
  22092045.8904    -280062.17249   -211461.81647                  22092045.2994
        48.2504         34.7504
  23541322.5804    -393937.58649   -296537.56247                  23541320.8754
        41.2504         26.0004
  20291023.2254    -747443.87149   -559566.93748                  20291021.0244
        48.7504         42.2504
  20097780.7094    -429533.10249   -321947.82048                  20097779.1464
        52.0004         42.5004
  22696994.7324    -183635.88349   -140263.28947                  22696991.9134
        45.5004         27.5004
  22386260.4634    -763802.85249   -569059.30147                  22386258.4874
        45.0004         34.0004
  23246907.1844     -21955.67649    -20779.70347                  23246904.6794
        40.0004         26.0004
  20986400.1874    -394035.35949   -295912.40248                  20986396.4654
        49.7504         39.7504
 04  7 12 17 30 15.0000000  0  8G 3G 9G14G15G18G19G21G22
  22087689.1924    -302955.02349   -229300.41447                  22087689.0864
        48.5004         34.7504
  23535192.5264    -426143.65649   -321633.18446                  23535193.2204
        37.2504         25.5004
  20279290.6514    -809099.08649   -607609.96548                  20279288.5264
        48.7504         42.0004
  20091062.6704    -464835.70749   -349456.35548                  20091061.5314
        52.0004         42.0004
  22694063.0844    -199041.00849   -152267.29347                  22694060.4244
        45.7504         28.0004
  22374275.9094    -826783.88749   -618135.43747                  22374273.7534
        45.0004         34.7504
  23246590.6654     -23620.18449    -22076.80547                  23246590.8074
        40.7504         27.0004
  20980158.5674    -426836.38349   -321471.66048                  20980154.6854
        50.2504         39.7504
 04  7 12 17 30 30.0000000  0  8G 3G 9G14G15G18G19G21G22
  22083350.2664    -325754.86749   -247066.53947                  22083350.6364
        49.0004         35.0004
  23529089.0374    -458215.70748   -346624.43446                  23529091.1044
        35.5004         25.2504
  20267580.6234    -870635.22349   -655560.19148                  20267578.7334
        49.2504         42.2504
  20084364.9984    -500034.52349   -376884.01648                  20084363.4704
        52.0004         42.0004
  22691133.1824    -214440.13349   -164266.62147                  22691130.7314
        46.5004         29.2504
  22362314.6974    -889639.62549   -667113.94147                  22362312.8664
        43.2504         34.5004
  23246283.5734     -25237.57849    -23337.12547                  23246280.2714
        43.0004         26.2504
  20973921.4854    -459610.57449   -347009.99248                  20973918.0674
        50.2504         39.7504
 04  7 12 17 30 45.0000000  0  8G 3G 9G14G15G18G19G21G22
  22079029.1504    -348462.73849   -264761.00447                  22079029.3394
        48.7504         34.2504
  23523011.7084    -490154.54749   -371511.91847                  23523014.0794
        36.7504         26.5004
  20255893.3804    -932053.05549   -703418.24248                  20255891.0094
        50.0004         42.0004
  20077686.4774    -535130.21149   -404231.31648                  20077685.2554
        52.0004         42.2504
  22688203.7844    -229834.23849   -176262.03547                  22688200.5024
        47.0004         30.5004
  22350377.4024    -952370.81249   -715995.38747                  22350375.6094
        45.2504         33.5004
  23245984.2464     -26808.73849    -24561.53947                  23245984.1734
        40.5004         26.0004
  20967689.9574    -492358.77349   -372528.08648                  20967686.3614
        50.2504         39.5004
 04  7 12 17 31  0.0000000  0  8G 3G 9G14G15G18G19G21G22
  22074725.8374    -371078.12149   -282383.39547                  22074725.8984
        48.5004         34.0004
  23516960.8354    -521959.69149   -396295.20747                  23516962.4404
        41.0004         29.0004
  20244228.7254    -993351.85249   -751183.53548                  20244226.4954
        49.2504         42.5004
  20071027.4494    -570122.07049   -431497.71148                  20071026.3454
        53.0004         42.2504
  22685275.5634    -245222.61349   -188253.00047                  22685273.1744
        47.2504         30.5004
  22338464.0864   -1014976.73849   -764779.22747                  22338462.0524
        45.5004         33.7504
  23245692.6064     -28333.20749    -25749.39546                  23245691.3914
        39.2504         25.2504
  20961463.1454    -525080.48049   -398025.52348                  20961459.7034
        51.0004         39.7504
 04  7 12 17 31 15.0000000  0  8G 3G 9G14G15G18G19G21G22
  22070439.9914    -393599.53949   -299932.56647                  22070440.2354
        48.2504         34.0004
  23510934.8114    -553629.39549   -420972.91447                  23510936.5074
        42.7504         30.7504
  20232586.8064   -1054529.82049   -798854.68048                  20232584.8434
        48.5004         42.5004
  20064389.0184    -605008.12149   -458681.65648                  20064387.7964
        52.0004         42.2504
  22682349.2194    -260603.37149   -200238.02747                  22682346.2364
        46.2504         31.2504
  22326574.7114   -1077455.31649   -813463.83647                  22326572.2614
        45.2504         33.5004
  23245414.0134     -29809.24249    -26899.63747                  23245412.0304
        42.5004         26.0004
  20955241.9544    -557773.81249   -423500.85548                  20955238.1014
        50.7504         39.5004
 04  7 12 17 31 30.0000000  0  8G 3G 9G14G15G18G19G21G22
  22066172.1174    -416026.39549   -317408.05147                  22066171.9704
        48.0004         33.5004
  23504933.6284    -585162.92649   -445544.52347                  23504935.5214
        42.2504         29.5004
  20220968.0414   -1115586.16449   -846431.05148                  20220965.8894
        49.5004         42.7504
  20057770.7874    -639787.52749   -485782.50048                  20057769.5194
        52.7504         41.7504
  22679423.2374    -275975.81249   -212216.56647                  22679420.4574
        45.0004         31.7504
  22314709.6584   -1139805.62149   -862048.49247                  22314707.0214
        44.5004         34.0004
  23245142.9044     -31236.18749    -28011.57447                  23245138.8184
        42.0004         26.7504
  20949026.1424    -590438.00449   -448953.46947                  20949022.5644
        51.0004         39.0004
 04  7 12 17 31 45.0000000  0  8G 3G 9G14G15G18G19G21G22
  22061922.2684    -438361.20349   -334811.81247                  22061922.0404
        48.7504         34.0004
  23498958.4934    -616562.50849   -470011.74247                  23498959.9354
        40.5004         26.5004
  20209372.4564   -1176523.13749   -893914.40248                  20209370.3724
        48.5004         42.7504
  20051172.1594    -674462.45749   -512801.93748                  20051171.2434
        52.2504         41.2504
  22676498.6644    -291342.05549   -224190.25847                  22676498.2444
        44.5004         30.5004
  22302869.1974   -1202029.81249   -910534.87147                  22302866.2934
        44.2504         34.0004
  23244876.8444     -32616.69949    -29087.28546                  23244877.6614
        38.0004         24.5004
  20942815.2944    -623075.39149   -474385.20747                  20942811.5674
        50.0004         39.0004
 04  7 12 17 32  0.0000000  0  8G 3G 9G14G15G18G19G21G22
  22057689.9814    -460600.14149   -352140.86747                  22057689.8734
        48.0004         33.5004
  23493008.4704    -647824.17749   -494371.52746                  23493009.1684
        38.5004         23.0004
  20197799.9994   -1237336.46549   -941301.41448                  20197797.7264
        48.5004         43.0004
  20044594.5344    -709028.71549   -539736.69148                  20044593.3334
        52.0004         41.7504
  22673576.7024    -306698.14149   -236156.06247                  22673575.1784
        45.0004         31.0004
  22291052.7644   -1264123.66449   -958919.69947                  22291050.3504
        43.2504         34.0004
  23244626.1704     -33946.29749    -30123.35947                  23244624.5374
        42.5004         28.5004
  20936610.5484    -655681.89549   -499792.87547                  20936606.8324
        48.7504         39.2504
 04  7 12 17 32 15.0000000  0  8G 3G 9G14G15G18G19G21G22
  22053476.5014    -482744.71549   -369396.40247                  22053476.4534
        48.0004         34.0004
  23487085.8484    -678949.21549   -518624.77746                  23487084.4384
        39.0004         22.0004
  20186250.8044   -1298027.40249   -988593.04748                  20186248.4894
        49.0004         42.2504
  20038037.1254    -743487.55149   -566587.73448                  20038036.1394
        52.0004         42.0004
  22670656.6724    -322045.43049   -248115.04347                  22670654.6534
        45.0004         30.5004
  22279261.4494   -1326088.29749  -1007203.83247                  22279258.7264
        43.5004         33.7504
  23244383.1384     -35226.49649    -31121.03946                  23244380.7724
        41.2504         25.0004
  20930411.4274    -688258.85549   -525177.53147                  20930407.8464
        50.0004         39.0004
 04  7 12 17 32 30.0000000  0  8G 3G 9G14G15G18G19G21G22
  22049279.7714    -504796.17649   -386579.37147                  22049279.7214
        48.0004         33.0004
  23481189.6994    -709938.68449   -542772.41846                  23481187.1114
        40.7504         23.5004
  20174724.7874   -1358596.99249  -1035790.12548                  20174722.7594
        49.2504         42.7504
  20031500.1054    -777839.84449   -593355.76648                  20031498.8164
        51.5004         42.5004
  22667738.1874    -337384.75049   -260067.79747                  22667736.7184
        44.7504         30.5004
  22267493.9234   -1387924.61349  -1055387.97347                  22267491.8844
        44.0004         33.7504
  23244146.1434     -36459.17249    -32081.52746                  23244146.3504
        37.7504         23.7504
  20924217.6324    -720807.19949   -550539.87548                  20924213.9034
        49.5004         39.5004
 04  7 12 17 32 45.0000000  0  8G 3G 9G14G15G18G19G21G22
  22344894.2874    -526752.60949   -403688.29747                  22344894.1354
        47.5004         32.5004
  23775112.0714    -740789.87549   -566812.31647                  23775110.9294
        42.0004         27.5004
  20463015.3304   -1419040.29349  -1082888.80148                  20463013.2804
        48.5004         42.5004
  20324776.3804    -812082.49249   -620038.35248                  20324775.0464
        52.2504         42.0004
  22964612.2424    -352714.33649   -272012.93447                  22964610.1514
        42.7504         29.7504
  22555544.8164   -1449627.57049  -1103468.18747                  22555542.6924
        43.5004         33.5004
  23543715.4904     -37642.82849    -33003.89547                  23543712.5944
        43.2504         27.5004
  21217822.0814    -753323.98449   -575877.63748                  21217818.6334
        50.2504         39.5004
 04  7 12 17 33  0.0000000  0  8G 3G 9G14G15G18G19G21G22
  22340733.5284    -548616.88349   -420725.41847                  22340733.4934
        47.5004         32.7504
  23769266.7214    -771506.81649   -590747.60947                  23769266.4544
        41.7504         28.0004
  20451535.9904   -1479365.12549  -1129895.16048                  20451533.6354
        49.0004         42.2504
  20318280.4604    -846219.78149   -646638.84848                  20318278.8814
        51.7504         42.0004
  22961696.2814    -368035.95749   -283951.86747                  22961696.3024
        44.0004         31.2504
  22543827.0104   -1511204.94549  -1151450.56247                  22543824.8304
        44.5004         33.5004
  23543500.7034     -38777.42249    -33888.08247                  23543497.2844
        43.0004         27.7504
  21211639.9604    -785813.41849   -601194.07848                  21211636.3544
        49.2504         40.0004
 04  7 12 17 33 15.0000000  0  8G 3G 9G14G15G18G19G21G22
  22336590.9974    -570386.04349   -437688.41047                  22336590.7114
        48.0004         33.0004
  23763448.3734    -802085.52749   -614575.19947                  23763447.8354
        43.0004         28.5004
  20440080.3674   -1539565.64849  -1176804.65648                  20440078.0474
        49.0004         42.5004
  20311804.8844    -880247.53949   -673153.98848                  20311803.5624
        52.0004         42.0004
  22958783.2414    -383346.81649   -295882.42247                  22958781.9494
        44.5004         31.0004
  22532133.7984   -1572650.76249  -1199330.42247                  22532132.1834
        44.7504         33.5004
  23543290.5434     -39861.44949    -34732.74646                  23543291.0164
        37.5004         24.0004
  21205463.1564    -818271.58649   -626486.16447                  21205459.6184
        50.5004         39.2504
 04  7 12 17 33 30.0000000  0  8G 3G 9G14G15G18G19G21G22
  22332466.2524    -592061.83249   -454578.65247                  22332466.0574
        47.2504         33.2504
  23757654.5984    -832527.68049   -638296.36347                  23757654.4994
        41.7504         26.7504
  20428647.7364   -1599643.32849  -1223618.43048                  20428645.4384
        48.0004         42.5004
  20305350.5414    -914167.10549   -699584.83648                  20305348.9474
        52.7504         42.2504
  22955872.3494    -398648.52749   -307805.88347                  22955870.2154
        44.5004         30.5004
  22520466.1084   -1633966.45349  -1247108.89147                  22520463.6974
        42.7504         33.5004
  23543096.6594     -40896.30549    -35539.19547                  23543094.5804
        44.5004         27.7504
  21199292.3314    -850700.02749   -651755.08647                  21199288.8974
        50.2504         39.0004
 04  7 12 17 33 45.0000000  0  8G 3G 9G14G15G18G19G21G22
  22328359.3644    -613643.95349   -471395.90647                  22328358.9794
        48.0004         32.7504
  23751885.5764    -862832.89549   -661910.85546                  23751886.0554
        38.7504         22.2504
  20417238.6504   -1659597.69549  -1270336.12148                  20417236.4914
        49.0004         42.5004
  20298916.6374    -947977.95749   -725930.96148                  20298914.9804
        51.7504         42.5004
  22952962.3294    -413940.55949   -319721.76247                  22952961.2294
        42.5004         31.5004
  22508822.9544   -1695151.41049  -1294785.47747                  22508820.3974
        45.2504         32.7504
  23542909.9994     -41881.67649    -36307.16846                  23542906.9934
        42.0004         25.0004
  21193126.9174    -883098.23849   -677000.44148                  21193123.9334
        49.2504         39.5004
 04  7 12 17 34  0.0000000  0  8G 3G 9G14G15G18G19G21G22
  22324270.3114    -635132.21949   -488140.03147                  22324269.7244
        48.2504         32.7504
  23746145.4264    -893000.62149   -685418.16846                  23746142.7884
        37.2504         19.2504
  20405853.4064   -1719428.18449  -1316957.27348                  20405851.1914
        49.0004         42.5004
  20292503.6034    -981679.54349   -752191.94148                  20292501.9434
        52.7504         41.7504
  22950053.1494    -429222.28549   -331629.57847                  22950051.7594
        42.0004         30.0004
  22497204.8754   -1756204.94549  -1342359.66847                  22497202.7114
        45.7504         34.0004
  23542728.5064     -42817.46549    -37036.28146                  23542728.4674
        38.5004         25.0004
  21186967.9204    -915465.71549   -702221.85248                  21186964.4784
        50.2504         39.5004
 04  7 12 17 34 15.0000000  0  8G 3G 9G14G15G18G19G21G22
  22320199.6774    -656525.88749   -504810.43747                  22320199.0324
        48.5004         33.0004
  23740431.6834    -923030.02049   -708817.67246                  23740426.6894
        38.5004         20.0004
  20394491.6904   -1779133.75449  -1363481.09448                  20394489.6624
        49.5004         42.2504
  20286111.2394   -1015270.82449   -778366.96948                  20286109.5764
        50.7504         41.7504
  22947147.6444    -444492.68449   -343528.61747                  22947147.4994
        44.0004         30.0004
  22485612.3204   -1817125.93749  -1389830.55947                  22485609.9594
        44.2504         33.7504
  23542562.2544     -43702.60249    -37726.07846                  23542561.5754
        43.0004         25.2504
  21180814.4204    -947801.59049   -727418.64548                  21180811.2864
        47.5004         39.5004
 04  7 12 17 34 30.0000000  0  8G 3G 9G14G15G18G19G21G22
  22316146.0344    -677825.97749   -521407.91047                  22316145.6154
        48.2504         33.2504
  23734743.6514    -952921.84049   -732109.99646                  23734740.6044
        39.5004         22.5004
  20383153.5194   -1838715.08249  -1409908.09848                  20383151.4524
        49.7504         42.0004
  20279739.7364   -1048752.39849   -804456.52048                  20279738.3474
        51.7504         42.0004
  22944244.5534    -459752.53149   -355419.44547                  22944242.4094
        44.0004         30.0004
  22474044.6974   -1877914.97349  -1437198.64847                  22474042.1964
        45.5004         34.0004
  23542404.1484     -44537.79349    -38376.94946                  23542400.5664
        42.0004         22.2504
  21174667.2304    -980106.42249   -752591.24248                  21174663.6614
        49.7504         40.0004
 04  7 12 17 34 45.0000000  0  8G 3G 9G14G15G18G19G21G22
  22312110.4914    -699032.32849   -537932.35547                  22312110.3324
        48.0004         32.2504
  23729081.2964    -982675.80949   -755294.90646                  23729080.4654
        39.2504         22.5004
  20371839.5534   -1898171.78949  -1456237.99648                  20371837.2234
        49.5004         42.0004
  20273389.5004   -1082123.80549   -830460.21948                  20273387.9924
        52.0004         42.0004
  22941342.4174    -475001.49249   -367301.77747                  22941341.2064
        41.7504         29.5004
  22462501.8454   -1938571.60549  -1484463.56247                  22462499.6824
        46.2504         33.5004
  23542252.2434     -45323.08649    -38988.91046                  23542253.1114
        39.7504         22.7504
  21168525.8894   -1012379.91049   -777739.41848                  21168522.1084
        51.0004         40.2504
 04  7 12 17 35  0.0000000  0  8G 3G 9G14G15G18G19G21G22
  22308092.9754    -720145.25449   -554384.00447                  22308092.1804
        48.0004         32.2504
  23723444.4914   -1012292.11749   -778372.55946                  23723445.8304
        37.0004         22.5004
  20360549.1154   -1957503.94149  -1502470.84048                  20360547.0174
        49.5004         42.5004
  20267060.0204   -1115385.06249   -856378.09448                  20267058.3904
        52.0004         42.0004
  22938441.4574    -490239.58249   -379175.59447                  22938441.0634
        42.5004         29.7504
  22450984.6984   -1999095.71149  -1531625.20747                  22450982.4454
        45.7504         33.0004
  23542114.5514     -46058.37149    -39561.85946                  23542111.4344
        43.5004         25.0004
  21162389.9684   -1044622.21549   -802863.28548                  21162386.5344
        51.0004         39.5004
 04  7 12 17 35 15.0000000  0  8G 3G 9G14G15G18G19G21G22
  22304093.5404    -741163.91049   -570762.19147                  22304092.4534
        48.0004         32.2504
  23717833.3094   -1041769.57048   -801342.05946                  23717836.7384
        32.0004         21.2504
  20349282.5854   -2016710.39849  -1548605.73848                  20349280.2914
        50.2504         42.0004
  20260751.8164   -1148534.96949   -882209.19548                  20260750.2774
        51.7504         41.5004
  22935544.9884    -505465.82849   -391040.24647                  22935543.6864
        45.0004         29.7504
  22439492.7074   -2059486.16049  -1578682.69947                  22439489.8214
        46.2504         32.7504
  23541984.1554     -46742.84849    -40095.34047                  23541983.7244
        41.7504         25.7504
  21156260.7984   -1076832.27049   -827962.03548                  21156257.3264
        50.2504         39.7504
 04  7 12 17 35 30.0000000  0  8G 3G 9G14G15G18G19G21G22
  22300111.3514    -762089.41849   -587067.79347                  22300110.7384
        48.0004         32.7504
  23712252.9304   -1071109.22348   -824204.22746                  23712252.6134
        34.2504         19.0004
  20338039.6304   -2075791.96949  -1594643.32848                  20338037.2994
        50.5004         42.2504
  20254464.5794   -1181574.24249   -907954.09448                  20254463.0304
        52.0004         42.0004
  22932651.3724    -520680.94549   -402896.21947                  22932648.8194
        46.2504         30.7504
  22428026.2404   -2119743.55549  -1625636.50447                  22428022.6344
        45.2504         32.7504
  23541861.8724     -47377.56649    -40589.87546                  23541860.4144
        42.5004         25.5004
  21150137.3364   -1109010.80549   -853036.22348                  21150133.7224
        50.0004         40.0004
 04  7 12 17 35 45.0000000  0  8G 3G 9G14G15G18G19G21G22
  22296147.3814    -782921.67649   -603300.74647                  22296146.3684
        48.2504         33.0004
  23706696.9454   -1100310.91049   -846958.78546                  23706694.6074
        40.0004         19.0004
  20326820.2734   -2134748.28149  -1640583.31248                  20326818.3744
        49.2504         42.5004
  20248198.4864   -1214502.57049   -933612.53948                  20248197.3304
        47.5004         42.7504
  22929756.9024    -535884.60949   -414743.22747                  22929754.6354
        45.0004         30.0004
  22416585.2274   -2179867.48049  -1672486.32447                  22416581.3174
        44.5004         32.5004
  23541751.7634     -47962.12949    -41045.46146                  23541751.1204
        42.5004         25.5004
  21144020.5194   -1141157.55149   -878085.64548                  21144016.6084
        45.5004         40.0004
 04  7 12 17 36  0.0000000  0  8G 3G 9G14G15G18G19G21G22
  22292201.3844    -803660.64849   -619461.00047                  22292200.3394
        48.2504         32.7504
  23701166.3784   -1129374.44549   -869605.65646                  23701164.2424
        39.5004         21.2504
  20315625.4674   -2193578.94949  -1686425.38348                  20315622.9604
        48.5004         42.2504
  20241953.8324   -1247319.62149   -959184.27748                  20241951.9404
        47.5004         42.2504
  22926865.2954    -551076.57049   -426581.11347                  22926864.0734
        44.7504         30.0004
  22405169.3434   -2239857.57849  -1719231.85947                  22405165.9174
        43.2504         32.5004
  23541649.4964     -48496.41449    -41461.77746                  23541647.3954
        41.0004         21.7504
  21137908.7374   -1173272.24249   -903110.08248                  21137905.1584
        46.7504         40.0004
 04  7 12 17 36 15.0000000  0  8G 3G 9G14G15G18G19G21G22
  22288271.6324    -824306.75849   -635548.88747                  22288271.5074
        48.0004         32.7504
  23695661.5594   -1158300.05049   -892145.01646                  23695660.9154
        38.0004         23.5004
  20304454.2414   -2252284.30149  -1732169.81648                  20304452.0074
        49.0004         41.7504
  20235730.1444   -1280025.44949   -984669.35248                  20235728.8724
        50.5004         42.2504
  22923977.0634    -566257.03149   -438410.04347                  22923975.4044
        44.5004         29.2504
  22393778.7594   -2299713.84049  -1765873.12147                  22393775.3274
        43.5004         32.5004
  23541558.0654     -48980.87949    -41839.36747                  23541558.3294
        42.2504         26.0004
  21131803.6244   -1205355.09049   -928109.71148                  21131800.1134
        49.5004         40.0004
 04  7 12 17 36 30.0000000  0  8G 3G 9G14G15G18G19G21G22
  22284361.0974    -844859.87549   -651564.31647                  22284359.9294
        48.2504         33.5004
  23690181.3454   -1187087.25849   -914576.65646                  23690183.5334
        36.5004         21.7504
  20293306.8614   -2310863.73449  -1777816.12548                  20293304.5884
        50.2504         42.0004
  20229527.5034   -1312619.53549  -1010067.35248                  20229526.3214
        52.7504         42.2504
  22921091.0434    -581425.30949   -450229.49247                  22921088.3374
        45.5004         28.0004
  22382414.4164   -2359435.72349  -1812409.66047                  22382410.7534
        45.0004         32.5004
  23541476.1754     -49414.92649    -42177.60246                  23541472.4104
        43.7504         24.0004
  21125704.7054   -1237405.67649   -953084.20347                  21125701.0924
        51.2504         39.2504
 04  7 12 17 36 45.0000000  0  8G 3G 9G14G15G18G19G21G22
  22280467.2154    -865320.70349   -667507.83247                  22280467.0504
        48.0004         32.2504
  23684729.7134   -1215736.62948   -936900.93046                  23684732.9144
        33.5004         21.0004
  20282183.2484   -2369317.89149  -1823364.81648                  20282181.1584
        50.2504         42.2504
  20223346.3144   -1345102.31649  -1035378.62948                  20223345.2804
        52.0004         42.5004
  22918206.0734    -596582.09449   -462039.97747                  22918204.4534
        44.0004         27.5004
  22371075.1044   -2419023.71149  -1858841.84847                  22371072.0084
        46.0004         33.2504
  23541401.1864     -49799.33249    -42477.20746                  23541402.3814
        42.5004         25.0004
  21119611.8544   -1269424.53949   -978033.97748                  21119607.9394
        51.5004         39.5004
 04  7 12 17 37  0.0000000  0  8G 3G 9G14G15G18G19G21G22
  22276591.0294    -885689.12949   -683379.35247                  22276590.7054
        47.2504         32.2504
  23679305.9624   -1244247.92649   -959117.56646                  23679307.6364
        37.2504         21.7504
  20271083.4984   -2427646.26649  -1868815.48848                  20271081.3854
        50.0004         42.5004
  20217186.2934   -1377473.28549  -1060602.77348                  20217185.0444
        52.5004         42.0004
  22915324.7444    -611726.87149   -473841.11347                  22915321.9224
        45.0004         28.2504
  22359761.3594   -2478477.29349  -1905169.31647                  22359758.4134
        46.0004         32.5004
  23541338.8964     -50133.68749    -42737.73846                  23541335.1924
        42.0004         22.5004
  21113524.9514   -1301411.23049  -1002958.66848                  21113521.2814
        52.0004         39.5004
 04  7 12 17 37 15.0000000  0  8G 3G 9G14G15G18G19G21G22
  22272732.5774    -905965.17649   -699178.88347                  22272732.3084
        47.5004         31.7504
  23673907.1164   -1272621.00449   -981226.48846                  23673908.0634
        38.5004         22.2504
  20260008.2014   -2485848.59849  -1914167.96148                  20260005.8384
        49.7504         41.7504
  20211047.8974   -1409732.21549  -1085739.60248                  20211046.2774
        52.7504         41.5004
  22912444.9404    -626859.46149   -485632.76247                  22912442.7784
        44.7504         29.5004
  22348472.9594   -2537796.15249  -1951391.80547                  22348470.5244
        45.7504         32.5004
  23541284.5724     -50417.94149    -42959.31647                  23541284.9704
        42.0004         26.0004
  21107444.3254   -1333365.57049  -1027858.16048                  21107440.2744
        52.0004         40.0004
 04  7 12 17 37 30.0000000  0  8G 3G 9G14G15G18G19G21G22
  22268891.3424    -926149.78949   -714907.17647                  22268891.4754
        46.5004         32.5004
  23668534.2284   -1300856.74649  -1003228.35246                  23668534.9694
        39.2504         22.2504
  20248956.4934   -2543925.57849  -1959422.74248                  20248954.0984
        49.7504         41.7504
  20204930.1514   -1441879.74249  -1110789.63748                  20204929.1594
        53.2504         42.0004
  22909567.5374    -641980.43049   -497415.35247                  22909565.3384
        45.0004         29.0004
  22337211.5024   -2596980.79349  -1997509.71547                  22337208.3094
        46.7504         32.5004
  23541239.5514     -50653.06249    -43142.52046                  23541237.3344
        42.0004         21.7504
  21101369.6874   -1365288.35949  -1052733.06648                  21101365.6854
        52.2504         39.7504
 04  7 12 17 37 45.0000000  0  8G 3G 9G14G15G18G19G21G22
  22265068.2584    -946241.33249   -730562.94147                  22265068.3734
        48.0004         32.2504
  23663187.2554   -1328953.33649  -1025121.79346                  23663187.9414
        38.0004         22.7504
  20237929.0874   -2601875.25449  -2004578.33248                  20237926.7184
        49.5004         41.0004
  20198834.3754   -1473913.87949  -1135751.30948                  20198833.2954
        53.0004         42.0004
  22906692.9794    -657088.00449   -509187.48847                  22906690.3084
        46.5004         29.2504
  22325974.2534   -2656029.14849  -2043521.42647                  22325970.9424
        46.7504         32.7504
  23541203.9794     -50837.14549    -43286.06646                  23541205.0304
        41.5004         23.0004
  21095301.1384   -1397177.65649  -1077581.87948                  21095297.4294
        52.0004         39.5004
 04  7 12 17 38  0.0000000  0  8G 3G 9G14G15G18G19G21G22
  22261262.5044    -966241.85549   -746147.77047                  22261262.4844
        47.2504         32.2504
  23657866.3744   -1356912.37549  -1046908.07446                  23657868.2064
        40.2504         22.5004
  20226925.5504   -2659699.24649  -2049635.98848                  20226923.1214
        49.7504         41.7504
  20192759.7974   -1505836.14549  -1160625.80548                  20192758.4524
        52.0004         42.5004
  22903820.6144    -672183.72749   -520950.42647                  22903818.7364
        46.5004         29.2504
  22314763.5874   -2714942.74649  -2089428.12547                  22314760.0484
        47.2504         33.0004
  23541178.7924     -50972.16849    -43391.25446                  23541176.6424
        42.5004         21.7504
  21089239.1324   -1429035.09449  -1102405.86748                  21089235.3174
        52.0004         40.0004
 04  7 12 17 38 15.0000000  0  8G 3G 9G14G15G18G19G21G22
  22257473.9614    -986150.73449   -761661.20747                  22257473.5414
        47.2504         32.5004
  23652572.0064   -1384733.21949  -1068586.67646                  23652573.8914
        38.0004         21.5004
  20215945.8534   -2717396.77749  -2094595.10248                  20215943.8894
        50.2504         41.7504
  20186706.5964   -1537645.62949  -1185412.41848                  20186705.0044
        52.7504         42.0004
  22900949.6384    -687266.79349   -532703.47747                  22900947.4274
        46.2504         29.0004
  22303578.1954   -2773720.69949  -2135229.15647                  22303574.9684
        47.0004         32.7504
  23541163.2534     -51057.13749    -43457.57046                  23541162.4144
        42.0004         24.5004
  21083183.0344   -1460859.87149  -1127204.39848                  21083179.2974
        52.0004         40.2504
 04  7 12 17 38 30.0000000  0  8G 3G 9G14G15G18G19G21G22
  22253702.1544   -1005970.11349   -777104.89547                  22253701.8754
        47.7504         32.0004
  23647303.9354   -1412417.81649  -1090159.12946                  23647305.1234
        38.5004         21.0004
  20204990.1824   -2774969.69549  -2139457.10548                  20204987.9804
        50.2504         42.0004
  20180674.6574   -1569344.16049  -1210112.58248                  20180673.3884
        52.7504         42.5004
  22898082.0664    -702338.87949   -544448.00447                  22898080.5614
        46.5004         29.7504
  22292419.1344   -2832364.88349  -2180925.91447                  22292415.6884
        47.5004         32.2504
  23541154.3294     -51094.12949    -43486.39546                  23541153.4694
        40.5004         21.7504
  21077132.8084   -1492653.80549  -1151978.90648                  21077129.1024
        52.5004         40.2504
 04  7 12 17 38 45.0000000  0  8G 3G 9G14G15G18G19G21G22
  22249947.8424   -1025698.51249   -792477.68447                  22249947.5844
        47.2504         32.7504
  23642062.8894   -1439964.54349  -1111624.12146                  23642062.9374
        39.2504         21.0004
  20194058.6644   -2832416.33649  -2184220.72348                  20194056.2084
        49.2504         42.0004
  20174664.0304   -1600930.00449  -1234724.93048                  20174662.5834
        52.7504         42.5004
  22895215.8884    -717398.59049   -556182.82047                  22895213.0954
        45.5004         29.0004
  22281284.9234   -2890873.36349  -2226516.94947                  22281281.4744
        45.5004         32.7504
  23541159.2184     -51081.50849    -43476.62547                  23541158.4584
        44.0004         27.0004
  21071088.5574   -1524415.26649  -1176728.11348                  21071084.8674
        52.2504         39.7504
 04  7 12 17 39  0.0000000  0  8G 3G 9G14G15G18G19G21G22
  22246211.6224   -1045336.40249   -807779.95347                  22246210.3104
        47.5004         31.5004
  23636847.2334   -1467373.67649  -1132981.90646                  23636847.2224
        40.7504         22.5004
  20183150.7194   -2889736.75849  -2228885.98048                  20183148.6594
        48.7504         42.0004
  20168674.6494   -1632403.21949  -1259249.53548                  20168673.4384
        52.7504         42.7504
  22892352.6744    -732445.84049   -567907.99247                  22892351.0064
        45.7504         28.0004
  22270177.6144   -2949246.28549  -2272002.35547                  22270173.2114
        44.5004         32.5004
  23541169.8784     -51019.68049    -43428.51646                  23541169.1224
        41.0004         22.0004
  21065051.1414   -1556144.40649  -1201452.12148                  21065047.4174
        52.0004         39.7504
 04  7 12 17 39 15.0000000  0  8G 3G 9G14G15G18G19G21G22
  22242491.8594   -1064883.55549   -823011.52047                  22242490.3054
        47.5004         32.2504
  23631657.8344   -1494644.99649  -1154232.27746                  23631657.9304
        42.2504         25.2504
  20172267.4204   -2946930.57049  -2273452.58648                  20172264.8484
        50.0004         42.7504
  20162707.0674   -1663763.48049  -1283686.10948                  20162705.7874
        53.0004         42.0004
  22889491.4764    -747480.43449   -579623.28147                  22889489.0024
        45.5004         28.2504
  22259095.2094   -3007483.16449  -2317381.76247                  22259091.0654
        46.5004         32.5004
  23541191.4984     -50908.46949    -43341.81647                  23541191.4784
        44.0004         26.5004
  21059019.6254   -1587840.82049  -1226150.64548                  21059015.4994
        52.5004         39.5004
 04  7 12 17 39 30.0000000  0  8G 3G 9G14G15G18G19G21G22
  22238789.1634   -1084341.71149   -838173.73447                  22238787.6184
        47.7504         31.7504
  23626494.1334   -1521779.94949  -1175376.41046                  23626494.0744
        41.7504         25.2504
  20161407.7494   -3003999.27349  -2317921.69948                  20161405.2434
        49.7504         42.0004
  20156760.5934   -1695012.07849  -1308035.67648                  20156759.0404
        53.0004         42.0004
  22886632.7064    -762503.69149   -591329.73447                  22886630.3084
        43.7504         27.2504
  22248038.7624   -3065585.16849  -2362656.05547                  22248034.8944
        46.5004         33.0004
  23541223.5734     -50749.11349    -43217.78146                  23541220.9904
        44.0004         25.0004
  21052993.8954   -1619505.88749  -1250824.72748                  21052989.6524
        52.7504         40.0004
 04  7 12 17 39 45.0000000  0  8G 3G 9G14G15G18G19G21G22
  22235103.6294   -1103710.30949   -853266.16047                  22235102.2054
        47.0004         32.0004
  23621355.6284   -1548777.89149  -1196413.78946                  23621356.5754
        40.2504         22.5004
  20150571.4164   -3060942.14549  -2362292.76648                  20150569.0904
        49.7504         42.2504
  20150835.6294   -1726148.25449  -1332297.64148                  20150834.4064
        52.2504         42.2504
  22883775.3014    -777514.68049   -603026.60947                  22883774.4954
        45.2504         29.0004
  22237007.8794   -3123551.62549  -2407824.72347                  22237004.3954
        46.5004         33.5004
  23541259.6824     -50541.37949    -43055.87146                  23541260.4874
        40.5004         24.5004
  21046974.1984   -1651138.97349  -1275473.88748                  21046970.0754
        52.5004         40.0004
 04  7 12 17 40  0.0000000  0  8G 3G 9G14G15G18G19G21G22
  22231434.4914   -1122989.62149   -868289.02047                  22231433.2394
        47.5004         31.5004
  23616245.2684   -1575638.75849  -1217344.35246                  23616244.2534
        41.0004         23.5004
  20139759.4924   -3117758.94949  -2406565.59848                  20139757.6864
        50.5004         42.0004
  20144932.1864   -1757171.73449  -1356471.79348                  20144930.6864
        49.5004         42.7504
  22880921.8594    -792513.51249   -614714.03947                  22880919.5214
        44.2504         28.5004
  22226003.0864   -3181382.27049  -2452887.56247                  22225999.9724
        47.2504         32.0004
  23541311.7684     -50284.98049    -42856.20347                  23541310.2214
        45.7504         26.5004
  21040960.7934   -1682739.90249  -1300097.98848                  21040956.5954
        50.0004         39.7504
 04  7 12 17 40 15.0000000  0  8G 3G 9G14G15G18G19G21G22
  22227782.9254   -1142180.00849   -883242.57047                  22227781.6064
        47.5004         32.5004
  23611160.8544   -1602362.77049  -1238168.27346                  23611157.6384
        42.7504         23.5004
  20128971.7734   -3174449.80149  -2450740.28148                  20128969.8154
        48.7504         42.0004
  20139050.0824   -1788082.58249  -1380558.18448                  20139048.7864
        46.7504         42.2504
  22878070.1974    -807500.15649   -626391.98847                  22878068.5104
        44.7504         27.7504
  22215024.1384   -3239077.15649  -2497844.63347                  22215020.6754
        46.2504         32.5004
  23541368.1614     -49980.27049    -42618.79346                  23541365.7324
        41.7504         22.0004
  21034953.2364   -1714308.85949  -1324697.18048                  21034949.5394
        46.5004         40.5004
 04  7 12 17 40 30.0000000  0  8G 3G 9G14G15G18G19G21G22
  22224147.8864   -1161281.66849   -898126.98447                  22224147.0634
        47.5004         32.2504
  23606101.5484   -1628950.03549  -1258885.59847                  23606098.6404
        44.0004         25.7504
  20118207.8994   -3231014.57849  -2494816.72748                  20118205.5914
        48.5004         42.0004
  20133189.2374   -1818880.65649  -1404556.69148                  20133187.9184
        47.2504         42.0004
  22875220.6314    -822474.47749   -638060.30147                  22875217.5544
        40.5004         27.5004
  22204071.5224   -3296636.06649  -2542695.73447                  22204067.6574
        44.2504         32.7504
  23541436.2194     -49627.30949    -42343.78546                  23541434.9274
        44.0004         25.5004
  21028951.8494   -1745845.69949  -1349271.34848                  21028948.1644
        46.2504         40.5004
 04  7 12 17 40 45.0000000  0  8G 3G 9G14G15G18G19G21G22
  22520322.4824   -1180292.22349   -912940.41047                  22520321.6894
        47.0004         32.0004
  23900860.8644   -1655397.51249  -1279493.99647                  23900858.5734
        43.7504         27.5004
  20407261.3604   -3287448.16449  -2538790.94948                  20407259.4474
        49.2504         41.7504
  20427143.2304   -1849562.52049  -1428464.64548                  20427142.0204
        50.7504         41.7504
  23172166.2864    -837434.02749   -649717.10547                  23172165.2414
        43.5004         27.7504
  22492936.9254   -3354053.63349  -2587436.70747                  22492933.9814
        46.5004         33.0004
  23841305.5244     -49224.65649    -42030.07446                  23841301.9634
        43.0004         22.5004
  21322749.9404   -1777346.94149  -1373817.77748                  21322746.3154
        50.5004         40.2504
 04  7 12 17 41  0.0000000  0  8G 3G 9G14G15G18G19G21G22
  22516721.7784   -1199216.36749   -927686.50847                  22516720.7664
        47.5004         31.7504
  23895852.6574   -1681710.71549  -1299997.81247                  23895852.5714
        40.0004         27.5004
  20396545.5734   -3343760.19949  -2582670.45348                  20396543.1344
        48.2504         41.2504
  20421325.7474   -1880134.14849  -1452286.69948                  20421324.0854
        52.5004         41.2504
  23169321.5184    -852382.77349   -661365.50047                  23169319.2944
        43.5004         28.0004
  22482036.5944   -3411339.31649  -2632074.90647                  22482032.9854
        47.0004         33.0004
  23841389.0744     -48774.58649    -41679.37546                  23841390.0734
        40.5004         22.5004
  21316760.7534   -1808818.79349  -1398341.29748                  21316757.6194
        51.7504         40.2504
 04  7 12 17 41 15.0000000  0  8G 3G 9G14G15G18G19G21G22
  22513137.3024   -1218052.35949   -942363.92647                  22513136.6514
        47.5004         31.7504
  23890871.1304   -1707887.28949  -1320395.18447                  23890871.4324
        40.7504         26.0004
  20385853.6714   -3399946.00049  -2626451.59048                  20385851.7414
        49.0004         41.5004
  20415529.5554   -1910592.75449  -1476020.69148                  20415528.1434
        51.5004         41.5004
  23166479.4004    -867319.06249   -673004.19947                  23166479.0054
        43.5004         28.2504
  22471161.4264   -3468488.63749  -2676606.84847                  22471158.1514
        47.5004         33.7504
  23841486.7534     -48276.13749    -41291.04346                  23841482.9554
        43.2504         23.0004
  21310778.2274   -1840258.42649  -1422839.71948                  21310775.0584
        51.5004         40.2504
 04  7 12 17 41 30.0000000  0  8G 3G 9G14G15G18G19G21G22
  22509569.8934   -1236799.97349   -956972.47347                  22509569.4934
        47.0004         32.0004
  23885916.2434   -1733926.77749  -1340685.73446                  23885915.5924
        40.5004         24.2504
  20375186.2874   -3456005.06649  -2670133.97348                  20375183.8114
        49.7504         41.7504
  20409755.1584   -1940937.66049  -1499666.07848                  20409753.8424
        52.5004         42.0004
  23163638.9834    -882242.15249   -684632.60547                  23163637.4904
        42.0004         28.0004
  22460312.1334   -3525500.87149  -2721031.98447                  22460309.4314
        48.0004         33.5004
  23841587.6804     -47729.35549    -40865.06246                  23841588.6954
        38.5004         22.2504
  21304801.8234   -1871665.26249  -1447312.58648                  21304798.6974
        51.2504         40.2504
 04  7 12 17 41 45.0000000  0  8G 3G 9G14G15G18G19G21G22
  22506018.4664   -1255460.41449   -971513.09047                  22506018.3484
        47.2504         31.5004
  23880987.2744   -1759830.35549  -1360870.32046                  23880984.4154
        41.2504         23.5004
  20364542.4134   -3511938.30949  -2713718.31248                  20364540.0394
        50.0004         41.7504
  20404002.1134   -1971169.84449  -1523223.63348                  20404000.5754
        50.0004         42.0004
  23160801.7844    -897153.15249   -696251.59047                  23160800.6564
        40.7504         28.5004
  22449488.7394   -3582377.02049  -2765351.05547                  22449486.6224
        47.5004         33.7504
  23841703.1484     -47135.27349    -40402.15646                  23841700.3494
        41.5004         23.0004
  21298831.4894   -1903040.23849  -1471760.62548                  21298828.2324
        50.2504         40.5004
 04  7 12 17 42  0.0000000  0  8G 3G 9G14G15G18G19G21G22
  22502484.0844   -1274034.83649   -985986.69147                  22502483.7344
        47.2504         31.5004
  23876083.5474   -1785599.00849  -1380949.75847                  23876081.3844
        41.7504         25.7504
  20353922.4274   -3567746.72749  -2757205.39548                  20353920.5614
        49.5004         42.0004
  20398270.6884   -2001290.13749  -1546694.00848                  20398269.1184
        50.0004         42.0004
  23157966.8264    -912052.81649   -707861.74247                  23157964.7064
        41.2504         28.2504
  22438691.6174   -3639117.82049  -2809564.67647                  22438688.7004
        46.7504         34.0004
  23841824.6494     -46494.65649    -39903.07046                  23841822.4404
        40.0004         21.5004
  21292866.7034   -1934384.28149  -1496184.56248                  21292863.3764
        49.0004         40.2504
 04  7 12 17 42 15.0000000  0  8G 3G 9G14G15G18G19G21G22
  22498966.0494   -1292521.72749  -1000392.07447                  22498966.1544
        47.0004         32.7504
  23871205.7874   -1811230.89149  -1400922.65647                  23871205.5074
        42.2504         26.7504
  20343326.6114   -3623428.34849  -2800593.66448                  20343324.3594
        50.2504         42.0004
  20392560.6684   -2031296.55949  -1570075.64548                  20392559.0094
        52.0004         42.0004
  23155133.8494    -926939.30149   -719461.64547                  23155131.8854
        42.2504         28.0004
  22427920.3064   -3695721.21949  -2853671.22747                  22427917.4104
        47.7504         33.0004
  23841954.6244     -45805.94549    -39366.40246                  23841954.2124
        38.7504         22.5004
  21286908.3694   -1965695.52049  -1520582.93048                  21286904.9994
        51.0004         39.5004
 04  7 12 17 42 30.0000000  0  8G 3G 9G14G15G18G19G21G22
  22495464.4984   -1310922.31249  -1014730.22747                  22495464.2214
        47.0004         31.5004
  23866353.1464   -1836727.14549  -1420789.90647                  23866354.6244
        40.0004         26.7504
  20332754.3524   -3678984.31249  -2843884.02048                  20332752.2754
        49.5004         41.7504
  20386871.9544   -2061190.10249  -1593369.32848                  20386870.4684
        51.0004         42.2504
  23152303.5354    -941813.51249   -731051.93447                  23152302.6994
        43.5004         28.5004
  22417174.9514   -3752188.19949  -2897671.46947                  22417172.1264
        47.7504         33.0004
  23842096.4814     -45070.05149    -38793.04346                  23842093.3104
        38.5004         21.7504
  21280956.0574   -1996975.03149  -1544956.57848                  21280952.7634
        50.0004         40.0004
 04  7 12 17 42 45.0000000  0  8G 3G 9G14G15G18G19G21G22
  22491979.1634   -1329236.18449  -1029000.80547                  22491979.3624
        47.0004         32.2504
  23861527.9854   -1862087.17649  -1440551.04347                  23861528.7984
        40.0004         27.0004
  20322206.6724   -3734413.89149  -2887075.89848                  20322204.2374
        50.5004         42.2504
  20381204.7984   -2090969.97349  -1616574.43048                  20381203.8294
        50.5004         42.2504
  23149476.2644    -956674.63749   -742632.07847                  23149473.3094
        42.5004         28.2504
  22406455.7754   -3808517.89549  -2941564.74247                  22406452.7894
        47.2504         33.5004
  23842242.3504     -44286.69149    -38182.66846                  23842243.0714
        37.5004         22.5004
  21275009.8974   -2028222.09849  -1569304.93748                  21275006.3594
        51.2504         39.5004
 04  7 12 17 43  0.0000000  0  8G 3G 9G14G15G18G19G21G22
  22488510.9764   -1347464.18749  -1043204.46547                  22488510.3604
        47.2504         32.0004
  23856729.0194   -1887311.81249  -1460206.65247                  23856728.3584
        42.5004         28.2504
  20311682.7444   -3789717.65249  -2930169.72748                  20311680.3444
        50.0004         42.0004
  20375559.6314   -2120636.76649  -1639691.41448                  20375558.6994
        51.7504         42.5004
  23146650.3534    -971523.60549   -754202.69947                  23146649.0794
        41.5004         28.7504
  22395762.5884   -3864710.99649  -2985351.58247                  22395759.1164
        46.7504         33.7504
  23842402.4544     -43456.46949    -37535.78946                  23842400.7344
        40.5004         21.2504
  21269069.8914   -2059437.25449  -1593628.44147                  21269066.5484
        50.7504         39.0004
 04  7 12 17 43 15.0000000  0  8G 3G 9G14G15G18G19G21G22
  22485058.2894   -1365606.58649  -1057341.42247                  22485058.1034
        46.5004         32.0004
  23851954.9124   -1912401.18449  -1479756.78947                  23851953.8994
        44.2504         28.0004
  20301182.4084   -3844895.45349  -2973165.41048                  20301180.7074
        49.7504         42.2504
  20369935.7264   -2150190.42249  -1662720.24648                  20369934.6394
        50.7504         41.5004
  23143827.0154    -986360.20349   -765763.68747                  23143824.4864
        44.0004         27.7504
  22385095.6364   -3920767.37549  -3029031.87547                  22385092.1104
        47.5004         33.0004
  23842567.9884     -42579.46948    -36852.51246                  23842568.5694
        34.5004         21.7504
  21263135.6204   -2090620.46149  -1617927.03947                  21263132.4914
        49.5004         39.0004
 04  7 12 17 43 30.0000000  0  8G 3G 9G14G15G18G19G21G22
  22481621.9014   -1383663.12149  -1071411.47347                  22481622.1674
        46.2504         32.2504
  23847206.3454   -1937354.78949  -1499201.12947                  23847204.2124
        42.2504         26.2504
  20290706.7354   -3899946.90649  -3016062.64848                  20290704.7334
        50.0004         42.0004
  20364333.5564   -2179630.40249  -1685660.50048                  20364332.0464
        51.2504         41.5004
  23141006.8864   -1001183.88749   -777314.66447                  23141004.7814
        43.0004         27.7504
  22374454.5044   -3976686.43749  -3072605.17647                  22374450.7154
        47.0004         33.7504
  23842745.9624     -41655.37949    -36132.44546                  23842743.3034
        39.5004         21.5004
  21257207.8684   -2121771.25849  -1642200.38347                  21257204.3824
        50.5004         39.2504
 04  7 12 17 43 45.0000000  0  9G 3G 9G14G15G18G19G21G22G25
  22478202.6484   -1401634.57049  -1085415.22347                  22478202.4114
        47.0004         32.0004
  23842482.5244   -1962173.34849  -1518540.23446                  23842481.6074
        39.0004         23.0004
  20280254.6164   -3954872.70749  -3058861.96948                  20280252.5264
        49.5004         42.5004
  20358752.7064   -2208957.25049  -1708512.60248                  20358751.3844
        50.7504         41.7504
  23138187.0614   -1015995.19949   -788855.92247                  23138184.8594
        43.5004         27.0004
  22363839.8544   -4032468.57849  -3116071.78147                  22363835.9594
        48.0004         33.0004
  23842929.6734     -40684.60249    -35376.13346                  23842927.9964
        37.7504         20.5004
  21251286.4874   -2152890.18049  -1666448.89847                  21251282.9104
        50.0004         39.0004
  24492689.2844     -24966.96959
        39.5004
 04  7 12 17 44  0.0000000  0  9G 3G 9G14G15G18G19G21G22G25
  22474798.7884   -1419521.14149  -1099352.82447                  22474798.3954
        46.5004         31.5004
  23837784.6624   -1986856.83649  -1537774.18446                  23837785.2984
        39.5004         25.2504
  20269826.5664   -4009672.64549  -3101563.21548                  20269824.5484
        50.5004         42.5004
  20353193.5594   -2238170.80149  -1731276.41448                  20353192.0544
        51.2504         41.7504
  23135372.2544   -1030793.75049   -800387.29347                  23135370.8114
        44.5004         29.7504
  22353250.8274   -4088113.61749  -3159431.55947                  22353247.1104
        47.7504         34.0004
  23843123.1054     -39667.50449    -34583.54746                  23843121.6674
        38.7504         20.5004
  21245370.7804   -2183977.16449  -1690672.52747                  21245367.1884
        51.0004         39.2504
  24473929.4074    -123548.04749    -88276.28956                  24473929.9254
        40.0004         20.5004
 04  7 12 17 44 15.0000000  0  9G 3G 9G14G15G18G19G21G22G25
  22471411.4034   -1437324.18049  -1113225.34847                  22471410.4324
        47.5004         31.7504
  23833113.4784   -2011406.60949  -1556903.92247                  23833114.6214
        41.0004         26.7504
  20259422.2394   -4064347.86749  -3144167.27748                  20259420.1084
        50.2504         42.0004
  20347655.7374   -2267272.09449  -1753952.75848                  20347654.4704
        51.2504         41.5004
  23132557.9654   -1045580.90649   -811909.77747                  23132555.5234
        42.7504         27.0004
  22342687.6244   -4143622.75449  -3202685.44547                  22342684.3274
        47.5004         33.2504
  23843325.7304     -38605.15249    -33755.78946                  23843324.5824
        39.2504         22.2504
  21239461.0244   -2215033.31249  -1714872.12148                  21239457.4954
        50.7504         39.5004
  24455167.3934    -222147.91849   -165107.27746                  24455166.9294
        39.7504         20.5004
 04  7 12 17 44 30.0000000  0  9G 3G 9G14G15G18G19G21G22G25
  22468040.4204   -1455043.13349  -1127032.35547                  22468039.0154
        47.5004         32.5004
  23828468.3864   -2035821.94149  -1575928.86347                  23828468.9124
        42.5004         28.5004
  20249042.1104   -4118897.51649  -3186673.49648                  20249039.9074
        50.0004         42.2504
  20342139.3354   -2296260.16849  -1776540.87548                  20342138.3124
        52.2504         42.0004
  23129745.9294   -1060355.70749   -823422.62147                  23129745.4584
        42.0004         28.0004
  22332150.7604   -4198994.84449  -3245832.53147                  22332147.3974
        47.7504         33.7504
  23843535.9414     -37496.93749    -32892.32046                  23843535.5304
        39.0004         22.2504
  21233557.1784   -2246057.69549  -1739046.96148                  21233553.5994
        51.2504         39.5004
  24436400.4664    -320765.38749   -241952.04346                  24436401.0924
        39.5004         21.0004
 04  7 12 17 44 45.0000000  0  9G 3G 9G14G15G18G19G21G22G25
  22464683.2074   -1472680.11349  -1140775.46947                  22464682.2664
        47.2504         32.0004
  23823847.7494   -2060104.62549  -1594850.46147                  23823847.9234
        42.2504         28.0004
  20238684.8624   -4173323.42649  -3229083.30148                  20238682.6354
        49.2504         42.2504
  20336644.4894   -2325136.77349  -1799042.13748                  20336643.3334
        51.5004         42.0004
  23126936.5834   -1075119.85949   -834927.20347                  23126934.7244
        43.7504         28.0004
  22321639.4694   -4254231.71949  -3288874.25047                  22321636.4504
        47.7504         33.5004
  23843756.0314     -36344.60949    -31994.45746                  23843754.6244
        39.0004         22.2504
  21227659.0834   -2277052.11749  -1763198.46948                  21227655.8524
        51.2504         39.7504
  24417630.5414    -419401.94049   -318811.69546                  24417631.4954
        38.2504         19.2504
 04  7 12 17 45  0.0000000  0  9G 3G 9G14G15G18G19G21G22G25
  22461342.5794   -1490235.12549  -1154454.70747                  22461342.2034
        48.5004         31.5004
  23819251.7254   -2084254.45349  -1613668.48446                  23819251.4204
        41.0004         25.2504
  20228351.4744   -4227625.21549  -3271396.37548                  20228349.4934
        50.2504         42.5004
  20331170.8054   -2353901.53149  -1821456.25048                  20331169.4594
        51.7504         41.2504
  23124129.0264   -1089873.12149   -846423.26247                  23124128.8194
        43.2504         28.0004
  22311154.0974   -4309332.96949  -3331810.30147                  22311151.3104
        47.0004         33.5004
  23843983.0754     -35148.01649    -31062.11746                  23843982.7634
        37.2504         23.2504
  21221766.9734   -2308016.21149  -1787326.34447                  21221763.8464
        51.2504         39.0004
  24398857.3374    -518056.85549   -395685.57446                  24398857.7464
        38.0004         20.0004
 04  7 12 17 45 15.0000000  0  9G 3G 9G14G15G18G19G21G22G25
  22458017.3434   -1507709.16449  -1168070.85547                  22458016.6714
        46.7504         31.2504
  23814679.2524   -2108272.24649  -1632383.65646                  23814680.1384
        36.5004         21.2504
  20218041.9374   -4281803.60949  -3313613.29748                  20218039.3114
        50.2504         42.0004
  20325718.3824   -2382555.13349  -1843783.73048                  20325717.0204
        51.2504         41.5004
  23121323.5584   -1104616.09049   -857911.31247                  23121322.4244
        43.0004         27.0004
  22300694.5204   -4364299.28949  -3374641.19947                  22300691.6444
        47.0004         32.7504
  23844219.7244     -33908.08649    -30095.96146                  23844218.4494
        40.0004         25.2504
  21215880.2504   -2338950.73449  -1811431.17247                  21215877.0614
        50.7504         39.2504
  24380079.7834    -616730.46949   -472574.07846                  24380081.0564
        38.0004         19.2504
 04  7 12 17 45 30.0000000  0  9G 3G 9G14G15G18G19G21G22G25
  22454707.3104   -1525101.05549  -1181622.99247                  22454706.8784
        47.0004         30.2504
  23810135.4294   -2132156.76249  -1650995.02046                  23810135.2934
        38.2504         21.5004
  20207755.6854   -4335857.34849  -3355733.09048                  20207753.5494
        48.2504         42.2504
  20320287.2374   -2411096.22749  -1866023.55148                  20320285.7294
        51.2504         42.2504
  23118520.6884   -1119347.47749   -869390.33247                  23118519.0914
        43.7504         27.5004
  22290260.7624   -4419129.16849  -3417365.78147                  22290257.6494
        44.2504         32.7504
  23844464.3274     -32623.69949    -29095.21946                  23844462.7724
        40.2504         24.2504
  21209999.4734   -2369854.31649  -1835511.89847                  21209996.0414
        50.2504         39.0004
  24361299.2314    -715421.04748   -549475.78946                  24361300.8174
        35.2504         19.0004
 04  7 12 17 45 45.0000000  0  9G 3G 9G14G15G18G19G21G22G25
  22451413.3514   -1542411.16449  -1195111.41447                  22451412.8614
        46.5004         31.0004
  23805616.3174   -2155908.42249  -1669502.82447                  23805616.7014
        40.5004         27.5004
  20197493.1844   -4389786.57049  -3397755.86748                  20197491.1644
        47.7504         42.7504
  20314877.2464   -2439524.83649  -1888175.72348                  20314876.3224
        52.0004         42.2504
  23115719.6484   -1134067.34449   -880860.38347                  23115717.4734
        44.0004         27.0004
  22279852.5884   -4473822.57849  -3459984.03147                  22279849.3794
        43.2504         33.5004
  23844717.0954     -31294.80949    -28059.74646                  23844715.5054
        41.0004         23.2504
  21204124.4584   -2400727.06649  -1859568.59847                  21204121.1734
        51.0004         39.0004
  24342515.7194    -814128.19148   -626390.35546                  24342517.3594
        33.5004         17.0004
 04  7 12 17 46  0.0000000  0  9G 3G 9G14G15G18G19G21G22G25
  22448134.6614   -1559640.54349  -1208536.91847                  22448134.6064
        45.5004         30.0004
  23801122.3904   -2179528.01649  -1687907.71147                  23801123.2664
        39.7504         27.2504
  20187254.9754   -4443591.96549  -3439682.14148                  20187252.3134
        49.0004         42.2504
  20309488.8324   -2467841.72349  -1910240.84048                  20309487.4244
        52.0004         42.0004
  23112920.4844   -1148776.22349   -892321.86347                  23112919.3824
        44.2504         28.0004
  22269470.7324   -4528380.34049  -3502496.57847                  22269467.3544
        46.0004         33.7504
  23844977.8264     -29922.71949    -26990.62946                  23844976.9714
        38.7504         22.2504
  21198255.6574   -2431569.68449  -1883601.81647                  21198251.9854
        51.0004         38.5004
  24323729.3954    -912852.35248   -703318.20746                  24323730.1184
        35.2504         17.7504
 04  7 12 17 46 15.0000000  0  9G 3G 9G14G15G18G19G21G22G25
  22444872.3434   -1576788.50849  -1221899.00047                  22444871.4454
        46.5004         29.7504
  23796649.9494   -2203014.60249  -1706208.97346                  23796653.6324
        36.0004         22.5004
  20177039.2234   -4497272.59049  -3481511.20348                  20177037.2764
        49.5004         42.0004
  20304122.0384   -2496045.83249  -1932218.07048                  20304120.6224
        52.5004         41.5004
  23110124.0434   -1163473.12949   -903774.01647                  23110122.1844
        44.5004         28.0004
  22259114.7164   -4582801.28949  -3544902.52347                  22259111.6504
        47.7504         33.5004
  23845247.6214     -28506.03149    -25886.75846                  23845246.1524
        39.7504         21.7504
  21192392.1094   -2462381.14849  -1907610.75847                  21192388.7744
        50.7504         39.0004
  24304939.3884   -1011591.99248   -780258.13746                  24304940.2224
        34.7504         16.2504
 04  7 12 17 46 30.0000000  0  9G 3G 9G14G15G18G19G21G22G25
  22441624.6664   -1593854.94949  -1235197.54347                  22441624.1904
        46.2504         31.0004
  23792202.6464                                                   23792209.6164
        30.7504         19.0004
  20166847.9904   -4550828.04749  -3523242.72348                  20166846.2084
        50.0004         42.0004
  20298776.3904   -2524136.80149  -1954107.14848                  20298774.8004
        52.2504         42.0004
  23107328.9754   -1178157.74649   -915216.57047                  23107328.5014
        44.0004         29.0004
  22248784.9084   -4637085.07449  -3587201.58247                  22248781.7974
        47.2504         34.0004
  23845526.3434     -27044.64149    -24748.10546                  23845525.0684
        41.2504         21.7504
  21186535.1514   -2493161.22749  -1931595.24247                  21186531.0584
        50.7504         38.5004
  24286147.9294   -1110346.51649   -857209.63346                  24286148.2884
        37.5004         15.5004
 04  7 12 17 46 45.0000000  0  9G 3G 9G14G15G18G19G21G22G25
  22438392.8664   -1610840.29749  -1248432.91847                  22438391.8494
        45.7504         30.5004
  23787790.3774   -2249588.28949  -1742500.34846                  23787789.9824
        39.5004         18.2504
  20156680.4784   -4604258.53549  -3564876.86748                  20156678.5634
        49.2504         42.5004
  20293452.2824   -2552114.64549  -1975908.06648                  20293451.0944
        51.7504         41.7504
  23104537.2414   -1192830.13749   -926649.64547                  23104536.2584
        44.0004         28.0004
  22238480.9174   -4691231.77049  -3629393.83247                  22238477.9084
        47.5004         33.5004
  23845812.5624     -25538.89549    -23574.82846                  23845811.4334
        40.2504         22.5004
  21180684.0414   -2523909.89549  -1955555.25047                  21180679.9624
        50.7504         38.5004
  24267352.9294   -1209115.60948   -934172.56646                  24267352.8474
        34.2504         17.5004
 04  7 12 17 47  0.0000000  0  9G 3G 9G14G15G18G19G21G22G25
  22435175.7974   -1627745.84049  -1261606.08247                  22435175.4654
        46.0004         30.5004
  23783396.5294   -2272677.12549  -1760491.54346                  23783393.8674
        41.7504         21.7504
  20146536.7004   -4657565.13349  -3606414.47748                  20146534.4904
        49.7504         42.7504
  20288149.5124   -2579980.40649  -1997621.66048                  20288148.5974
        51.7504         41.7504
  23101747.3014   -1207491.29349   -938073.93047                  23101745.6174
        43.7504         26.7504
  22228203.2504   -4745242.43749  -3671480.06647                  22228200.2084
        47.0004         33.5004
  23846107.3574     -23990.12149    -22368.04346                  23846106.2054
        39.2504         22.2504
  21174838.6404   -2554628.31649  -1979491.69547                  21174834.4114
        50.7504         38.7504
  24248554.1394   -1307899.90248  -1011147.20346                  24248554.6514
        35.2504         17.0004
 04  7 12 17 47 15.0000000  0  9G 3G 9G14G15G18G19G21G22G25
  22431974.3044   -1644569.52349  -1274715.48047                  22431973.4734
        46.7504         30.7504
  23779028.2684   -2295632.01249  -1778378.39146                  23779026.7824
        41.5004         23.5004
  20136416.7654   -4710745.48449  -3647853.70748                  20136414.7764
        49.7504         42.5004
  20282868.6204   -2607731.72749  -2019246.07448                  20282867.6434
        52.2504         42.0004
  23098959.6084   -1222139.01249   -949487.76647                  23098958.7214
        42.5004         29.5004
  22217951.8284   -4799114.53949  -3713458.32847                  22217948.4434
        47.0004         33.7504
  23846410.0754     -22396.12549    -21126.00846                  23846410.0814
        39.0004         21.5004
  21168999.0534   -2585314.02049  -2003402.63747                  21168995.0364
        51.2504         38.7504
  24229753.1994   -1406696.70348  -1088131.74246                  24229753.9044
        35.5004         17.0004
 04  7 12 17 47 30.0000000  0  9G 3G 9G14G15G18G19G21G22G25
  22428787.6874   -1661312.86349  -1287762.25047                  22428787.9064
        45.0004         31.2504
  23774683.5384   -2318454.45349  -1796162.09446                  23774685.1374
        38.0004         24.0004
  20126320.6914   -4763800.99649  -3689195.66448                  20126318.2554
        50.2504         42.7504
  20277609.0584   -2635369.82849  -2040782.27048                  20277608.1034
        52.0004         42.2504
  23096174.7154   -1236774.39149   -960891.97747                  23096174.0054
        43.5004         29.2504
  22207726.6704   -4852849.33249  -3755329.61747                  22207723.0024
        47.0004         33.5004
  23846722.5314     -20758.01649    -19849.59046                  23846721.7424
        40.0004         21.5004
  21163165.7954   -2615968.27749  -2027289.08247                  21163161.6964
        50.5004         38.5004
  24210951.5924   -1505506.98049  -1165126.67646                  24210951.1614
        37.2504         17.5004
 04  7 12 17 47 45.0000000  0  9G 3G 9G14G15G18G19G21G22G25
  22425617.5114   -1677974.97749  -1300745.73847                  22425616.9224
        46.7504         31.0004
  23770365.2984   -2341143.19548  -1813841.81646                  23770368.3614
        35.7504         22.5004
  20116248.5804   -4816730.41049  -3730439.35948                  20116246.3594
        50.2504         43.0004
  20272371.5854   -2662893.46549  -2062229.26248                  20272370.5884
        52.0004         42.0004
  23093393.2474   -1251396.14549   -972285.59447                  23093391.8414
        45.5004         30.0004
  22197527.3754   -4906445.60549  -3797092.94947                  22197523.9144
        47.0004         33.5004
  23847042.2164     -19074.81249    -18538.06646                  23847042.5554
        40.2504         21.0004
  21157338.6754   -2646589.96949  -2051150.14547                  21157334.9634
        51.2504         38.2504
  24192145.3554   -1604328.98049  -1242130.79346                  24192145.8944
        36.7504         17.5004
 04  7 12 17 48  0.0000000  0  9G 3G 9G14G15G18G19G21G22G25
  22422461.9484   -1694558.46149  -1313667.95747                  22422461.2774
        45.7504         31.5004
  23766074.6874   -2363700.85549  -1831419.27346                  23766075.6804
        39.7504         21.7504
  20106200.0084   -4869536.02349  -3771586.58648                  20106197.7434
        50.2504         42.7504
  20267155.2394   -2690304.80149  -2083588.75048                  20267154.2454
        52.0004         41.7504
  23090612.5134   -1266006.69549   -983670.45347                  23090610.9924
        44.5004         29.0004
  22187353.9934   -4959905.57449  -3838750.07847                  22187350.7854
        47.5004         33.5004
  23847371.5644     -17348.91849    -17193.27746                  23847370.5204
        41.0004         21.0004
  21151517.2694   -2677181.23449  -2074987.50447                  21151513.6604
        50.2504         38.2504
  24173337.3724   -1703164.78149  -1319145.64146                  24173338.7584
        37.7504         18.2504
 04  7 12 17 48 15.0000000  0  9G 3G 9G14G15G18G19G21G22G25
  22419320.3324   -1711063.43749  -1326528.99647                  22419320.7774
        46.2504         31.5004
  23761807.3934   -2386127.44549  -1848894.52746                  23761806.6564
        41.0004         21.0004
  20096175.0004   -4922217.81649  -3812637.33648                  20096172.6154
        50.2504         42.2504
  20261960.2814   -2717603.78949  -2104860.70348                  20261959.7304
        51.5004         41.5004
  23087833.9604   -1280605.68049   -995046.29347                  23087833.4584
        45.2504         29.5004
  22177206.5104   -5013229.05949  -3880300.84047                  22177203.6334
        47.0004         33.2504
  23847707.5254     -15580.45749    -15815.31646                  23847707.3874
        39.0004         20.5004
  21145701.9484   -2707741.96549  -2098801.08247                  21145698.4044
        50.5004         38.5004
  24154527.8314   -1802013.85949  -1396170.84446                  24154528.2054
        40.2504         18.5004
 04  7 12 17 48 30.0000000  0  9G 3G 9G14G15G18G19G21G22G25
  22416195.1084   -1727488.82049  -1339328.02047                  22416194.8384
        46.7504         32.0004
  23757563.9284   -2408421.77049  -1866266.56246                  23757560.8034
        38.5004         19.0004
  20086173.8834   -4974774.41449  -3853590.53548                  20086171.5224
        50.2504         41.7504
  20256787.3754   -2744789.09049  -2126044.06648                  20256786.4514
        51.2504         41.7504
  23085059.1544   -1295191.78949  -1006412.13747                  23085056.7974
        43.7504         28.7504
  22167085.7664   -5066414.62949  -3921744.15247                  22167083.1484
        46.5004         33.2504
  23848052.6434     -13768.17249    -14403.23046                  23848051.9594
        40.5004         20.5004
  21139892.1014   -2738270.90649  -2122589.87947                  21139888.6904
        50.0004         39.0004
  24135715.3044   -1900874.25049  -1473204.85546                  24135715.6534
        40.0004         20.5004
 04  7 12 17 48 45.0000000  0  9G 3G 9G14G15G18G19G21G22G25
  22712877.3074   -1743833.79749  -1352064.39847                  22712877.2414
        45.7504         31.5004
  24053137.6484   -2430582.38348  -1883534.62546                  24053136.9874
        35.2504         19.2504
  20375989.7414   -5027202.35949  -3894443.46948                  20375987.1704
        49.0004         42.5004
  20551428.5814   -2771858.87949  -2147137.42248                  20551428.0074
        51.7504         41.5004
  23382078.2034   -1309764.05949  -1017767.14547                  23382077.0264
        45.5004         29.0004
  22456784.5644   -5119458.69549  -3963077.19947                  22456781.6614
        45.5004         33.2504
  24148197.1604     -11912.30949    -12957.16446                  24148197.0084
        39.2504         19.2504
  21433881.6614   -2768765.97349  -2146352.27347                  21433878.4104
        50.7504         38.5004
  24416693.7174   -1999739.14849  -1550242.37546                  24416695.0204
        40.0004         21.0004
 04  7 12 17 49  0.0000000  0  9G 3G 9G14G15G18G19G21G22G25
  22709781.1534   -1760101.45349  -1364740.52347                  22709781.8544
        45.0004         31.5004
  24048946.9244   -2452612.98049  -1900701.42246                  24048947.2914
        37.7504         20.5004
  20366036.0004   -5079509.19549  -3935202.04348                  20366033.6984
        47.2504         42.2504
  20546298.4954   -2798817.21949  -2168143.93048                  20546298.0054
        51.0004         41.5004
  23379307.4894   -1324324.81649  -1029113.21547                  23379305.4944
        45.2504         29.0004
  22446716.1874   -5172368.87149  -4004305.91047                  22446713.5244
        42.2504         33.2504
  24148559.5414     -10013.35249    -11477.51646                  24148558.8054
        41.5004         20.0004
  21428084.4984   -2799231.75049  -2170091.85547                  21428080.6884
        50.7504         38.5004
  24397877.1264   -2098621.91049  -1627293.81246                  24397878.4624
        39.5004         21.0004
 04  7 12 17 49 15.0000000  0  9G 3G 9G14G15G18G19G21G22G25
  22706700.9164   -1776289.75049  -1377354.80147                  22706700.9184
        45.5004         31.5004
  24044780.7764   -2474511.27349  -1917765.06646                  24044781.5004
        41.0004         25.0004
  20356106.3774   -5131690.34449  -3975862.68048                  20356103.7994
        47.0004         42.2504
  20541190.5894   -2825661.13749  -2189061.27348                  20541189.5744
        51.2504         41.5004
  23376539.3294   -1338871.96549  -1040448.66447                  23376537.7194
        44.0004         28.5004
  22436673.9054   -5225140.42649  -4045426.60947                  22436671.4844
        41.0004         33.0004
  24148928.9314      -8070.34449     -9963.52746                  24148927.5764
        41.2504         19.2504
  21422292.8644   -2829665.00449  -2193806.08647                  21422289.6674
        50.7504         39.0004
  24379058.2344   -2197514.42249  -1704352.84446                  24379059.0394
        39.5004         21.0004
 04  7 12 17 49 30.0000000  0  9G 3G 9G14G15G18G19G21G22G25
  22703634.5114   -1792400.90249  -1389908.96547                  22703634.8994
        46.0004         30.5004
  24040638.6994   -2496279.19949  -1934727.10546                  24040638.9684
        42.0004         25.0004
  20346199.9894   -5183747.77749  -4016426.91048                  20346197.8714
        46.5004         42.5004
  20536103.7894   -2852392.51249  -2209890.91848                  20536102.5934
        52.0004         41.2504
  23373772.8884   -1353407.43449  -1051775.02347                  23373771.9244
        44.0004         28.0004
  22426658.2414   -5277775.22749  -4086440.74647                  22426655.4174
        42.0004         34.2504
  24149307.3774      -6085.25449     -8416.74646                  24149306.0464
        41.7504         20.5004
  21416507.4724   -2860067.75049  -2217496.54747                  21416503.7894
        51.0004         38.5004
  24360237.6424   -2296418.24249  -1781420.64846                  24360238.7854
        39.5004         20.0004
 04  7 12 17 49 45.0000000  0  9G 3G 9G14G15G18G19G21G22G25
  22700584.2974   -1808433.08649  -1402401.60547                  22700584.3474
        44.5004         31.0004
  24036520.8684   -2517914.63749  -1951585.86346                  24036520.0064
        39.7504         21.7504
  20336317.4824   -5235679.26649  -4056893.00448                  20336315.2164
        46.2504         42.0004
  20531038.8614   -2879009.16049  -2230631.17248                  20531037.8904
        52.2504         41.7504
  23371009.9884   -1367928.96749  -1063090.48847                  23371008.3774
        43.7504         29.5004
  22416668.5144   -5330270.95749  -4127346.52047                  22416665.4134
        42.5004         33.2504
  24149693.3144      -4056.17649     -6835.71546                  24149692.9014
        41.2504         20.5004
  21410728.3214   -2890437.71149  -2241161.45747                  21410725.0734
        50.0004         38.7504
  24341414.7764   -2395330.82849  -1858495.33246                  24341416.1064
        40.7504         20.0004
 04  7 12 17 50  0.0000000  0  9G 3G 9G14G15G18G19G21G22G25
  22697548.0964   -1824388.97349  -1414834.77747                  22697547.8444
        45.7504         30.5004
  24032427.1774   -2539420.36749  -1968343.50046                  24032425.7804
        38.7504         20.0004
  20326459.0284   -5287487.36349  -4097262.94548                  20326456.6784
        48.2504         42.0004
  20525994.9934   -2905513.59449  -2251283.99248                  20525994.1044
        52.5004         41.2504
  23368248.9434   -1382438.93049  -1074397.03547                  23368247.6474
        44.2504         28.2504
  22406704.9324   -5382630.21949  -4168145.95347                  22406702.0064
        45.0004         34.5004
  24150087.2754      -1985.83249     -5222.46146                  24150086.2374
        42.0004         20.0004
  21404955.0794   -2920777.35549  -2264802.75047                  21404951.4984
        50.7504         38.7504
  24322590.3374   -2494254.02349  -1935578.29346                  24322591.3754
        40.0004         20.0004
 04  7 12 17 50 15.0000000  0  9G 3G 9G14G15G18G19G21G22G25
  22694526.9534   -1840267.28549  -1427207.51647                  22694526.5844
        45.0004         31.5004
  24028360.2464   -2560794.82049  -1984998.95746                  24028360.4484
        39.5004         21.0004
  20316623.9874   -5339170.52349  -4137535.53948                  20316621.9074
        49.7504         42.0004
  20520973.2504   -2931904.17649  -2271848.09048                  20520972.1494
        52.0004         41.7504
  23365490.0094   -1396935.93049  -1085693.40647                  23365488.7064
        43.5004         27.7504
  22396767.5154   -5434851.20749  -4208837.64547                  22396764.6014
        47.5004         34.0004
  24150489.1254        127.19149     -3576.01646                  24150489.3634
        41.2504         21.7504
  21399187.5194   -2951085.06649  -2288419.15648                  21399184.0984
        50.5004         39.7504
  24303764.5974   -2593186.10949  -2012668.14146                  24303764.9794
        42.2504         21.7504
 04  7 12 17 50 30.0000000  0  9G 3G 9G14G15G18G19G21G22G25
  22691519.7704   -1856067.87949  -1439519.68047                  22691519.6094
        45.5004         31.5004
  24024319.5484   -2582037.78549  -2001551.96547                  24024320.2954
        40.5004         27.0004
  20306812.9094   -5390728.32849  -4177710.44548                  20306810.6244
        49.2504         42.5004
  20515973.2444   -2958180.34849  -2292323.03548                  20515972.0944
        52.0004         41.7504
  23362734.5714   -1411419.26249  -1096979.16847                  23362732.4244
        44.0004         28.0004
  22386856.8864   -5486933.56249  -4249421.30947                  22386853.6744
        47.5004         33.5004
  24150900.0254       2283.67649     -1895.69946                  24150898.8764
        42.7504         21.2504
  21393426.5404   -2981360.25849  -2312010.22747                  21393422.7744
        50.0004         39.0004
  24284936.4274   -2692126.05549  -2089764.16046                  24284937.3194
        41.5004         21.2504
 04  7 12 17 50 45.0000000  0  9G 3G 9G14G15G18G19G21G22G25
  22688527.6144   -1871791.97749  -1451772.25847                  22688527.1184
        44.7504         31.0004
  24020301.8424   -2603150.26649  -2018003.29747                  24020302.8874
        41.5004         28.7504
  20297025.4624   -5442161.77349  -4217788.45348                  20297023.0374
        49.7504         42.2504
  20510994.3994   -2984343.02749  -2312709.55148                  20510993.2984
        52.5004         42.0004
  23359980.7114   -1425889.66849  -1108254.81647                  23359978.0884
        43.2504         27.2504
  22376972.3564   -5538878.09849  -4289897.57447                  22376968.5664
        47.5004         33.2504
  24151319.5964       4482.46549      -182.41846                  24151317.3964
        42.2504         22.0004
  21387671.1874   -3011603.96149  -2335576.75848                  21387667.7684
        50.0004         39.5004
  24266107.9134   -2791074.47749  -2166866.80546                  24266107.8624
        41.7504         21.2504
 04  7 12 17 51  0.0000000  0  9G 3G 9G14G15G18G19G21G22G25
  22685550.0644   -1887439.52749  -1463965.16847                  22685549.5314
        44.7504         31.0004
  24016308.6724   -2624132.08649  -2034352.78947                  24016309.7334
        41.7504         26.0004
  20287261.5064   -5493470.52349  -4257769.30148                  20287259.5754
        50.0004         42.5004
  20506037.6004   -3010391.91849  -2333007.39548                  20506036.5044
        52.0004         41.7504
  23357229.2364   -1440347.08249  -1119520.34847                  23357227.5974
        44.5004         28.5004
  22367113.8394   -5590684.44149  -4330266.16447                  22367110.1614
        47.7504         33.7504
  24151744.7394       6723.68849      1563.91846                  24151744.7324
        41.7504         22.7504
  21381922.1784   -3041815.89849  -2359118.53148                  21381918.4954
        50.5004         39.5004
  24247276.6604   -2890030.67249  -2243975.44946                  24247277.1454
        41.0004         21.0004
 04  7 12 17 51 15.0000000  0  9G 3G 9G14G15G18G19G21G22G25
  22682586.7764   -1903010.59849  -1476098.49647                  22682586.5834
        43.2504         31.5004
  24012340.2004   -2644983.29349  -2050600.49246                  24012340.1794
        40.5004         22.0004
  20277521.6774   -5544654.44949  -4297652.87948                  20277519.4284
        50.2504         42.2504
  20501102.1904   -3036326.83649  -2353216.43448                  20501101.4014
        52.0004         41.7504
  23354481.1674   -1454791.14149  -1130775.49647                  23354478.4284
        44.0004         29.0004
  22357281.5574   -5642352.42249  -4370526.94147                  22357277.6414
        47.7504         33.5004
  24152180.0364       9007.31349      3343.32446                  24152179.5114
        40.5004         21.7504
  21376179.1904   -3071995.75849  -2382635.31648                  21376175.5824
        50.0004         39.5004
  24228443.7964   -2988994.12149  -2321089.78546                  24228444.6444
        40.5004         21.7504
 04  7 12 17 51 30.0000000  0  9G 3G 9G14G15G18G19G21G22G25
  22679638.5914   -1918506.20749  -1488173.02347                  22679637.6934
        44.0004         31.5004
  24008397.2584   -2665704.64149  -2066746.96546                  24008395.3684
        39.2504         20.5004
  20267805.3354   -5595714.23849  -4337439.73048                  20267802.8504
        49.7504         42.0004
  20496188.7424   -3062148.39549  -2373337.13348                  20496187.4284
        51.5004         41.5004
  23351733.9944   -1469222.47749  -1142020.70747                  23351733.9024
        42.2504         28.0004
  22347475.7334   -5693882.71549  -4410680.42247                  22347472.0814
        47.7504         33.0004
  24152622.0944      11332.47749      5155.06346                  24152622.0914
        40.5004         21.2504
  21370442.2344   -3102144.22749  -2406127.63748                  21370438.5734
        51.0004         39.5004
  24209610.8524   -3087965.01249  -2398209.89546                  24209611.1534
        40.7504         21.2504
 04  7 12 17 51 45.0000000  0  9G 3G 9G14G15G18G19G21G22G25
  22676704.5724   -1933925.84049  -1500188.34847                  22676703.4444
        45.7504         31.7504
  24004479.8904   -2686295.70749  -2082791.93446                  24004478.4824
        42.0004         24.7504
  20258112.7274   -5646649.39549  -4377129.46148                  20258110.4794
        49.7504         42.0004
  20491296.4964   -3087855.89549  -2393368.96148                  20491295.7044
        51.2504         41.5004
  23348990.6604   -1483640.50049  -1153255.55947                  23348988.2444
        43.2504         27.5004
  22337695.9204   -5745274.56649  -4450726.02047                  22337692.3514
        48.0004         33.2504
  24153072.2594      13699.59049      6999.50046                  24153072.6884
        39.5004         20.0004
  21364711.0904   -3132260.57849  -2429594.93048                  21364707.9354
        51.0004         40.0004
  24190776.2504   -3186942.27349  -2475334.99246                  24190776.0604
        41.0004         20.0004
 04  7 12 17 52  0.0000000  0  9G 3G 9G14G15G18G19G21G22G25
  22673784.3544   -1949269.80949  -1512144.70747                  22673783.8664
        45.0004         32.2504
  24000586.2864   -2706756.68049  -2098735.56647                  24000586.3834
        42.5004         26.7504
  20248443.5864   -5697459.87549  -4416722.03948                  20248441.6194
        49.0004         42.0004
  20486426.1354   -3113449.27049  -2413311.86748                  20486425.1134
        52.0004         41.5004
  23346249.7914   -1498045.04349  -1164479.91047                  23346248.5384
        44.0004         27.7504
  22327942.9584   -5796527.94149  -4490663.72347                  22327939.1844
        47.7504         33.2504
  24153530.4534      16108.91049      8876.79346                  24153530.1974
        38.7504         17.0004
  21358986.3914   -3162344.75049  -2453037.14848                  21358982.9294
        51.0004         40.0004
  24171940.1674   -3285925.48049  -2552464.70346                  24171940.7034
        40.2504         20.5004
 04  7 12 17 52 15.0000000  0  9G 3G 9G14G15G18G19G21G22G25
  22670878.4284   -1964539.22749  -1524042.97747                  22670878.2034
        46.7504         31.5004
  23996716.6704   -2727088.44949  -2114578.52347                  23996717.0884
        41.2504         25.7504
  20238798.5654   -5748146.35949  -4456218.00448                  20238796.2154
        49.0004         41.7504
  20481577.6044   -3138929.24249  -2433166.40248                  20481576.8894
        51.5004         41.5004
  23343510.6894   -1512436.87149  -1175694.32847                  23343509.5884
        43.5004         27.5004
  22318216.1904   -5847643.49249  -4530494.02047                  22318212.4584
        46.7504         33.0004
  24153997.4064      18559.27049     10786.13746                  24153996.6974
        39.5004         19.0004
  21353267.6444   -3192397.61749  -2476454.96548                  21353263.8104
        51.2504         40.0004
  24153102.8244   -3384915.08249  -2629599.38346                  24153103.1414
        40.7504         20.0004
 04  7 12 17 52 30.0000000  0  9G 3G 9G14G15G18G19G21G22G25
  22667987.0404   -1979732.22749  -1535881.70347                  22667987.0724
        45.5004         30.7504
  23992871.2404   -2747288.92249  -2130319.21546                  23992873.6984
        38.0004         22.0004
  20229176.9304   -5798706.91449  -4495615.83648                  20229174.8504
        48.5004         42.2504
  20476750.9634   -3164293.76649  -2452930.96948                  20476749.7444
        51.5004         41.5004
  23340775.4384   -1526813.80949  -1186897.16847                  23340773.2414
        43.2504         27.2504
  22308515.9384   -5898619.12149  -4570215.30547                  22308511.7424
        45.2504         33.0004
  24154472.0304      21052.83249     12729.07446                  24154471.1594
        38.7504         19.2504
  21347554.9544   -3222416.88749  -2499846.61348                  21347551.1014
        50.2504         39.7504
  24134264.1614   -3483908.55949  -2706737.08646                  24134265.5394
        39.5004         20.5004
 04  7 12 17 52 45.0000000  0  9G 3G 9G14G15G18G19G21G22G25
  22665110.6074   -1994849.88749  -1547661.72747                  22665110.2984
        46.2504         32.2504
  23989053.1384   -2767359.16449  -2145958.44146                  23989053.5194
        38.5004         20.5004
  20219579.5404   -5849142.31649  -4534916.14848                  20219577.4274
        47.2504         41.7504
  20471946.0704   -3189543.57449  -2472606.15248                  20471945.1094
        52.0004         42.0004
  23338041.8694   -1541176.57049  -1198088.96147                  23338041.2544
        42.5004         26.0004
  22298841.0654   -5949455.65649  -4609828.18047                  22298838.0494
        43.0004         33.5004
  24154954.4304      23588.40249     14704.82046                  24154953.7544
        40.5004         21.0004
  21341848.5574   -3252403.40249  -2523212.73048                  21341845.0664
        51.0004         39.7504
  24115426.5854   -3582906.14849  -2783878.00446                  24115426.8854
        40.0004         20.5004
 04  7 12 17 53  0.0000000  0  9G 3G 9G14G15G18G19G21G22G25
  22662248.4964   -2009892.57449  -1559383.32447                  22662247.6894
        46.2504         31.0004
  23985259.7274   -2787299.60549  -2161496.38346                  23985256.9814
        41.7504         20.0004
  20210006.0434   -5899452.81249  -4574119.12948                  20210003.7304
        46.5004         41.5004
  20467162.9034   -3214678.92649  -2492192.15248                  20467162.1104
        52.0004         41.2504
  23335311.3834   -1555525.31649  -1209269.81247                  23335309.8274
        43.2504         27.7504
  22289194.4024   -6000153.28149  -4649332.83247                  22289190.8114
        42.5004         32.7504
  24155444.2264      26165.75049     16713.09046                  24155444.3824
        37.5004         19.0004
  21336148.6254   -3282357.37949  -2546553.49648                  21336145.1704
        50.7504         40.0004
  24096586.8004   -3681907.73549  -2861022.08646                  24096587.6964
        39.5004         20.5004
 04  7 12 17 53 15.0000000  0  9G 3G 9G14G15G18G19G21G22G25
  22659399.9974   -2024860.20749  -1571046.43447                  22659399.4254
        46.5004         31.5004
  23981490.0054   -2807109.84049  -2176932.84046                  23981488.2534
        41.0004         20.5004
  20200455.8344   -5949638.02349  -4613224.48848                  20200453.2074
        47.2504         41.2504
  20462401.3804   -3239699.25049  -2511688.51648                  20462400.6854
        51.5004         41.0004
  23332584.0014   -1569859.58249  -1220439.41047                  23332583.5794
        43.5004         26.0004
  22279573.2054   -6050711.39549  -4688728.76647                  22279570.0484
        44.0004         33.2504
  24155943.5334      28785.23049     18754.14546                  24155942.5694
        40.2504         19.5004
  21330454.7874   -3312278.20349  -2569868.43048                  21330451.5774
        50.7504         39.7504
  24077746.6564   -3780912.60549  -2938168.63746                  24077748.1794
        38.5004         20.0004
 04  7 12 17 53 30.0000000  0  9G 3G 9G14G15G18G19G21G22G25
  22656565.6034   -2039755.04349  -1582652.82847                  22656565.5834
        45.0004         31.0004
  23977742.6814   -2826791.97749  -2192269.57446                  23977743.7414
        38.2504         21.0004
  20190928.9474   -5999699.82449  -4652233.67648                  20190926.7394
        49.0004         41.5004
  20457662.3914   -3264606.35249  -2531096.66048                  20457661.1274
        51.5004         40.5004
  23329858.3694   -1584181.15249  -1231599.09447                  23329856.6984
        43.2504         26.2504
  22269978.3084   -6101131.89549  -4728017.47747                  22269975.2334
        46.5004         34.0004
  24156448.3904      31444.87949     20826.53146                  24156448.7024
        38.7504         18.5004
  21324766.9204   -3342167.78949  -2593159.02347                  21324763.8234
        50.5004         39.2504
  24058906.0674   -3879922.03949  -3015318.77046                  24058907.2384
        39.5004         21.5004
 04  7 12 17 53 45.0000000  0  9G 3G 9G14G15G18G19G21G22G25
  22653744.9654   -2054575.61749  -1594201.34047                  22653744.8924
        44.0004         30.5004
  23974020.7494   -2846344.23048  -2207505.27346                  23974023.4624
        32.5004         19.5004
  20181427.0774   -6049636.49649  -4691145.36748                  20181424.2414
        49.0004         41.7504
  20452944.3284   -3289398.59049  -2550415.29748                  20452943.5234
        51.0004         41.0004
  23327135.9034   -1598488.34849  -1242747.57047                  23327134.8674
        40.5004         27.2504
  22260410.1664   -6151413.04349  -4767197.60247                  22260407.1354
        47.0004         33.2504
  24156963.9394      34146.34449     22931.48846                  24156962.8564
        40.7504         20.0004
  21319085.3544   -3372024.44149  -2616423.95748                  21319082.0174
        50.2504         40.2504
  24040064.4104   -3978933.86349  -3092470.78946                  24040066.3254
        38.0004         21.5004
 04  7 12 17 54  0.0000000  0  9G 3G 9G14G15G18G19G21G22G25
  22650939.0444   -2069323.03149  -1605692.86347                  22650938.4314
        43.2504         30.0004
  23970327.0604   -2865768.04749  -2222640.77046                  23970327.5734
        38.7504         20.5004
  20171947.7214   -6099449.10949  -4729960.38348                  20171945.0044
        50.0004         42.0004
  20448248.1734   -3314076.91849  -2569645.17648                  20448246.9154
        51.0004         41.7504
  23324415.9534   -1612781.82849  -1253885.35547                  23324415.0624
        41.0004         26.7504
  22250868.3794   -6201555.80149  -4806269.88347                  22250865.3664
        47.7504         33.5004
  24157485.1254      36888.35249     25068.06646                  24157484.8294
        40.7504         21.2504
  21313410.3444   -3401849.00849  -2639663.88748                  21313406.8884
        50.5004         40.0004
  24021222.1774   -4077948.80149  -3169625.21946                  24021224.1044
        38.2504         20.5004
 04  7 12 17 54 15.0000000  0  9G 3G 9G14G15G18G19G21G22G25
  22648146.1914   -2083997.53149  -1617127.56247                  22648145.9624
        43.5004         29.5004
  23966657.0704   -2885063.46149  -2237676.11746                  23966654.3294
        41.2504         19.5004
  20162492.3614   -6149137.67649  -4768678.73848                  20162489.9974
        49.2504         41.2504
  20443573.9594   -3338641.25449  -2588786.22748                  20443572.7054
        51.5004         41.5004
  23321699.1214   -1627061.68049  -1265012.53947                  23321697.8254
        43.2504         27.2504
  22241353.0884   -6251560.00849  -4845234.21147                  22241349.5614
        47.0004         32.7504
  24158014.8874      39671.21149     27236.47746                  24158014.4594
        40.5004         20.0004
  21307741.2684   -3431641.42649  -2662878.76648                  21307737.3394
        50.5004         40.0004
  24002380.7964   -4176966.41049  -3246781.72746                  24002382.2684
        39.0004         21.0004
 04  7 12 17 54 30.0000000  0  9G 3G 9G14G15G18G19G21G22G25
  22645367.7964   -2098598.66049  -1628505.08247                  22645367.8354
        44.5004         29.7504
  23963008.8134   -2904229.81649  -2252610.82046                  23963006.8084
        39.5004         19.2504
  20153060.5294   -6198701.46149  -4807299.86748                  20153058.0264
        49.5004         41.5004
  20438921.3264   -3363090.79749  -2607837.83248                  20438920.2204
        51.5004         41.5004
  23318983.9694   -1641327.09849  -1276128.47747                  23318983.5404
        43.2504         27.5004
  22231864.5864   -6301424.98849  -4884090.04347                  22231861.1644
        48.2504         33.2504
  24158552.5674      42495.34449     29437.05946                  24158551.9734
        41.0004         20.5004
  21302078.3234   -3461400.89549  -2686067.96548                  21302074.6974
        51.0004         40.0004
  23983536.3144   -4275985.44549  -3323939.37146                  23983538.7844
        37.5004         20.0004
 04  7 12 17 54 45.0000000  0  9G 3G 9G14G15G18G19G21G22G25
  22642603.3694   -2113128.02749  -1639826.69547                  22642602.9474
        45.5004         31.5004
  23959382.9214   -2923268.45348  -2267446.16846                  23959384.6044
        33.7504         19.2504
  20143652.5654   -6248141.77349  -4845824.78148                  20143650.0274
        50.0004         42.0004
  20434290.4984   -3387426.85549  -2626801.00848                  20434289.2714
        51.2504         41.0004
  23316271.5894   -1655579.26249  -1287234.08247                  23316270.2344
        43.7504         26.2504
  22222401.3414   -6351151.91049  -4922838.30147                  22222397.6124
        48.0004         33.5004
  24159097.3984      45359.16049     31668.55146                  24159096.7784
        41.2504         20.5004
  21296420.8004   -3491128.74249  -2709232.52348                  21296417.1434
        51.0004         40.2504
  23964694.7174   -4375006.80949  -3401098.80546                  23964695.5614
        39.2504         19.2504
 04  7 12 17 55  0.0000000  0  9G 3G 9G14G15G18G19G21G22G25
  22639852.4024   -2127585.27349  -1651092.10547                  22639852.0554
        46.0004         31.5004
  23955787.5004   -2942178.87559  -2282181.68756                  23955786.9104
        37.5004         20.5004
  20134267.8304   -6297457.94149  -4884252.96548                  20134265.4934
        48.7504         41.2504
  20429680.9214   -3411648.65649  -2645675.14148                  20429679.7864
        51.7504         41.2504
  23313562.4834   -1669817.28949  -1298328.68747                  23313560.9394
        43.0004         28.0004
  22212965.3364   -6400740.15249  -4961478.49647                  22212961.6834
        48.0004         32.2504
  24159650.8524      48263.32449     33931.47346                  24159650.0414
        42.5004         21.7504
  21290769.8634   -3520824.25049  -2732371.87948                  21290766.4814
        50.5004         39.5004
  23945850.8154   -4474029.33649  -3478259.16446                  23945851.3054
        38.0004         18.5004
 04  7 12 17 55 15.0000000  0 10G 3G 9G14G15G18G19G21G22G25G11
  22637115.1554   -2141970.30949  -1662301.25847                  22637114.5924
        46.0004         30.5004
  23952213.4654   -2960961.20349  -2296817.26647                  23952213.8694
        41.7504         25.7504
  20124906.6384   -6346649.80549  -4922584.28948                  20124904.6724
        49.0004         41.5004
  20425093.4024   -3435755.95349  -2664460.05548                  20425092.4434
        52.0004         41.0004
  23310855.3334   -1684040.92249  -1309412.05547                  23310856.0174
        43.7504         28.0004
  22203555.0664   -6450189.32449  -5000010.34047                  22203551.7634
        47.5004         33.0004
  24160211.2174      51208.01249     36225.93846                  24160210.4754
        41.0004         22.2504
  21285125.3944   -3550487.00849  -2755485.71948                  21285121.8894
        51.0004         40.5004
  23927007.3414   -4573052.41449  -3555419.96146                  23927007.8814
        39.5004         17.5004
  24543882.3714     -25083.21159
        37.5004
 04  7 12 17 55 30.0000000  0 10G 3G 9G14G15G18G19G21G22G25G11
  22634391.6294   -2156284.84049  -1673455.46547                  22634391.0914
        44.0004         30.7504
  23948663.7364   -2979616.85949  -2311354.13747                  23948663.7044
        41.5004         25.7504
  20115569.3604   -6395718.76649  -4960819.84048                  20115567.3814
        49.5004         41.7504
  20420527.5944   -3459750.12949  -2683156.82048                  20420526.4134
        51.5004         41.0004
  23308151.8394   -1698251.36349  -1320485.15247                  23308149.5294
        43.5004         27.5004
  22194171.4824   -6499500.66449  -5038434.76647                  22194168.0564
        47.5004         33.2504
  24160778.9584      54191.64849     38550.77346                  24160778.6064
        41.7504         21.0004
  21279486.8144   -3580118.37949  -2778575.10248                  21279483.1004
        50.0004         40.0004
  23908164.0634   -4672077.00849  -3632581.97346                  23908164.1534
        39.0004         19.2504
  24525043.1484    -124081.87149
        38.0004
 04  7 12 17 55 45.0000000  0 10G 3G 9G14G15G18G19G21G22G25G11
  22631680.4494   -2170528.06649  -1684554.10247                  22631680.7174
        45.5004         31.0004
  23945135.3154   -2998144.94149  -2325791.61346                  23945136.7684
        37.5004         21.2504
  20106255.0524   -6444663.84049  -4998958.85548                  20106253.4474
        48.7504         41.5004
  20415983.5234   -3483630.12149  -2701764.61748                  20415982.2774
        51.0004         40.7504
  23305450.2524   -1712447.86749  -1331547.36747                  23305449.9464
        42.5004         27.2504
  22184814.2164   -6548673.28949  -5076751.10947                  22184810.9264
        47.2504         34.0004
  24161353.7384      57215.23849     40906.77046                  24161353.9544
        41.0004         19.2504
  21273854.3624   -3609717.15249  -2801639.08648                  21273850.6824
        50.0004         40.0004
  23889320.2624   -4771101.60949  -3709743.96146                  23889320.0714
        39.0004         19.5004
  24506208.0414    -223065.44949
        38.5004
 04  7 12 17 56  0.0000000  0 10G 3G 9G14G15G18G19G21G22G25G11
  22628983.6764   -2184701.13349  -1695598.07447                  22628983.5334
        46.0004         30.5004
  23941633.5374   -3016546.43048  -2340130.41846                  23941633.5714
        35.2504         18.5004
  20096964.6854   -6493485.88349  -5037002.00048                  20096962.3924
        49.0004         41.2504
  20411460.6314   -3507396.72749  -2720284.06648                  20411459.6204
        51.0004         41.5004
  23302751.3494   -1726630.92249  -1342599.16446                  23302750.3474
        42.0004         24.5004
  22175483.8264   -6597708.05949  -5114960.03147                  22175480.0864
        48.0004         33.5004
  24161936.1354      60277.82049     43293.12546                  24161936.5314
        38.7504         19.2504
  21268227.5304   -3639284.32849  -2824678.44548                  21268224.0524
        50.7504         39.5004
  23870476.7054   -4870126.67649  -3786906.27346                  23870476.2484
        40.0004         19.0004
  24487374.3364    -322034.43749
        39.0004
 04  7 12 17 56 15.0000000  0 10G 3G 9G14G15G18G19G21G22G25G11
  22626299.1984   -2198806.62149  -1706589.38747                  22626299.0324
        45.0004         30.0004
  23938157.1794   -3034823.86349  -2354372.61346                  23938155.6014
        38.2504         20.5004
  20087697.5744   -6542187.41049  -5074951.24648                  20087695.1354
        49.7504         42.0004
  20406959.3974   -3531052.19949  -2738716.90648                  20406958.0894
        51.2504         40.7504
  23300054.0284   -1740803.12549  -1353642.43447                  23300053.5164
        43.7504         26.7504
  22166177.9524   -6646607.21549  -5153063.29347                  22166175.2234
        47.7504         33.5004
  24162527.2304      63377.14149     45708.07046                  24162525.1244
        41.5004         20.0004
  21262606.8884   -3668822.04349  -2847694.84847                  21262603.1834
        50.0004         39.0004
  23851631.2294   -4969154.05549  -3864070.45746                  23851631.5154
        38.2504         19.2504
  24468543.7594    -420990.94549
        40.0004
 04  7 12 17 56 30.0000000  0 10G 3G 9G14G15G18G19G21G22G25G11
  22623627.6114   -2212844.67649  -1717528.16447                  22623627.4874
        45.5004         30.7504
  23934703.3704   -3052977.46949  -2368518.29347                  23934702.5394
        40.0004         27.0004
  20078452.7134   -6590768.17249  -5112806.38348                  20078450.8024
        49.0004         41.5004
  20402478.7174   -3554596.44949  -2757063.08648                  20402477.8384
        51.2504         40.7504
  23297361.1684   -1754964.03149  -1364676.98447                  23297359.0374
        43.5004         27.2504
  22156898.9924   -6695370.60949  -5191060.73847                  22156895.6194
        47.5004         33.7504
  24163123.7244      66512.81649     48151.44546                  24163121.9124
        42.2504         17.7504
  21256991.1154   -3698330.20349  -2870688.22347                  21256987.8924
        49.7504         38.5004
  23832787.6994   -5068183.21149  -3941235.93746                  23832787.6604
        39.5004         20.0004
  24449715.1284    -519934.58649   -397086.38356                  24449709.2074
        38.5004         17.7504
 04  7 12 17 56 45.0000000  0 10G 3G 9G14G15G18G19G21G22G25G11
  22920761.5874   -2226814.53949  -1728413.79347                  22920761.0534
        44.5004         30.7504
  24231064.2804   -3071005.86749  -2382566.40247                  24231064.9254
        39.5004         27.2504
  20369024.2354   -6639224.93449  -5150564.89548                  20369022.1064
        48.5004         41.5004
  20697812.5374   -3578027.75449  -2775321.25848                  20697811.5144
        50.7504         41.0004
  23594459.4014   -1769112.49249  -1375701.71147                  23594457.5064
        43.5004         27.0004
  22447438.2754   -6743994.86349  -5228949.79347                  22447435.2744
        47.7504         33.2504
  24463519.8334      69684.73049     50623.03546                  24463518.1414
        42.5004         19.5004
  21551174.7174   -3727806.54349  -2893656.80547                  21551171.3814
        49.7504         38.7504
  24113736.5864   -5167207.25849  -4018397.47746                  24113735.8374
        39.7504         20.0004
  24730682.9934    -618858.21149   -474169.66446                  24730679.9424
        40.0004         20.0004
 04  7 12 17 57  0.0000000  0 10G 3G 9G14G15G18G19G21G22G25G11
  22918116.1114   -2240718.91049  -1739248.38347                  22918115.8654
        45.0004         31.2504
  24227656.3664   -3088912.14849  -2396519.37946                  24227656.9324
        38.5004         22.7504
  20359825.2514   -6687564.63749  -5188232.19148                  20359823.3804
        49.2504         41.5004
  20693374.4254   -3601349.77349  -2793494.27348                  20693373.3114
        51.0004         40.5004
  23591769.4374   -1783250.91849  -1386718.73847                  23591769.5904
        44.7504         26.7504
  22438210.5014   -6792486.96149  -5266735.84847                  22438207.6514
        48.2504         33.2504
  24464129.9374      72892.57849     53122.62946                  24464128.5794
        41.7504         20.0004
  21545570.8794   -3757255.59449  -2916604.12147                  21545567.5914
        50.0004         39.0004
  24094890.4504   -5266239.24249  -4095565.21146                  24094891.3734
        39.2504         21.7504
  24711859.7374    -717775.29749   -551247.86746                  24711858.4214
        39.7504         21.2504
 04  7 12 17 57 15.0000000  0 10G 3G 9G14G15G18G19G21G22G25G11
  22915482.5694   -2254556.59849  -1750031.00047                  22915483.1334
        45.0004         31.0004
  24224272.4484   -3106694.72349  -2410375.96546                  24224271.5994
        39.0004         20.5004
  20350649.4994   -6735783.59849  -5225805.41048                  20350647.5424
        49.5004         41.5004
  20688957.6214   -3624560.39549  -2811580.48448                  20688956.3964
        51.0004         41.0004
  23589081.2004   -1797377.68049  -1397726.58646                  23589079.4174
        42.5004         25.5004
  22429008.4824   -6840843.09449  -5304415.95747                  22429005.5724
        47.5004         33.7504
  24464747.9244      76136.73449     55650.44146                  24464746.4404
        41.5004         19.5004
  21539972.4924   -3786674.85249  -2939528.22747                  21539969.0704
        50.0004         38.7504
  24076045.3114   -5365271.70349  -4172733.29746                  24076045.8504
        40.7504         22.5004
  24693039.4584    -816678.28549   -628315.09446                  24693038.7234
        43.5004         25.2504
 04  7 12 17 57 30.0000000  0 10G 3G 9G14G15G18G19G21G22G25G11
  22912862.4484   -2268327.07049  -1760761.27047                  22912862.1264
        44.0004         31.5004
  24220912.0384   -3124353.16449  -2424135.77046                  24220911.3084
        41.0004         23.0004
  20341497.2964   -6783881.12949  -5263284.00048                  20341494.8184
        49.2504         41.2504
  20684562.2984   -3647658.82849  -2829579.27748                  20684560.9614
        51.2504         40.5004
  23586395.7204   -1811491.96549  -1408724.78547                  23586395.1374
        42.0004         27.0004
  22419832.9094   -6889062.47349  -5341989.51647                  22419830.3284
        48.0004         33.5004
  24465372.6404      79417.96549     58207.19546                  24465371.1224
        42.5004         20.5004
  21534380.2874   -3816063.52349  -2962428.49247                  21534376.9594
        49.5004         38.5004
  24057200.4574   -5464303.41049  -4249900.81246                  24057201.1104
        40.7504         22.2504
  24674221.4414    -915566.15249   -705370.52047                  24674220.7834
        43.0004         26.5004
 04  7 12 17 57 45.0000000  0 10G 3G 9G14G15G18G19G21G22G25G11
  22910254.6584   -2282030.99249  -1771439.66847                  22910254.6384
        42.2504         31.2504
  24217575.6544   -3141888.07849  -2437799.33647                  24217576.1394
        40.0004         26.0004
  20332367.4774   -6831857.67249  -5300668.31648                  20332365.3254
        49.0004         42.2504
  20680188.0084   -3670645.55949  -2847491.02348                  20680187.1004
        51.0004         40.2504
  23583711.2314   -1825594.09449  -1419713.47747                  23583710.9844
        40.2504         26.2504
  22410683.0694   -6937145.52049  -5379456.84047                  22410679.9004
        47.0004         33.5004
  24466003.4554      82735.56649     60792.30546                  24466002.5564
        40.7504         19.5004
  21528793.3914   -3845421.95749  -2985305.19947                  21528790.1254
        48.7504         38.5004
  24038355.3644   -5563334.48849  -4327067.84046                  24038355.3644
        41.5004         22.2504
  24655406.6134   -1014439.05949   -782414.34046                  24655406.4684
        43.2504         25.0004
 04  7 12 17 58  0.0000000  0 10G 3G 9G14G15G18G19G21G22G25G11
  22907659.9154   -2295668.02749  -1782065.95747                  22907659.5774
        45.0004         31.5004
  24214262.3444   -3159298.72349  -2451366.09847                  24214263.1964
        40.2504         27.0004
  20323261.1834   -6879712.52749  -5337957.81648                  20323258.7144
        50.0004         42.0004
  20675835.2244   -3693519.68049  -2865315.02348                  20675834.1624
        51.0004         40.5004
  23581029.0054   -1839683.13349  -1430691.94947                  23581030.1264
        37.5004         27.0004
  22401559.2624   -6985091.50449  -5416817.35547                  22401555.9514
        47.2504         33.7504
  24466641.4714      86090.33249     63406.31646                  24466640.9584
        41.0004         19.0004
  21523212.7264   -3874749.31249  -3008157.69147                  21523209.3954
        50.0004         38.5004
  24019509.8694   -5662363.61349  -4404233.38346                  24019510.9544
        42.0004         22.2504
  24636594.9554   -1113295.93049   -859445.61747                  24636594.2274
        43.7504         26.5004
 04  7 12 17 58 15.0000000  0 10G 3G 9G14G15G18G19G21G22G25G11
  22905077.3154   -2309238.43749  -1792640.32447                  22905076.9044
        44.0004         31.0004
  24210971.5114   -3176585.32849  -2464836.22346                  24210974.2354
        38.0004         25.0004
  20314177.3724   -6927445.85949  -5375152.61348                  20314175.3004
        50.2504         42.0004
  20671504.1774   -3716281.28149  -2883051.35548                  20671503.0674
        51.0004         40.7504
  23578351.8734   -1853759.34449  -1441660.50846                  23578352.9754
        39.5004         24.5004
  22392461.5574   -7032900.46149  -5454071.09047                  22392458.9044
        46.7504         34.0004
  24467287.2994      89481.85549     66049.03946                  24467286.3084
        40.5004         19.0004
  21517637.9094   -3904045.60949  -3030985.98447                  21517634.4214
        50.0004         38.5004
  24000666.6524   -5761390.45749  -4481397.07846                  24000667.1414
        43.5004         22.7504
  24617786.7374   -1212136.33249   -936464.08646                  24617785.4174
        44.5004         24.5004
 04  7 12 17 58 30.0000000  0 10G 3G 9G14G15G18G19G21G22G25G11
  22902507.9514   -2322742.62549  -1803163.11347                  22902506.9674
        45.5004         30.2504
  24207706.1494   -3193748.26249  -2478210.00446                  24207707.7524
        38.5004         25.5004
  20305117.3124   -6975057.85949  -5412252.86748                  20305115.2034
        49.0004         41.2504
  20667193.7074   -3738930.53149  -2900700.12548                  20667192.8114
        52.0004         40.7504
  23575675.4564   -1867822.73849  -1452619.00847                  23575674.3034
        41.2504         25.7504
  22383389.4234   -7080572.54349  -5491218.17647                  22383386.5564
        47.0004         34.5004
  24467939.0144      92909.80949     68720.09046                  24467938.7524
        38.5004         18.2504
  21512068.7904   -3933310.99649  -3053790.18447                  21512065.3294
        50.2504         38.2504
  23981823.8174   -5860414.72749  -4558558.80146                  23981823.1944
        45.5004         24.7504
  24598980.2894   -1310960.07449  -1013469.55546                  24598979.7584
        43.5004         24.5004
 04  7 12 17 58 45.0000000  0 10G 3G 9G14G15G18G19G21G22G25G11
  22899950.9464   -2336180.52049  -1813634.22747                  22899949.9674
        46.2504         31.0004
  24204464.6104   -3210787.39849  -2491487.29747                  24204465.0564
        39.0004         26.2504
  20296079.8974   -7022548.30949  -5449258.41048                  20296077.6304
        49.5004         41.2504
  20662905.4314   -3761467.14849  -2918261.13748                  20662904.3564
        51.5004         40.7504
  23573001.3874   -1881872.96149  -1463567.26647                  23573002.3034
        41.5004         26.5004
  22374344.2424   -7128107.39149  -5528258.32047                  22374341.3254
        47.2504         34.5004
  24468599.7444      96374.43049     71419.73046                  24468598.5424
        41.2504         17.5004
  21506505.9004   -3962544.96949  -3076569.91447                  21506502.4534
        50.7504         38.5004
  23962980.1244   -5959435.61749  -4635717.89147                  23962980.1564
        44.7504         25.7504
  24580178.4564   -1409766.52749  -1090461.58246                  24580176.9394
        43.2504         22.5004
 04  7 12 17 59  0.0000000  0 10G 3G 9G14G15G18G19G21G22G25G11
  22897405.9994   -2349552.67249  -1824054.09447                  22897405.5614
        45.5004         30.5004
  24201245.6034   -3227703.36749  -2504668.55146                  24201245.4954
        39.5004         25.5004
  20287065.7984   -7069917.49249  -5486169.46548                  20287063.6444
        49.0004         41.2504
  20658638.0414   -3783891.35249  -2935734.55148                  20658636.8504
        51.2504         40.7504
  23570332.3004   -1895910.19149  -1474505.43046                  23570330.7424
        45.2504         25.5004
  22365324.8374   -7175505.33249  -5565191.79347                  22365321.3354
        46.5004         34.5004
  24469265.0634      99875.46549     74147.76246                  24469264.4224
        39.7504         17.7504
  21500948.5564   -3991747.81249  -3099325.38347                  21500945.1854
        50.7504         38.2504
  23944137.0704   -6058453.16049  -4712874.40247                  23944137.8444
        43.2504         26.2504
  24561379.5444   -1508555.84449  -1167440.21946                  24561378.5734
        43.0004         23.0004
 04  7 12 17 59 15.0000000  0 10G 3G 9G14G15G18G19G21G22G25G11
  22894874.1644   -2362858.54749  -1834422.33647                  22894873.6894
        45.7504         31.0004
  24198049.3444   -3244495.22349  -2517753.09446                  24198049.9544
        38.5004         23.5004
  20278075.3044   -7117164.54349  -5522985.34848                  20278072.8674
        50.0004         41.2504
  20654392.4664   -3806202.19149  -2953119.62948                  20654391.5694
        50.7504         40.5004
  23567662.7144   -1909933.44549  -1485432.62146                  23567660.9074
        42.2504         25.5004
  22356331.5884   -7222765.38749  -5602017.83647                  22356328.1674
        47.0004         34.2504
  24469938.9774     103413.65249     76904.63746                  24469937.9374
        39.7504         16.2504
  21495397.7164   -4020918.67249  -3122055.92647                  21495394.1294
        50.0004         38.2504
  23925296.0714   -6157466.00049  -4790027.21146                  23925296.4224
        44.0004         24.7504
  24542583.5744   -1607326.55549  -1244404.37146                  24542582.7904
        42.5004         21.7504
 04  7 12 17 59 30.0000000  0 10G 3G 9G14G15G18G19G21G22G25G11
  22892354.0394   -2376099.27349  -1844739.80147                  22892354.1944
        44.7504         31.5004
  24194876.8084   -3261164.06249  -2530741.84446                  24194878.9974
        37.5004         24.7504
  20269107.3934   -7164290.45349  -5559706.83648                  20269105.2264
        49.7504         41.5004
  20650168.2064   -3828400.64849  -2970417.14548                  20650167.2704
        51.2504         41.0004
  23564996.7494   -1923943.50449  -1496349.59447                  23564996.9294
        43.0004         26.0004
  22347363.4374   -7269888.46949  -5638737.11347                  22347361.1024
        46.2504         34.5004
  24470619.0094     106987.79349     79689.66446                  24470618.5034
        41.5004         19.0004
  21489852.1824   -4050058.39849  -3144762.22347                  21489849.0064
        49.7504         37.7504
  23906455.1844   -6256474.57849  -4867176.71546                  23906455.5754
        43.5004         24.7504
  24523791.6904   -1706079.34849  -1321354.56646                  24523790.7054
        43.0004         23.2504
 04  7 12 17 59 45.0000000  0 10G 3G 9G14G15G18G19G21G22G25G11
  22889847.5924   -2389274.41849  -1855006.19147                  22889846.9784
        45.5004         31.0004
  24191729.5394   -3277709.34049  -2543634.32447                  24191730.7074
        38.7504         27.2504
  20260162.9884   -7211294.48849  -5596333.35948                  20260160.5424
        49.7504         41.7504
  20645965.1544   -3850486.00849  -2987626.52348                  20645964.3954
        51.2504         39.7504
  23562332.9764   -1937939.68749  -1507255.69146                  23562330.2264
        42.5004         22.5004
  22338423.2124   -7316873.87949  -5675349.12547                  22338420.1864
        47.0004         34.0004
  24471305.6064     110598.75049     82503.28146                  24471305.9064
        40.5004         17.7504
  21484313.5264   -4079166.09449  -3167443.55147                  21484309.9234
        50.2504         37.5004
  23887615.5814   -6355477.67649  -4944321.93046                  23887615.0204
        43.5004         24.7504
  24505003.3184   -1804813.21549  -1398290.00446                  24505002.0334
        42.0004         22.5004
 04  7 12 18  0  0.0000000  0 10G 3G 9G14G15G18G19G21G22G25G11
  22887352.3954   -2402384.98049  -1865222.22747                  22887352.4284
        45.0004         31.2504
  24188604.7044   -3294132.21949  -2556431.41047                  24188605.6974
        40.0004         27.5004
  20251241.1814   -7258177.56649  -5632865.61748                  20251238.9154
        50.0004         42.0004
  20641784.0514   -3872459.06249  -3004748.39548                  20641783.0914
        50.7504         40.2504
  23559672.9104   -1951922.59449  -1518151.53147                  23559671.2824
        41.5004         26.2504
  22329508.0864   -7363722.40649  -5711854.48447                  22329505.0204
        47.0004         34.0004
  24471999.3444     114245.39149     85344.82446                  24471999.9074
        39.5004         16.2504
  21478780.4434   -4108242.59849  -3190100.57847                  21478776.5914
        50.0004         37.0004
  23868775.8594   -6454475.75449  -5021463.26246                  23868776.6684
        42.7504         24.2504
  24486217.9514   -1903528.38749  -1475210.87946                  24486217.3154
        40.2504         21.7504
 04  7 12 18  0 15.0000000  0  9G 3G 9G14G15G18G19G22G25G11
  22884870.0274   -2415429.43749  -1875386.75447                  22884870.2164
        45.2504         31.0004
  24185502.5354   -3310430.93049  -2569131.69146                  24185503.9014
        41.0004         25.5004
  20242343.4654   -7304937.96149  -5669302.29348                  20242340.5114
        50.0004         42.2504
  20637624.5474   -3894317.98849  -3021781.34048                  20637623.6064
        51.0004         40.5004
  23557014.4814   -1965890.47349  -1529035.58646                  23557013.9904
        43.0004         25.0004
  22320619.5504   -7410432.30149  -5748251.81647                  22320616.5794
        47.2504         34.2504
  21473253.5444   -4137285.96949  -3212731.78147                  21473249.7724
        50.7504         37.7504
  23849938.8824   -6553466.53549  -5098598.90246                  23849939.1904
        42.0004         23.0004
  24467437.1284   -2002223.00049  -1552115.71546                  24467435.8734
        38.5004         20.5004
 04  7 12 18  0 30.0000000  0  9G 3G 9G14G15G18G19G22G25G11
  22882400.3474   -2428408.99249  -1885500.71547                  22882400.0604
        45.5004         31.5004
  24182424.1774   -3326606.53549  -2581736.07046                  24182425.1034
        40.5004         25.2504
  20233468.2414   -7351576.63749  -5705644.12148                  20233465.6494
        49.5004         42.0004
  20633486.4874   -3916063.67249  -3038726.03548                  20633485.2984
        50.5004         40.0004
  23554358.6864   -1979843.97749  -1539908.47346                  23554357.3904
        39.5004         22.5004
  22311756.9754   -7457004.44549  -5784541.81247                  22311754.2074
        47.0004         34.5004
  21467733.0774   -4166297.13749  -3235337.89547                  21467729.4214
        51.0004         37.5004
  23831102.6284   -6652450.59849  -5175729.29746                  23831103.2564
        41.5004         22.2504
  24448659.5344   -2100897.67249  -1629004.98846                  24448658.2644
        37.0004         20.0004
 04  7 12 18  0 45.0000000  0  9G 3G 9G14G15G18G19G22G25G11
  22879942.2484   -2441323.82449  -1895564.23447                  22879942.5784
        46.5004         30.5004
  24179368.9464   -3342659.14149  -2594244.59446                  24179370.6904
        39.0004         24.0004
  20224616.4444   -7398093.57449  -5741891.08248                  20224613.8754
        49.5004         41.7504
  20629369.9074   -3937695.93749  -3055582.36348                  20629368.9994
        51.0004         40.5004
  23551707.0964   -1993783.19949  -1550770.25447                  23551706.5944
        43.5004         25.7504
  22302921.1144   -7503438.74249  -5820724.39147                  22302918.3054
        47.5004         34.5004
  21462218.7484   -4195276.00449  -3257918.83647                  21462215.2024
        50.7504         38.2504
  23812267.1204   -6751427.34049  -5252854.00846                  23812268.3794
        41.2504         22.2504
  24429885.9244   -2199551.66048  -1705878.14846                  24429884.9734
        35.0004         17.5004
 04  7 12 18  1  0.0000000  0  9G 3G 9G14G15G18G19G22G25G11
  22877497.6574   -2454173.68049  -1905577.12947                  22877497.1934
        45.5004         29.7504
  24176339.1754   -3358588.32049  -2606657.00046                  24176340.1674
        38.7504         24.7504
  20215787.8964   -7444488.23449  -5778042.76648                  20215785.2344
        50.2504         41.7504
  20625275.4504   -3959214.26649  -3072349.89548                  20625274.2994
        51.0004         40.0004
  23549056.9184   -2007707.30149  -1561620.23446                  23549054.7784
        41.7504         22.5004
  22294111.0334   -7549734.47749  -5856798.99247                  22294108.4664
        47.2504         35.0004
  21456710.4844   -4224221.77349  -3280473.99247                  21456706.7314
        50.7504         38.0004
  23793434.7824   -6850395.72349  -5329972.14846                  23793435.3114
        41.7504         23.0004
  24411115.9024   -2298184.32849  -1782734.71146                  24411115.7034
        36.7504         17.5004
 04  7 12 18  1 15.0000000  0  9G 3G 9G14G15G18G19G22G25G11
  22875064.4724   -2466958.63749  -1915539.46147                  22875064.4324
        44.7504         30.5004
  24173331.0144   -3374394.11349  -2618973.22747                  24173332.7724
        39.5004         25.7504
  20206982.4834   -7490760.43749  -5814099.02748                  20206979.9824
        49.7504         42.2504
  20621202.2454   -3980618.55149  -3089028.57048                  20621200.8784
        51.0004         40.2504
  23546410.5224   -2021616.00049  -1572458.15247                  23546408.0234
        43.2504         26.0004
  22285328.1204   -7595891.71949  -5892765.67247                  22285325.0974
        47.2504         34.0004
  21451208.6334   -4253134.28949  -3303003.22747                  21451205.2014
        51.0004         38.2504
  23774604.2754   -6949355.14849  -5407083.32046                  23774603.9084
        41.7504         21.7504
  24392352.5864   -2396795.23449  -1859574.30946                  24392349.7884
        39.0004         17.0004
 04  7 12 18  1 30.0000000  0  9G 3G 9G14G15G18G19G22G25G11
  22872643.7674   -2479678.44149  -1925451.02347                  22872643.9684
        45.2504         31.0004
  24170346.9584   -3390076.15649  -2631193.02047                  24170348.8614
        39.2504         26.5004
  20198200.8184   -7536909.57849  -5850059.39848                  20198198.3314
        49.5004         42.2504
  20617150.4404   -4001908.15649  -3105617.88348                  20617149.8734
        50.5004         40.2504
  23543766.1204   -2035508.59449  -1583283.62546                  23543766.8234
        40.7504         25.5004
  22276571.1134   -7641909.63749  -5928623.80147                  22276568.2404
        47.0004         34.0004
  21445713.2134   -4282012.76649  -3325505.94547                  21445709.7594
        50.5004         37.7504
  23755774.0974   -7048304.52749  -5484186.67646                  23755774.3474
        41.5004         22.5004
  24373592.0414   -2495383.06649  -1936395.94146                  24373589.0434
        39.5004         17.7504
 04  7 12 18  1 45.0000000  0  9G 3G 9G14G15G18G19G22G25G11
  22870236.5274   -2492333.15249  -1935311.87147                  22870235.6464
        46.7504         30.7504
  24167385.4714   -3405634.37949  -2643316.34046                  24167387.9994
        39.5004         24.0004
  20189442.3194   -7582935.72349  -5885923.93048                  20189439.9814
        50.0004         42.5004
  20613121.2484   -4023082.94149  -3122117.71948                  20613120.2624
        51.5004         40.2504
  23541127.3854   -2049384.93749  -1594096.36346                  23541123.3764
        44.0004         23.5004
  22267840.5994   -7687788.23449  -5964373.35547                  22267838.1194
        48.0004         33.7504
  21440223.9614   -4310857.17249  -3347982.10947                  21440220.8054
        51.5004         38.2504
  23736946.9784   -7147243.46549  -5561281.89846                  23736947.5464
        41.5004         22.0004
  24354835.2384   -2593947.28149  -2013199.26246                  24354833.0054
        40.2504         18.2504
 04  7 12 18  2  0.0000000  0  9G 3G 9G14G15G18G19G22G25G11
  22867839.9084   -2504923.44149  -1945122.49647                  22867839.6814
        46.0004         29.2504
  24164449.0594   -3421069.38749  -2655343.67246                  24164451.1264
        39.5004         24.2504
  20180707.0074   -7628839.21949  -5921692.88348                  20180704.8704
        50.0004         42.0004
  20609113.9564   -4044143.28949  -3138528.39848                  20609112.6844
        51.2504         39.7504
  23538488.4634   -2063245.40249  -1604896.71947                  23538488.0234
        42.5004         27.0004
  22259136.9834   -7733527.82049  -6000014.59447                  22259134.0844
        47.7504         34.7504
  21434741.8294   -4339667.80149  -3370431.94947                  21434738.1194
        51.2504         38.5004
  23718121.0304   -7246171.71949  -5638368.82046                  23718121.8284
        41.7504         22.5004
  24336084.1824   -2692488.13349  -2089984.28146                  24336081.3494
        41.0004         18.5004
 04  7 12 18  2 15.0000000  0  9G 3G 9G14G15G18G19G22G25G11
  22865456.4224   -2517450.18449  -1954883.64147                  22865455.7214
        46.0004         30.0004
  24161535.6874   -3436382.02349  -2667275.60946                  24161537.7334
        41.2504         23.7504
  20171995.0334   -7674620.76249  -5957366.81648                  20171992.8174
        49.5004         42.0004
  20605127.4894   -4065089.84849  -3154850.39848                  20605127.0044
        51.0004         39.5004
  23535853.7874   -2077090.40649  -1615685.09847                  23535853.0464
        42.2504         27.2504
  22250459.3884   -7779129.12149  -6035548.08247                  22250456.0504
        47.5004         34.7504
  21429265.6714   -4368445.19949  -3392855.90647                  21429262.0554
        50.5004         38.7504
  23699297.9024   -7345089.62549  -5715447.64546                  23699298.2494
        42.2504         22.7504
  24317336.4744   -2791005.91849  -2166751.37946                  24317334.4044
        42.0004         18.2504
 04  7 12 18  2 30.0000000  0  9G 3G 9G14G15G18G19G22G25G11
  22863084.1384   -2529915.23449  -1964596.69547                  22863083.7364
        45.5004         29.5004
  24158644.9524   -3451574.03149  -2679113.53146                  24158646.0804
        41.7504         24.0004
  20163306.0004   -7720282.00849  -5992947.01248                  20163303.6104
        49.5004         42.5004
  20601163.1444   -4085924.03549  -3171084.84047                  20601162.2004
        51.5004         39.2504
  23533221.3054   -2090921.54749  -1626462.59846                  23533219.6164
        42.0004         25.0004
  22241807.5824   -7824593.60249  -6070974.95747                  22241804.5174
        47.5004         34.5004
  21423795.6684   -4397190.70349  -3415255.00447                  21423792.0004
        51.5004         38.5004
  23680476.1054   -7443998.26649  -5792519.24246                  23680477.2174
        42.0004         23.0004
  24298593.4504   -2889501.79349  -2243501.37946                  24298591.3694
        42.0004         18.5004
 04  7 12 18  2 45.0000000  0  9G 3G 9G14G15G18G19G22G25G11
  22860724.4994   -2542317.09449  -1974260.50847                  22860723.6114
        46.5004         30.5004
  24155777.0814   -3466643.98849  -2690856.35946                  24155777.8604
        42.0004         22.7504
  20154639.9994   -7765821.32049  -6028432.19148                  20154637.8084
        49.0004         42.0004
  20597220.3184   -4106644.27349  -3187230.49648                  20597219.1244
        51.0004         40.0004
  23530594.4004   -2104736.91849  -1637227.90247                  23530593.3294
        43.5004         26.7504
  22233181.8784   -7869919.62549  -6106293.93047                  22233179.0474
        47.5004         34.2504
  21418331.7284   -4425902.72349  -3437628.01647                  21418328.2854
        51.0004         38.7504
  23661656.2594   -7542895.41449  -5869581.92646                  23661657.4174
        41.5004         23.0004
  24279854.4024   -2987973.76649  -2320232.75446                  24279853.0134
        42.0004         19.0004
 04  7 12 18  3  0.0000000  0  9G 3G 9G14G15G18G19G22G25G11
  22858375.7824   -2554657.01649  -1983876.07047                  22858375.5804
        44.7504         30.5004
  24152932.3474   -3481592.83649  -2702504.85246                  24152933.2504
        41.2504         22.5004
  20145996.9814   -7811239.62949  -6063823.08648                  20145994.9664
        49.5004         42.0004
  20593299.0904   -4127251.49249  -3203288.08648                  20593297.7654
        51.0004         39.7504
  23527966.9794   -2118537.52749  -1647981.62546                  23527965.6944
        41.2504         24.7504
  22224582.5884   -7915108.01249  -6141505.67247                  22224580.0984
        46.7504         35.0004
  21412874.2274   -4454582.09449  -3459975.59047                  21412871.2494
        49.2504         38.7504
  23642839.1054   -7641781.65649  -5946636.10246                  23642839.8734
        41.5004         23.0004
  24261121.0524   -3086422.46549  -2396945.98846                  24261118.8654
        42.5004         19.5004
 04  7 12 18  3 15.0000000  0  9G 3G 9G14G15G18G19G22G25G11
  22856039.9804   -2566934.77749  -1993443.19947                  22856039.2854
        46.2504         31.5004
  24150110.1494   -3496420.34049  -2714058.77346                  24150111.1644
        40.7504         20.5004
  20137377.3324   -7856536.57449  -6099119.40248                  20137375.0734
        49.0004         42.0004
  20589398.9144   -4147745.18449  -3219257.20348                  20589397.9674
        51.5004         40.2504
  23525343.7564   -2132322.69549  -1658723.33647                  23525341.5874
        42.2504         25.7504
  22216010.3764   -7960158.42249  -6176609.89547                  22216006.6934
        47.2504         34.0004
  21407423.2154   -4483228.21549  -3482297.25047                  21407419.7114
        50.7504         39.0004
  23624024.0324   -7740656.04749  -6023681.02346                  23624024.7004
        41.0004         23.0004
  24242390.3764   -3184847.03549  -2473640.42646                  24242388.4564
        40.7504         18.2504
 04  7 12 18  3 30.0000000  0  9G 3G 9G14G15G18G19G22G25G11
  22853715.0404   -2579152.19149  -2002963.28947                  22853714.6374
        46.5004         31.0004
  24147311.6684   -3511128.17249  -2725519.27346                  24147310.3034
        37.7504         15.5004
  20128780.3024   -7901713.75449  -6134322.40248                  20128777.8034
        48.5004         42.2504
  20585520.6514   -4168126.82049  -3235139.00848                  20585519.5684
        51.5004         40.2504
  23522724.4194   -2146094.10249  -1669454.31647                  23522723.4674
        43.2504         28.0004
  22207463.7114   -8005072.50449  -6211607.89847                  22207460.1864
        48.2504         33.7504
  21401977.8514   -4511842.63349  -3504594.21147                  21401974.1484
        50.0004         38.7504
  23605210.6694   -7839519.68449  -6100717.58246                  23605210.8244
        42.5004         23.0004
  24223665.9794   -3283248.56249  -2550316.91446                  24223662.6464
        42.5004         17.7504
 04  7 12 18  3 45.0000000  0  9G 3G 9G14G15G18G19G22G25G11
  22851401.8324   -2591309.15249  -2012436.27747                  22851401.2304
        46.7504         32.2504
  24144535.8154   -3525716.19949  -2736886.53146                  24144533.7914
        39.2504         16.2504
  20120206.4004   -7946770.88349  -6169431.85248                  20120204.0674
        50.0004         42.5004
  20581663.4164   -4188396.04749  -3250933.22348                  20581662.5154
        51.0004         39.5004
  23520105.0594   -2159850.95749  -1680173.97346                  23520103.7874
        40.5004         24.7504
  22198941.6934   -8049849.73049  -6246499.25847                  22198939.3414
        46.5004         33.5004
  21396538.8354   -4540424.87149  -3526866.09047                  21396535.2894
        50.7504         38.7504
  23586399.6114   -7938371.74649  -6177745.14146                  23586399.5724
        43.0004         23.2504
  24204944.8904   -3381626.56649  -2626975.16446                  24204941.1474
        43.2504         16.2504
 04  7 12 18  4  0.0000000  0  9G 3G 9G14G15G18G19G22G25G11
  22849098.7784   -2603405.81649  -2021862.26247                  22849099.1564
        46.2504         31.2504
  24141782.3824   -3540184.48449  -2748160.55546                  24141781.6284
        37.5004         20.0004
  20111655.3984   -7991707.87949  -6204447.69148                  20111652.7174
        49.5004         42.0004
  20577827.5904   -4208552.76649  -3266639.76648                  20577826.4004
        51.2504         40.0004
  23517490.9904   -2173593.17249  -1690882.18747                  23517489.3034
        43.0004         27.7504
  22190447.9814   -8094489.97349  -6281283.86347                  22190444.4984
        46.2504         33.5004
  21391105.8984   -4568974.67249  -3549112.69947                  21391102.4014
        49.5004         38.5004
  23567591.6814   -8037211.64849  -6254763.19946                  23567591.4284
        44.2504         22.5004
  24186229.1444   -3479980.46949  -2703614.57046                  24186224.8954
        43.0004         17.5004
 04  7 12 18  4 15.0000000  0  9G 3G 9G14G15G18G19G22G25G11
  22846808.8634   -2615443.73049  -2031242.49247                  22846808.4054
        46.7504         31.5004
  24139051.8404   -3554534.59448  -2759342.47746                  24139050.9734
        35.0004         19.5004
  20103126.7144   -8036526.09849  -6239370.98048                  20103123.7534
        49.5004         42.0004
  20574013.2034   -4228598.27049  -3282259.65248                  20574012.3274
        51.0004         39.7504
  23514876.9554   -2187321.96149  -1701580.02347                  23514877.7564
        39.2504         25.7504
  22181978.8144   -8138994.68049  -6315962.86347                  22181975.3594
        46.2504         34.2504
  21385679.0754   -4597493.37549  -3571335.06247                  21385675.1694
        49.2504         38.5004
  23548783.7264   -8136040.35249  -6331772.56246                  23548784.5174
        43.5004         22.5004
  24167516.7444   -3578311.15649  -2780235.82846                  24167514.1174
        42.0004         19.2504
 04  7 12 18  4 30.0000000  0  9G 3G 9G14G15G18G19G22G25G11
  22844528.9244   -2627422.96149  -2040576.98447                  22844529.5024
        46.0004         31.5004
  24136342.5874   -3568766.25848  -2770432.09446                  24136343.0264
        32.2504         17.7504
  20094620.5374   -8081225.29349  -6274201.52048                  20094618.1314
        49.0004         41.7504
  20570219.8664   -4248532.27749  -3297792.66048                  20570218.7584
        51.0004         39.7504
  23512269.6024   -2201036.87949  -1712266.96947                  23512266.1184
        44.0004         26.7504
  22173535.4944   -8183363.46549  -6350535.94147                  22173532.8574
        46.2504         34.0004
  21380258.0554   -4625980.59049  -3593532.90247                  21380254.4124
        49.2504         38.2504
  23529980.5464   -8234857.12549  -6408772.58646                  23529980.3534
        44.0004         22.5004
  24148809.8464   -3676617.96549  -2856838.50846                  24148806.8064
        41.2504         19.2504
 04  7 12 18  4 45.0000000  0  9G 3G 9G14G15G18G19G22G25G11
  23142054.0164   -2639342.34449  -2049864.84847                  23142053.6174
        46.7504         30.2504
  24433449.4444   -3582878.38348  -2781428.62146                  24433449.9824
        33.0004         19.2504
  20385930.6074   -8125802.01649  -6308936.62548                  20385928.5494
        49.0004         42.0004
  20866240.7384   -4268353.02349  -3313237.40648                  20866239.4564
        51.0004         39.7504
  23809452.7544   -2214736.40249  -1722941.93447                  23809453.4444
        40.2504         28.2504
  22464911.0444   -8227592.96149  -6385000.49247                  22464908.1534
        44.2504         33.5004
  21674636.2374   -4654433.86349  -3615704.30147                  21674632.4534
        49.7504         39.0004
  23810972.7974   -8333654.32849  -6485757.37146                  23810972.1494
        44.5004         22.5004
  24429900.4284   -3774893.43749  -2933416.75446                  24429899.3964
        41.2504         20.0004
 04  7 12 18  5  0.0000000  0  9G 3G 9G14G15G18G19G22G25G11
  23139796.9694   -2651204.71949  -2059108.28147                  23139796.8254
        46.7504         31.2504
  24430786.8574   -3596873.85548  -2792334.19946                  24430787.2874
        35.5004         20.0004
  20377469.9124   -8170263.29349  -6343581.77748                  20377467.6714
        47.5004         42.0004
  20862489.8084   -4288064.05149  -3328596.64848                  20862488.8994
        51.0004         40.0004
  23806850.5904   -2228423.23449  -1733607.07847                  23806849.4864
        43.2504         28.0004
  22456520.3834   -8271689.89149  -6419361.74647                  22456517.2084
        44.2504         34.2504
  21669227.7564   -4682857.74249  -3637852.77747                  21669223.6244
        48.7504         39.2504
  23792173.3954   -8432445.72349  -6562737.64146                  23792172.9454
        45.0004         24.2504
  24411202.6964   -3873151.24249  -3009981.22346                  24411201.7064
        41.0004         20.5004
 04  7 12 18  5 15.0000000  0  9G 3G 9G14G15G18G19G22G25G11
  23137550.1674   -2663008.26649  -2068305.87547                  23137550.2424
        45.7504         31.0004
  24428147.2894   -3610750.66849  -2803147.33646                  24428147.3604
        36.0004         20.5004
  20369031.9334   -8214604.95749  -6378133.72748                  20369029.7764
        46.7504         41.7504
  20858760.5044   -4307662.76649  -3343868.39148                  20858759.1164
        50.7504         40.0004
  23804246.6454   -2242095.29349  -1744260.59846                  23804245.9064
        40.0004         25.0004
  22448154.7184   -8315650.18049  -6453616.53147                  22448151.6554
        43.0004         33.5004
  21663824.5624   -4711249.16049  -3659975.95748                  21663820.9254
        49.2504         39.5004
  23773376.0994   -8531223.02349  -6639706.94946                  23773375.9124
        44.5004         24.2504
  24392510.2754   -3971383.42649  -3086525.71546                  24392508.7454
        42.2504         20.5004
 04  7 12 18  5 30.0000000  0  9G 3G 9G14G15G18G19G22G25G11
  23135315.5854   -2674753.78949  -2077458.27047                  23135315.6884
        46.0004         30.5004
  24425527.9004   -3624509.59448  -2813868.62546                  24425528.8014
        34.5004         21.7504
  20360616.5344   -8258827.50849  -6412592.85548                  20360614.3824
        44.5004         41.7504
  20855052.1694   -4327149.71149  -3359053.02748                  20855051.1724
        51.0004         39.5004
  23801649.6384   -2255752.82449  -1754902.89847                  23801648.2864
        42.5004         27.7504
  22439815.1224   -8359474.36349  -6487765.26247                  22439812.6284
        42.2504         33.7504
  21658428.2044   -4739608.44949  -3682074.10948                  21658424.3674
        48.7504         39.5004
  23754582.6084   -8629986.30949  -6716665.30546                  23754581.9024
        44.7504         25.0004
  24373821.7874   -4069589.99649  -3163050.29746                  24373821.0534
        41.5004         21.5004
 04  7 12 18  5 45.0000000  0  9G 3G 9G14G15G18G19G22G25G11
  23133090.8054   -2686442.10249  -2086566.07047                  23133091.1424
        46.0004         30.0004
  24422932.5694   -3638151.30149  -2824498.52046                  24422932.8614
        36.5004         21.2504
  20352223.9314   -8302931.48449  -6446959.59048                  20352221.7514
        45.7504         42.0004
  20851365.4734   -4346525.28949  -3374150.89548                  20851363.7124
        51.2504         39.7504
  23799053.1434   -2269396.26249  -1765534.15247                  23799051.9194
        42.2504         26.2504
  22431501.7754   -8403162.80149  -6521808.21547                  22431498.9294
        42.7504         33.7504
  21653037.7064   -4767935.90249  -3704147.44947                  21653033.7114
        48.2504         39.2504
  23735790.5384   -8728735.37149  -6793612.60247                  23735790.8014
        44.5004         26.0004
  24355138.8724   -4167771.01649  -3239554.92246                  24355137.4214
        42.0004         21.2504
 04  7 12 18  6  0.0000000  0  9G 3G 9G14G15G18G19G22G25G11
  23130878.6124   -2698074.09049  -2095629.99247                  23130877.5364
        45.5004         30.5004
  24420358.0734   -3651676.54748  -2835037.70746                  24420359.5494
        33.7504         22.0004
  20343853.6784   -8346917.63749  -6481234.51248                  20343851.5084
        48.0004         42.2504
  20847699.0424   -4365790.20349  -3389162.52048                  20847698.0854
        50.5004         39.5004
  23796458.6214   -2283026.27749  -1776154.97347                  23796456.2454
        41.2504         26.0004
  22423213.9584   -8446716.31649  -6555746.02047                  22423210.8884
        45.0004         34.5004
  21647653.1504   -4796232.23849  -3726196.54747                  21647649.2694
        49.2504         39.2504
  23717002.1654   -8827470.73849  -6870549.19147                  23717002.4204
        45.5004         26.0004
  24336460.0784   -4265926.90649  -3316040.01246                  24336458.9534
        41.2504         22.5004
 04  7 12 18  6 15.0000000  0  8G 3G14G15G18G19G22G25G11
  23128675.2614   -2709649.11749  -2104649.52747                  23128674.8664
        46.0004         30.0004
  20335505.9384   -8390785.10249  -6515416.95748                  20335503.9214
        46.5004         41.7504
  20844054.2614   -4384943.49249  -3404087.16848                  20844053.1744
        51.0004         39.7504
  23793868.6684   -2296641.74249  -1786764.42647                  23793867.6874
        42.7504         28.5004
  22414951.5234   -8490134.00449  -6589577.99247                  22414949.2134
        46.2504         34.0004
  21642274.4324   -4824496.45749  -3748220.61747                  21642270.8554
        49.5004         39.2504
  23698216.6024   -8926190.89549  -6947473.96147                  23698216.9254
        45.0004         26.5004
  24317787.1494   -4364056.37949  -3392504.48846                  24317785.2954
        42.5004         21.7504
 04  7 12 18  6 30.0000000  0  8G 3G14G15G18G19G22G25G11
  23126482.2694   -2721168.02349  -2113625.32447                  23126483.1344
        44.7504         31.0004
  20327180.8834   -8434534.58649  -6549507.46148                  20327178.5684
        47.0004         42.0004
  20840430.6604   -4403985.87549  -3418925.39148                  20840429.5954
        51.2504         39.7504
  23791279.8124   -2310243.16449  -1797362.99647                  23791279.1904
        40.5004         25.7504
  22406714.6294   -8533416.43049  -6623304.55547                  22406712.9454
        47.7504         34.0004
  21636902.1734   -4852729.08249  -3770220.07047                  21636898.2944
        49.7504         39.2504
  23679433.4224   -9024896.00049  -7024386.98847                  23679433.7914
        44.5004         26.5004
  24299118.3394   -4462159.58649  -3468948.50446                  24299117.3444
        40.0004         23.0004
 04  7 12 18  6 45.0000000  0  8G 3G14G15G18G19G22G25G11
  23124302.1284   -2732630.94149  -2122557.50847                  23124301.5034
        45.5004         30.2504
  20318877.7964   -8478166.08249  -6583506.02348                  20318875.8324
        47.5004         41.5004
  20836827.8994   -4422917.28549  -3433677.15648                  20836827.4034
        50.5004         39.5004
  23788694.5144   -2323830.38749  -1807950.39147                  23788691.2734
        41.7504         26.7504
  22398504.7194   -8576563.64149  -6656925.76247                  22398502.3654
        46.5004         34.5004
  21631535.5254   -4880929.89849  -3792194.73047                  21631532.1634
        49.0004         39.0004
  23660653.2654   -9123585.56249  -7101287.92247                  23660653.5494
        43.5004         26.5004
  24280454.7814   -4560236.21949  -3545371.79346                  24280454.4144
        37.5004         22.2504
 04  7 12 18  7  0.0000000  0  8G 3G14G15G18G19G22G25G11
  23122131.5284   -2744037.99249  -2131446.13747                  23122130.8734
        46.5004         30.5004
  20310597.2664   -8521679.39149  -6617412.49248                  20310595.1614
        47.7504         41.5004
  20833246.6004   -4441737.39549  -3448342.18747                  20833246.0894
        50.7504         39.0004
  23786110.4144   -2337403.03149  -1818526.52046                  23786110.8374
        38.0004         24.7504
  22390319.7834   -8619575.25449  -6690441.31647                  22390317.4294
        45.5004         34.2504
  21626175.4874   -4909098.58649  -3814144.36347                  21626171.7954
        48.5004         39.2504
  23641875.9424   -9222258.83649  -7178176.15247                  23641876.9374
        43.5004         27.5004
  24261797.0484   -4658285.51649  -3621773.78946                  24261796.0984
        40.0004         21.7504
 04  7 12 18  7 15.0000000  0  8G 3G14G15G18G19G22G25G11
  23119971.3024   -2755388.31649  -2140290.57047                  23119970.7704
        46.0004         30.5004
  20302339.6024   -8565073.39149  -6651226.00448                  20302337.3784
        47.7504         42.0004
  20829686.6494   -4460445.10949  -3462919.64148                  20829685.7724
        50.7504         39.7504
  23783532.6654   -2350959.82049  -1829090.34846                  23783531.1494
        40.5004         25.5004
  22382160.6194   -8662450.22349  -6723850.40247                  22382158.9304
        45.7504         34.0004
  21620821.3024   -4937233.94149  -3836068.02047                  21620818.0304
        48.2504         39.0004
  23623103.0224   -9320914.31249  -7255050.48847                  23623103.3934
        44.0004         27.7504
  24243144.0634   -4756305.96949  -3698153.32046                  24243143.0604
        41.7504         22.7504
 04  7 12 18  7 30.0000000  0  8G 3G14G15G18G19G22G25G11
  23117822.7924   -2766681.68449  -2149090.62547                  23117821.9884
        47.5004         30.5004
  20294105.3344   -8608347.74249  -6684946.27348                  20294102.8084
        48.5004         42.0004
  20826148.0324   -4479039.94949  -3477409.13748                  20826147.4794
        50.7504         39.5004
  23780954.5374   -2364500.21949  -1839641.23846                  23780952.6714
        40.2504         23.7504
  22374028.1534   -8705188.07849  -6757152.62547                  22374025.6264
        45.5004         34.5004
  21615473.4244   -4965335.36749  -3857965.24647                  21615470.3224
        49.5004         38.5004
  23604332.3924   -9419550.93049  -7331910.15647                  23604333.0264
        43.5004         27.2504
  24224497.1054   -4854296.71549  -3774509.71946                  24224496.4214
        43.0004         25.5004
 04  7 12 18  7 45.0000000  0  8G 3G14G15G18G19G22G25G11
  23115683.8764   -2777918.10549  -2157846.28947                  23115683.8374
        47.5004         31.0004
  20285892.7264   -8651502.43049  -6718573.29748                  20285890.5804
        48.5004         41.2504
  20822630.9934   -4497521.81649  -3491810.59847                  20822630.6504
        50.0004         39.0004
  23778380.9284   -2378023.90249  -1850179.27746                  23778380.9894
        39.0004         22.5004
  22365921.3574   -8747788.76249  -6790347.97747                  22365918.8414
        46.5004         34.0004
  21610132.6384   -4993402.74649  -3879835.92647                  21610129.5734
        49.2504         39.0004
  23585566.5194   -9518168.19149  -7408754.73446                  23585566.6674
        42.5004         24.2504
  24205855.6864   -4952257.41449  -3850842.68746                  24205854.6364
        42.5004         23.0004
 04  7 12 18  8  0.0000000  0  8G 3G14G15G18G19G22G25G11
  23113555.5484   -2789098.03549  -2166557.94147                  23113556.1684
        46.2504         29.2504
  20277703.9804   -8694537.43449  -6752107.07048                  20277701.3524
        48.5004         41.5004
  20819135.6194   -4515890.77749  -3506124.09047                  20819135.1494
        50.2504         39.0004
  23775811.4184   -2391531.12549  -1860704.39546                  23775810.1294
        41.0004         22.5004
  22357841.1094   -8790252.34449  -6823436.49247                  22357838.2394
        45.5004         34.0004
  21604798.5514   -5021436.01249  -3901680.03147                  21604795.2754
        48.2504         39.0004
  23566803.3704   -9616765.75849  -7485583.97747                  23566803.8964
        41.5004         26.5004
  24187220.1714   -5050187.72349  -3927151.98046                  24187219.6604
        41.0004         23.0004
 04  7 12 18  8 15.0000000  0  8G 3G14G15G18G19G22G25G11
  23111439.8184   -2800222.93049  -2175226.71147                  23111439.6344
        47.0004         30.5004
  20269536.6724   -8737454.24649  -6785548.73448                  20269534.4624
        47.2504         41.0004
  20815661.2544   -4534148.09449  -3520350.58647                  20815660.7134
        50.5004         38.7504
  23773243.3784   -2405022.91449  -1871217.50046                  23773241.3954
        39.0004         21.0004
  22349786.2224   -8832580.17649  -6856419.22747                  22349783.3024
        45.2504         34.5004
  21599469.6354   -5049436.32849  -3923498.45347                  21599466.6454
        49.2504         38.2504
  23548044.2704   -9715344.50849  -7562398.52347                  23548045.2764
        42.7504         27.5004
  24168590.1724   -5148088.55949  -4003438.32446                  24168589.5334
        42.7504         24.0004
 04  7 12 18  8 30.0000000  0  8G 3G14G15G18G19G22G25G11
  23109333.1914   -2811292.14849  -2183852.09847                  23109333.1794
        47.0004         30.0004
  20261392.5534   -8780251.97749  -6818897.61348                  20261390.0834
        45.2504         42.0004
  20812208.8274   -4552292.83649  -3534489.36347                  20812207.9394
        50.2504         38.7504
  23770680.5764   -2418498.52349  -1881717.98846                  23770679.0464
        42.5004         24.2504
  22341757.9304   -8874771.31649  -6889295.45747                  22341754.6304
        43.5004         35.0004
  21594147.9514   -5077402.72749  -3945290.45347                  21594144.7404
        48.5004         38.5004
  23529289.8474   -9813903.02049  -7639197.31647                  23529290.5064
        43.5004         26.5004
  24149966.3344   -5245958.64149  -4079700.67646                  24149966.2284
        43.7504         24.2504
 04  7 12 18  8 45.0000000  0  8G 3G14G15G18G19G22G25G11
  23107236.9094   -2822306.78549  -2192434.94947                  23107237.3304
        46.0004         29.0004
  20253271.0214   -8822931.48049  -6852154.37548                  20253268.7794
        45.0004         41.2504
  20808777.1774   -4570325.85249  -3548541.07047                  20808776.4474
        50.5004         39.2504
  23768116.8974   -2431958.19949  -1892206.09046                  23768116.9744
        39.7504         22.2504
  22333754.6274   -8916826.68049  -6922065.87547                  22333751.9054
        42.7504         35.0004
  21588832.3104   -5105336.02049  -3967056.65647                  21588829.4094
        49.0004         38.5004
  23510538.5494   -9912441.58649  -7715980.56247                  23510538.7114
        44.5004         28.0004
  24131348.6554   -5343798.35949  -4155939.40646                  24131347.2114
        44.2504         23.5004
 04  7 12 18  9  0.0000000  0  8G 3G14G15G18G19G22G25G11
  23105151.3804   -2833268.63749  -2200976.68447                  23105151.6594
        45.0004         29.5004
  20245171.4464   -8865494.27049  -6885320.18048                  20245169.4254
        45.0004         41.0004
  20805366.9514   -4588248.58649  -3562506.84447                  20805365.5784
        50.7504         39.0004
  23765560.0164   -2445403.44549  -1902682.86346                  23765556.7874
        43.0004         22.7504
  22325777.4564   -8958747.67249  -6954731.57847                  22325774.8544
        41.7504         34.7504
  21583522.5204   -5133237.53949  -3988798.11347                  21583520.0874
        48.5004         38.0004
  23491791.2424  -10010961.14849  -7792748.99646                  23491790.5464
        44.2504         25.5004
  24112735.9614   -5441608.76649  -4232155.29346                  24112734.2064
        44.0004         23.0004
 04  7 12 18  9 15.0000000  0  8G 3G14G15G18G19G22G25G11
  23103075.1474   -2844177.24249  -2209476.93747                  23103075.5634
        46.0004         29.5004
  20237094.4804   -8907939.78949  -6918394.60548                  20237092.2434
        45.5004         41.2504
  20801977.6474   -4606060.39149  -3576386.18448                  20801976.4964
        50.7504         39.5004
  23763003.5724   -2458833.47349  -1913147.86746                  23763003.6714
        41.5004         23.2504
  22317826.0424   -9000533.64549  -6987292.09047                  22317822.7194
        43.2504         34.2504
  21578219.4954   -5161106.45749  -4010514.15647                  21578216.7954
        48.7504         39.0004
  23473047.3314  -10109460.66449  -7869501.84047                  23473047.0964
        44.0004         27.5004
  24094128.2294   -5539388.90649  -4308347.56646                  24094127.4494
        42.2504         24.7504
 04  7 12 18  9 30.0000000  0  8G 3G14G15G18G19G22G25G11
  23101009.4394   -2855032.74249  -2217935.78547                  23101009.8844
        44.7504         31.0004
  20229039.3854   -8950268.02049  -6951377.64148                  20229037.4784
        44.7504         41.0004
  20798609.1934   -4623761.20749  -3590179.03548                  20798607.8624
        51.5004         39.5004
  23760452.0934   -2472248.24249  -1923600.97746                  23760449.3114
        43.0004         22.7504
  22309899.9554   -9042184.61349  -7019747.38747                  22309897.1194
        46.2504         34.5004
  21572922.7804   -5188942.64149  -4032204.69147                  21572919.7864
        46.5004         38.0004
  23454307.6864  -10207939.69949  -7946238.69947                  23454307.1134
        44.0004         27.5004
  24075527.3654   -5637138.29349  -4384515.89846                  24075526.3604
        39.7504         22.7504
 04  7 12 18  9 45.0000000  0  8G 3G14G15G18G19G22G25G11
  23098953.1294   -2865836.43449  -2226354.27047                  23098954.2204
        45.0004         30.0004
  20221006.7854   -8992480.05149  -6984270.13348                  20221004.9174
        48.0004         41.5004
  20795261.5704   -4641352.10949  -3603886.24247                  20795260.1834
        51.0004         39.2504
  23757901.4364   -2485648.78149  -1934042.89146                  23757898.3194
        43.5004         24.5004
  22301998.9614   -9083701.62949  -7052098.31647                  22301996.6964
        46.7504         35.0004
  21567631.8124   -5216746.96549  -4053870.41047                  21567628.7784
        49.5004         38.2504
  23435571.0194  -10306398.68449  -8022959.95347                  23435570.7774
        43.2504         26.7504
  24056931.6654   -5734857.62549  -4460660.78546                  24056930.9024
        40.0004         22.2504
 04  7 12 18 10  0.0000000  0  8G 3G14G15G18G19G22G25G11
  23096907.6884   -2876588.43749  -2234732.49247                  23096908.1584
        45.5004         28.5004
  20212996.6074   -9034575.89149  -7017072.08248                  20212994.1364
        47.2504         41.2504
  20791934.8454   -4658833.07049  -3617507.77747                  20791933.7904
        51.2504         39.2504
  23755353.7054   -2499034.74649  -1944473.60946                  23755354.0714
        41.7504         25.0004
  22294124.4634   -9125084.67249  -7084344.85247                  22294121.7254
        47.2504         34.7504
  21562346.6024   -5244519.31649  -4075511.20347                  21562343.3134
        49.5004         38.5004
  23416838.4044  -10404837.11749  -8099665.19547                  23416838.7984
        44.0004         25.7504
  24038342.2364   -5832546.53949  -4536781.95746                  24038341.3884
        41.2504         22.5004
 04  7 12 18 10 15.0000000  0  8G 3G14G15G18G19G22G25G11
  23094871.3274   -2887289.12149  -2243070.73047                  23094871.5094
        45.5004         28.7504
  20205007.9144   -9076555.62949  -7049783.56248                  20205005.7884
        48.2504         41.5004
  20788629.3864   -4676204.00849  -3631043.58247                  20788628.0434
        50.5004         39.2504
  23752809.5894   -2512406.07049  -1954892.86346                  23752808.3434
        42.2504         23.0004
  22286275.2764   -9166333.84449  -7116487.06647                  22286272.6014
        46.7504         35.0004
  21557068.0054   -5272259.51249  -4097126.94147                  21557064.7224
        49.5004         38.2504
  23398110.5124  -10503254.58249  -8176354.09047                  23398110.5564
        44.5004         28.0004
  24019757.8614   -5930204.53149  -4612879.07846                  24019757.4694
        42.0004         23.0004
 04  7 12 18 10 30.0000000  0  8G 3G14G15G18G19G22G25G11
  23092845.2624   -2897939.68449  -2251369.91047                  23092844.7524
        45.5004         30.0004
  20197041.1384   -9118420.27749  -7082405.36748                  20197039.2814
        48.5004         41.5004
  20785344.3724   -4693465.86349  -3644494.38747                  20785343.5934
        50.5004         39.0004
  23750267.5954   -2525763.50849  -1965301.21946                  23750265.0784
        44.0004         22.0004
  22278451.0014   -9207449.96149  -7148525.60547                  22278447.7874
        47.2504         35.5004
  21551795.3874   -5299968.54349  -4118718.41047                  21551791.6154
        49.5004         38.7504
  23379386.3474  -10601651.62149  -8253027.07047                  23379386.1464
        44.7504         27.0004
  24001180.2074   -6027832.18749  -4688952.53146                  24001179.2744
        42.0004         22.7504
 04  7 12 18 10 45.0000000  0  8G 3G14G15G18G19G22G25G11
  23090826.9264   -2908540.57849  -2259630.35547                  23090827.0064
        45.0004         29.0004
  20189096.9934   -9160170.00049  -7114937.61748                  20189094.5104
        48.5004         41.5004
  20782080.0924   -4710618.85249  -3657860.37147                  20782079.6314
        50.2504         38.7504
  23747728.8354   -2539107.04349  -1975698.85946                  23747727.4674
        42.0004         24.0004
  22270651.8284   -9248433.20749  -7180460.60947                  22270649.1874
        47.5004         34.5004
  21546528.3914   -5327646.48049  -4140285.63347                  21546524.8434
        50.0004         38.7504
  23360665.5824  -10700027.88349  -8329683.87147                  23360665.6944
        44.5004         26.2504
  23982608.5614   -6125429.24649  -4765002.16846                  23982607.0804
        42.5004         22.2504
 04  7 12 18 11  0.0000000  0  8G 3G14G15G18G19G22G25G11
  23088819.5984   -2919091.12149  -2267851.60947                  23088819.6484
        44.7504         29.5004
  20181173.9764   -9201803.94149  -7147379.64848                  20181172.0604
        48.5004         41.5004
  20778837.1694   -4727662.09049  -3671140.83247                  20778836.2674
        50.0004         39.0004
  23745192.4204   -2552435.80149  -1986084.90646                  23745190.6774
        43.7504         24.2504
  22262879.0084   -9289282.82049  -7212291.49247                  22262875.5404
        48.0004         35.0004
  21541267.3724   -5355292.23049  -4161827.78947                  21541264.3964
        50.2504         38.2504
  23341948.4704  -10798381.98049  -8406323.40247                  23341949.0924
        44.0004         26.5004
  23964042.1224   -6222994.46549  -4841026.96546                  23964041.2074
        42.5004         23.5004
 04  7 12 18 11 15.0000000  0  8G 3G14G15G18G19G22G25G11
  23086821.5424   -2929593.41049  -2276035.23447                  23086821.3174
        45.5004         30.0004
  20173272.9404   -9243324.12549  -7179733.03948                  20173271.1364
        48.2504         41.2504
  20775614.4344   -4744597.52749  -3684337.29747                  20775613.6704
        49.5004         38.7504
  23742658.1954   -2565751.42649  -1996460.73846                  23742655.8104
        42.5004         22.7504
  22255130.7384   -9330000.72349  -7244019.73447                  22255127.5264
        47.5004         35.0004
  21536012.4874   -5382907.63749  -4183346.29347                  21536009.1184
        50.2504         38.0004
  23323237.4704  -10896715.25849  -8482946.68047                  23323237.3024
        45.0004         27.5004
  23945481.2674   -6320529.39149  -4917028.16446                  23945480.1774
        41.7504         23.0004
 04  7 12 18 11 30.0000000  0  8G 3G14G15G18G19G22G25G11
  23084831.9434   -2940046.19949  -2284180.30947                  23084832.1144
        44.7504         31.0004
  20165393.7284   -9284729.15249  -7211996.69548                  20165391.7604
        49.0004         41.0004
  20772412.3234   -4761423.70749  -3697448.62147                  20772411.8384
        50.2504         38.5004
  23740127.4104   -2579052.54349  -2006825.25447                  23740126.3384
        42.2504         27.0004
  22247407.5514   -9370585.47349  -7275644.22347                  22247404.6424
        47.5004         35.0004
  21530763.2614   -5410491.10949  -4204839.91847                  21530759.9534
        50.0004         38.0004
  23304529.4414  -10995025.93049  -8559552.36347                  23304528.9384
        45.2504         27.2504
  23926927.8524   -6418032.09049  -4993004.24647                  23926926.2304
        42.5004         25.7504
 04  7 12 18 11 45.0000000  0  8G 3G14G15G18G19G22G25G11
  23082851.9664   -2950451.44949  -2292288.32047                  23082852.2814
        44.5004         28.2504
  20157536.4394   -9326020.66449  -7244171.89848                  20157533.9794
        48.7504         41.2504
  20769231.1674   -4778142.16449  -3710476.00047                  20769230.4064
        50.2504         38.7504
  23737597.4874   -2592340.47749  -2017179.56246                  23737597.5384
        40.7504         22.2504
  22239710.0534   -9411038.69549  -7307166.21547                  22239706.9444
        47.5004         35.0004
  21525520.4704   -5438044.08249  -4226309.77747                  21525516.8184
        50.2504         37.2504
  23285825.7134  -11093315.05149  -8636141.23847                  23285825.9254
        45.0004         27.0004
  23908379.5164   -6515503.81249  -5068956.19546                  23908377.9414
        42.5004         24.7504
 04  7 12 18 12  0.0000000  0  8G 3G14G15G18G19G22G25G11
  23080882.2384   -2960809.56649  -2300359.62947                  23080881.2324
        44.7504         29.5004
  20149700.6174   -9367199.02349  -7276258.93448                  20149698.0954
        47.7504         42.0004
  20766070.1724   -4794753.18749  -3723419.66447                  20766069.3754
        50.7504         38.7504
  23735073.6954   -2605615.35549  -2027523.63746                  23735069.8074
        43.0004         23.0004
  22232036.6654   -9451360.71949  -7338585.98047                  22232033.7754
        46.0004         35.5004
  21520283.1944   -5465566.68749  -4247755.98047                  21520279.2844
        50.5004         37.2504
  23267125.9694  -11191582.32049  -8712713.11347                  23267125.6424
        44.2504         28.0004
  23889836.8334   -6612944.39149  -5144883.86746                  23889835.7804
        42.5004         24.7504
 04  7 12 18 12 15.0000000  0  8G 3G14G15G18G19G22G25G11
  23078918.6874   -2971120.17649  -2308393.88747                  23078919.2714
        45.2504         29.5004
  20141886.4174   -9408263.55949  -7308257.27348                  20141883.5584
        46.5004         41.7504
  20762930.0084   -4811256.02049  -3736279.02347                  20762929.2874
        50.5004         38.5004
  23732548.7694   -2618876.43749  -2037856.93446                  23732547.2454
        43.5004         25.2504
  22224389.1064   -9491550.82449  -7369902.95347                  22224385.8184
        45.0004         34.7504
  21515051.3514   -5493058.28949  -4269178.01647                  21515047.4514
        50.7504         37.0004
  23248430.5084  -11289826.56649  -8789267.03547                  23248429.7284
        44.5004         26.2504
  23871300.9564   -6710352.77349  -5220786.48846                  23871299.4864
        42.2504         24.5004
 04  7 12 18 12 30.0000000  0  8G 3G14G15G18G19G22G25G11
  23076966.8004   -2981383.70349  -2316391.47347                  23076966.0994
        46.0004         31.0004
  20134093.6264   -9449214.58649  -7340167.16048                  20134091.0614
        48.5004         41.5004
  20759810.4754   -4827651.00049  -3749054.34447                  20759809.2254
        51.0004         38.2504
  23730027.8364   -2632123.72349  -2048179.57446                  23730027.2664
        41.5004         25.0004
  22216765.9354   -9531609.30949  -7401117.36747                  22216763.2014
        47.0004         35.0004
  21509826.1194   -5520518.87549  -4290575.88347                  21509821.7494
        50.5004         37.0004
  23229739.7354  -11388047.74249  -8865802.98047                  23229739.2224
        44.7504         26.2504
  23852770.7274   -6807728.80949  -5296663.87946                  23852770.0164
        42.2504         25.0004
 04  7 12 18 12 45.0000000  0  8G 3G14G15G18G19G22G25G11
  23374814.7634   -2991600.91849  -2324352.96547                  23374814.9124
        44.0004         31.0004
  20426115.1604   -9490050.67249  -7371987.48848                  20426112.7734
        48.2504         41.5004
  21056503.0524   -4843938.15249  -3761745.64847                  21056502.4624
        50.5004         38.5004
  24027304.1514   -2645357.58249  -2058491.68746                  24027300.0964
        44.5004         24.5004
  22508960.8264   -9571534.70349  -7432228.07447                  22508958.1614
        46.2504         35.2504
  21804398.6794   -5547947.64549  -4311948.95747                  21804394.7084
        50.7504         36.7504
  23510846.5424  -11486239.96149  -8942316.36747                  23510846.0144
        43.7504         27.0004
  24134039.9984   -6905066.80149  -5372511.62946                  24134039.0014
        42.0004         25.0004
 04  7 12 18 13  0.0000000  0  8G 3G14G15G18G19G22G25G11
  23372878.5484   -3001771.14849  -2332277.84447                  23372880.0884
        44.0004         30.5004
  20418365.4654   -9530775.01649  -7403720.74248                  20418363.3814
        49.2504         41.2504
  21053424.1914   -4860117.32449  -3774352.80547                  21053423.1164
        50.7504         38.7504
  24024786.3154   -2658577.23049  -2068792.68046                  24024785.0264
        42.2504         22.5004
  22501387.7454   -9611330.05549  -7463237.44947                  22501385.6284
        47.0004         35.0004
  21799185.0674   -5575346.00449  -4333298.34047                  21799180.8994
        50.5004         36.7504
  23492165.1174  -11584413.41849  -9018815.13347                  23492163.9634
        43.0004         25.7504
  24115523.4274   -7002376.90649  -5448337.63346                  24115521.3524
        41.5004         25.0004
 04  7 12 18 13 15.0000000  0  8G 3G14G15G18G19G22G25G11
  23370952.8364   -3011895.60249  -2340167.07047                  23370953.2104
        43.7504         29.7504
  20410637.4284   -9571386.58649  -7435366.12548                  20410635.3534
        48.7504         41.5004
  21050366.0404   -4876189.22349  -3786876.37147                  21050365.1384
        50.7504         38.2504
  24022273.8444   -2671783.23449  -2079083.16446                  24022272.3184
        41.5004         24.7504
  22493840.5724   -9650994.51249  -7494144.81247                  22493837.7874
        46.5004         35.2504
  21793977.0724   -5602713.61749  -4354623.76647                  21793973.0124
        50.2504         36.7504
  23473487.1194  -11682562.87549  -9095295.20746                  23473487.3954
        43.7504         25.0004
  24097011.6324   -7099654.11749  -5524138.02746                  24097010.1844
        42.5004         23.2504
 04  7 12 18 13 30.0000000  0  8G 3G14G15G18G19G22G25G11
  23369034.9104   -3021974.38349  -2348020.68447                  23369035.3764
        43.0004         30.2504
  20402930.9094   -9611885.22749  -7466923.50048                  20402928.5094
        48.5004         42.0004
  21047328.2474   -4892153.66449  -3799316.20347                  21047326.7294
        50.2504         38.2504
  24019763.6714   -2684975.63349  -2089362.93446                  24019760.9424
        43.0004         23.0004
  22486317.3914   -9690527.93049  -7524950.08247                  22486314.5734
        47.0004         35.0004
  21788775.4024   -5630050.15649  -4375924.97347                  21788771.0814
        50.0004         36.5004
  23454815.2604  -11780687.75049  -9171756.10247                  23454815.0944
        43.2504         26.7504
  24078506.6064   -7196897.93049  -5599912.40646                  24078505.3994
        44.5004         25.5004
 04  7 12 18 13 45.0000000  0  8G 3G14G15G18G19G22G25G11
  23367124.8124   -3032008.48049  -2355839.48847                  23367125.7734
        41.0004         30.2504
  20395245.5604   -9652271.91049  -7498393.63748                  20395243.2594
        47.5004         42.0004
  21044310.5014   -4908011.49249  -3811672.96147                  21044309.5834
        50.2504         38.2504
  24017253.5984   -2698154.98849  -2099632.58646                  24017253.1214
        38.0004         22.5004
  22478819.0784   -9729931.14149  -7555653.89147                  22478816.5974
        46.7504         35.2504
  21783579.0854   -5657356.39849  -4397202.57047                  21783574.8834
        51.0004         36.5004
  23436146.9324  -11878788.34049  -9248198.07847                  23436147.5604
        43.5004         26.2504
  24060007.5934   -7294108.62149  -5675660.96146                  24060007.5394
        43.7504         24.5004
 04  7 12 18 14  0.0000000  0  8G 3G14G15G18G19G22G25G11
  23365224.5134   -3041998.23049  -2363623.75847                  23365224.2564
        43.0004         30.2504
  20387581.3574   -9692546.72749  -7529776.60948                  20387579.2484
        48.7504         41.5004
  21041312.8614   -4923762.71549  -3823946.66047                  21041312.0374
        49.5004         37.5004
  24014750.5434   -2711321.20349  -2109892.03546                  24014749.6554
        41.7504         24.7504
  22471345.5264   -9769204.14549  -7586256.24247                  22471343.4334
        48.0004         35.5004
  21778388.5304   -5684632.18749  -4418456.44547                  21778384.4044
        50.0004         36.5004
  23417483.4944  -11976864.06249  -9324620.68447                  23417483.6424
        43.2504         26.0004
  24041516.4214   -7391285.73449  -5751383.36346                  24041514.7654
        44.7504         25.2504
 04  7 12 18 14 15.0000000  0  8G 3G14G15G18G19G22G25G11
  23363331.4854   -3051944.40249  -2371374.05547                  23363331.5914
        43.5004         29.7504
  20379938.3534   -9732710.19549  -7561072.82048                  20379936.1884
        48.2504         41.2504
  21038335.8284   -4939407.81649  -3836137.66447                  21038335.1414
        49.7504         37.7504
  24012245.7704   -2724474.59849  -2120141.46146                  24012245.3514
        40.5004         22.5004
  22463896.9994   -9808347.55149  -7616757.60547                  22463894.1114
        47.7504         35.2504
  21773203.9774   -5711877.95349  -4439686.91847                  21773199.7774
        50.2504         37.2504
  23398825.3044  -12074914.88749  -9401023.87547                  23398825.8634
        43.0004         26.5004
  24023030.5904   -7488429.39849  -5827079.70746                  24023029.2964
        43.7504         23.0004
 04  7 12 18 14 30.0000000  0  8G 3G14G15G18G19G22G25G11
  23361447.6234   -3061846.32449  -2379089.86347                  23361447.7884
        44.0004         29.7504
  20372316.8684   -9772761.51249  -7592281.63348                  20372314.8214
        49.0004         42.0004
  21035378.9784   -4954945.87949  -3848245.26647                  21035378.0114
        50.0004         37.7504
  24009747.1874   -2737614.12549  -2130380.10946                  24009744.3544
        42.5004         23.0004
  22456472.4384   -9847360.41049  -7647157.25047                  22456470.7844
        47.0004         35.2504
  21768025.1214   -5739092.74249  -4460893.25847                  21768021.0224
        51.2504         37.0004
  23380171.5824  -12172939.58649  -9477406.72347                  23380172.0434
        43.0004         26.7504
  24004550.9464   -7585538.35549  -5902748.98446                  24004549.3444
        44.0004         23.0004
 04  7 12 18 14 45.0000000  0  8G 3G14G15G18G19G22G25G11
  23359571.8944   -3071704.59849  -2386771.66047                  23359571.5484
        44.5004         30.5004
  20364716.4084   -9812701.08249  -7623403.37548                  20364714.2814
        49.2504         41.7504
  21032442.4974   -4970377.27349  -3860269.73447                  21032442.0704
        50.7504         38.5004
  24007249.4034   -2750740.22349  -2140608.23046                  24007247.8184
        43.5004         24.5004
  22449073.7604   -9886243.18049  -7677455.52347                  22449071.2614
        47.5004         35.7504
  21762852.4114   -5766276.75849  -4482075.61747                  21762848.3054
        50.7504         36.5004
  23361523.4084  -12270938.02049  -9553769.09847                  23361523.4184
        43.0004         27.0004
  23986077.7694   -7682612.56649  -5978391.21146                  23986076.3694
        42.7504         22.5004
 04  7 12 18 15  0.0000000  0  8G 3G14G15G18G19G22G25G11
  23357704.0294   -3081519.18049  -2394419.41847                  23357703.6484
        42.5004         30.0004
  20357137.7674   -9852528.77049  -7654437.93448                  20357135.4494
        48.5004         41.5004
  21029526.4954   -4985701.77049  -3872210.91447                  21029525.7014
        50.5004         37.5004
  24004752.4914   -2763852.18449  -2150825.38346                  24004751.7494
        40.5004         22.2504
  22441699.2864   -9924995.70749  -7707652.30547                  22441697.1254
        47.7504         35.2504
  21757685.1794   -5793429.53949  -4503233.63747                  21757681.3374
        50.7504         37.0004
  23342880.0364  -12368909.55949  -9630110.50447                  23342880.0614
        43.0004         27.7504
  23967611.4574   -7779651.42649  -6054005.86346                  23967610.4584
        42.5004         25.5004
 04  7 12 18 15 15.0000000  0  8G 3G14G15G18G19G22G25G11
  23355843.9824   -3091290.80949  -2402033.69947                  23355844.2814
        43.2504         30.2504
  20349580.0254   -9892245.29349  -7685385.87948                  20349577.7084
        48.0004         41.5004
  21026630.6714   -5000919.90649  -3884069.21947                  21026629.8494
        50.0004         38.2504
  24002261.7534   -2776950.43449  -2161031.84046                  24002258.6944
        42.7504         22.2504
  22434349.5964   -9963618.57049  -7737748.05547                  22434347.3264
        47.7504         35.5004
  21752524.0724   -5820551.68449  -4524367.78947                  21752520.2384
        51.0004         36.7504
  23324241.9304  -12466854.12949  -9706430.92247                  23324241.6604
        44.2504         26.5004
  23949153.0344   -7876655.01249  -6129593.04346                  23949151.2764
        43.0004         22.2504
 04  7 12 18 15 30.0000000  0  8G 3G14G15G18G19G22G25G11
  23353992.8244   -3101020.48849  -2409615.29347                  23353992.5914
        44.7504         31.2504
  20342043.5134   -9931851.11749  -7716247.55148                  20342041.0334
        49.5004         41.5004
  21023755.3004   -5016032.37149  -3895845.18047                  21023754.0164
        49.5004         38.2504
  23999770.8834   -2790035.55549  -2171228.06646                  23999769.7424
        40.0004         22.2504
  22427024.5604  -10002112.38349  -7767743.23447                  22427022.5054
        47.0004         35.2504
  21747368.4864   -5847643.43049  -4545478.25447                  21747364.9644
        49.7504         37.5004
  23305609.1014  -12564771.89849  -9782730.44547                  23305608.7134
        43.5004         27.7504
  23930700.4134   -7973623.62549  -6205152.96946                  23930698.5634
        43.5004         22.2504
 04  7 12 18 15 45.0000000  0  8G 3G14G15G18G19G22G25G11
  23352149.9704   -3110707.34049  -2417163.52047                  23352149.3154
        45.2504         30.2504
  20334527.5794   -9971345.21549  -7747022.17248                  20334525.6934
        49.2504         41.7504
  21020899.4684   -5031038.18749  -3907538.03947                  21020898.6004
        50.7504         38.2504
  23997284.1904   -2803106.43449  -2181413.25446                  23997282.3374
        41.2504         21.7504
  22419723.8074  -10040476.12549  -7797637.07447                  22419721.6884
        47.2504         36.0004
  21742219.1864   -5874703.77749  -4566564.25047                  21742215.8664
        50.7504         38.0004
  23286980.5964  -12662661.37149  -9859007.92247                  23286980.9564
        43.5004         26.7504
  23912254.6534   -8070555.77349  -6280684.48446                  23912253.5454
        42.7504         24.2504
 04  7 12 18 16  0.0000000  0  8G 3G14G15G18G19G22G25G11
  23350313.9454   -3120351.53549  -2424678.49647                  23350314.3764
        43.5004         29.0004
  20327033.4664  -10010727.74249  -7777709.86348                  20327031.2574
        49.2504         41.2504
  21018064.2824   -5045937.33249  -3919147.77747                  21018063.0734
        50.2504         38.5004
  23994799.8774   -2816163.01649  -2191587.18046                  23994797.1444
        42.2504         21.7504
  22412448.5294  -10078709.84449  -7827429.59047                  22412446.1834
        48.0004         35.5004
  21737075.7504   -5901732.55549  -4587625.64147                  21737072.6474
        50.7504         38.2504
  23268358.4854  -12760521.94549  -9935262.88747                  23268358.8474
        43.7504         27.0004
  23893816.8304   -8167451.00849  -6356187.22346                  23893814.8154
        41.7504         24.5004
 04  7 12 18 16 15.0000000  0  8G 3G14G15G18G19G22G25G11
  23348486.9334   -3129954.43449  -2432161.30947                  23348487.0024
        44.5004         29.7504
  20319560.0904  -10049999.93049  -7808311.56648                  20319557.9664
        49.2504         41.5004
  21015249.1654   -5060730.98849  -3930675.31647                  21015248.3034
        50.0004         38.0004
  23992317.0964   -2829206.22749  -2201750.76646                  23992314.0934
        41.0004         20.5004
  22405197.0604  -10116814.75849  -7857121.73847                  22405195.0874
        47.5004         34.7504
  21731938.1994   -5928730.72749  -4608663.19547                  21731935.1364
        50.2504         38.0004
  23249741.7764  -12858354.32849 -10011495.86347                  23249741.5244
        44.5004         27.5004
  23875384.8744   -8264310.05549  -6431661.77746                  23875382.2234
        43.2504         24.2504
 04  7 12 18 16 30.0000000  0  8G 3G14G15G18G19G22G25G11
  23346666.9224   -3139516.39549  -2439612.20747                  23346667.5144
        43.5004         28.2504
  20312108.0634  -10089161.92649  -7838827.41048                  20312105.8664
        48.5004         41.2504
  21012454.0334   -5075419.13349  -3942120.64147                  21012453.2844
        49.7504         38.0004
  23989838.6084   -2842235.80549  -2211903.70746                  23989835.0974
        42.5004         22.2504
  22397970.7904  -10154790.94149  -7886713.57447                  22397967.8374
        46.5004         35.0004
  21726806.3604   -5955698.20749  -4629676.82847                  21726802.9294
        50.0004         38.2504
  23231129.6404  -12956158.09449 -10087706.55147                  23231130.1794
        43.7504         27.7504
  23856960.6294   -8361132.50049  -6507107.81646                  23856957.7794
        43.2504         24.0004
 04  7 12 18 16 45.0000000  0  8G 3G14G15G18G19G22G25G11
  23344856.2594   -3149037.08249  -2447030.96547                  23344855.3154
        45.0004         27.5004
  20304676.9604  -10128213.27049  -7869257.02748                  20304674.3874
        48.5004         41.2504
  21009678.9914   -5090001.21549  -3953483.30547                  21009678.4164
        50.2504         38.7504
  23987361.9334   -2855251.21149  -2222045.56646                  23987359.3164
        43.5004         22.2504
  22390768.4374  -10192637.86349  -7916204.69947                  22390765.9134
        46.7504         34.7504
  21721680.8204   -5982634.42649  -4650666.09447                  21721677.1104
        50.7504         39.0004
  23212524.5054  -13053932.12549 -10163894.05547                  23212524.9904
        43.5004         28.7504
  23838542.0944   -8457917.46149  -6582524.62947                  23838541.0944
        43.0004         26.5004
 04  7 12 18 17  0.0000000  0  8G 3G14G15G18G19G22G25G11
  23343051.6164   -3158516.50049  -2454417.55147                  23343051.8484
        44.5004         28.2504
  20297266.6174  -10167153.68449  -7899600.20748                  20297263.9264
        49.2504         41.0004
  21006924.3584   -5104477.02049  -3964763.16847                  21006923.3584
        50.0004         37.7504
  23984887.2564   -2868252.09049  -2232176.16846                  23984885.5914
        41.2504         22.0004
  22383591.7434  -10230355.32049  -7945594.93447                  22383588.4424
        48.2504         35.2504
  21716561.0674   -6009539.05149  -4671630.73847                  21716557.5354
        50.2504         38.0004
  23193923.6694  -13151675.78549 -10240057.91047                  23193924.5324
        43.5004         28.2504
  23820132.3304   -8554664.24649  -6657911.69947                  23820130.5824
        45.0004         26.7504
 04  7 12 18 17 15.0000000  0  8G 3G14G15G18G19G22G25G11
  23341254.4864   -3167955.98449  -2461773.01647                  23341255.3994
        43.0004         28.5004
  20289877.3804  -10205984.42249  -7929857.92648                  20289874.6224
        49.5004         41.5004
  21004189.8824   -5118847.71149  -3975961.12147                  21004188.9204
        49.2504         36.7504
  23982415.9864   -2881239.53149  -2242296.32046                  23982413.4684
        43.2504         22.7504
  22376438.0334  -10267944.62549  -7974885.31247                  22376435.1704
        47.2504         35.0004
  21711447.2814   -6036412.99249  -4692571.47747                  21711443.7254
        50.2504         38.0004
  23175329.7254  -13249389.78149 -10316198.63347                  23175330.1324
        44.2504         28.7504
  23801728.7414   -8651373.57849  -6733269.59047                  23801727.0944
        43.5004         26.7504
 04  7 12 18 17 30.0000000  0  8G 3G14G15G18G19G22G25G11
  23339467.0134   -3177355.41449  -2469097.29747                  23339466.8114
        44.0004         28.7504
  20282509.3014  -10244705.17649  -7960029.94548                  20282506.3304
        50.0004         41.5004
  21001474.9974   -5133112.96149  -3987076.92647                  21001474.2584
        50.0004         36.2504
  23979947.2594   -2894212.94549  -2252405.45746                  23979944.3724
        42.0004         22.0004
  22369309.9704  -10305405.41049  -8004075.55147                  22369307.0804
        48.0004         35.2504
  21706339.2124   -6063255.83249  -4713487.97747                  21706336.1114
        50.2504         38.2504
  23156742.0264  -13347073.26249 -10392315.59847                  23156741.2184
        44.2504         28.7504
  23783333.0794   -8748044.80149  -6808597.78947                  23783331.6074
        43.7504         27.0004
 04  7 12 18 17 45.0000000  0  8G 3G14G15G18G19G22G25G11
  23337685.4994   -3186715.55949  -2476390.94147                  23337685.8834
        44.7504         28.2504
  20275161.5934  -10283316.46949  -7990116.67248                  20275158.9244
        48.7504         40.5004
  20998780.2854   -5147273.26649  -3998110.94147                  20998779.6884
        49.5004         37.0004
  23977481.3604   -2907172.62549  -2262503.96546                  23977479.1934
        43.0004         22.2504
  22362205.9064  -10342738.18749  -8033166.02747                  22362202.4984
        46.2504         35.0004
  21701237.0374   -6090067.93449  -4734380.52747                  21701233.7344
        50.5004         38.2504
  23138158.3904  -13444726.30949 -10468408.84047                  23138158.1284
        42.5004         28.2504
  23764944.0494   -8844678.02049  -6883896.35947                  23764942.9244
        42.0004         27.0004
 04  7 12 18 18  0.0000000  0  8G 3G14G15G18G19G22G25G11
  23335911.8534   -3196036.52349  -2483654.05947                  23335912.1574
        45.0004         28.2504
  20267835.0334  -10321818.32849  -8020118.11748                  20267832.4154
        49.0004         41.2504
  20996105.7024   -5161328.57449  -4009063.13747                  20996104.9264
        49.2504         36.7504
  23975018.1744   -2920118.39549  -2272591.61746                  23975016.4664
        43.5004         24.5004
  22355125.5184  -10379942.87949  -8062156.71147                  22355122.7684
        46.2504         35.2504
  21696140.6304   -6116849.09449  -4755248.97347                  21696137.5684
        49.5004         38.0004
  23119581.3224  -13542348.16049 -10544477.78947                  23119581.2674
        42.5004         28.2504
  23746562.9094   -8941272.68049  -6959164.90247                  23746561.3054
        43.0004         27.0004
 04  7 12 18 18 15.0000000  0  8G 3G14G15G18G19G22G25G11
  23334145.2034   -3205319.46149  -2490887.53547                  23334145.8024
        45.5004         29.0004
  20260528.8634  -10360211.79349  -8050035.10548                  20260526.4034
        49.7504         41.0004
  20993451.3184   -5175279.73849  -4019934.19547                  20993450.6854
        50.0004         37.2504
  23972556.0924   -2933050.96949  -2282668.96546                  23972554.5154
        43.0004         20.5004
  22348070.4844  -10417020.55949  -8091048.41447                  22348067.4044
        47.0004         36.0004
  21691049.6654   -6143599.91449  -4776093.77347                  21691047.0514
        50.5004         38.0004
  23101010.5684  -13639939.21949 -10620522.73047                  23101010.4794
        41.7504         28.7504
  23728188.8984   -9037829.09049  -7034403.62547                  23728187.8464
        43.5004         28.2504
 04  7 12 18 18 30.0000000  0  8G 3G14G15G18G19G22G25G11
  23332386.2364   -3214564.50049  -2498091.50047                  23332386.9304
        45.0004         29.0004
  20253243.4234  -10398496.70749  -8079867.51248                  20253241.0054
        49.5004         41.2504
  20990816.1494   -5189126.65249  -4030724.01247                  20990815.4084
        50.2504         37.0004
  23970097.6544   -2945970.19149  -2292735.84846                  23970095.8294
        41.0004         21.5004
  22341038.6064  -10453971.11749  -8119841.05947                  22341036.1694
        47.5004         35.0004
  21685965.2564   -6170320.27349  -4796914.83247                  21685962.4904
        50.5004         38.5004
  23082445.3664  -13737499.03149 -10696543.30947                  23082445.1684
        44.0004         28.0004
  23709822.3394   -9134346.81249  -7109612.21147                  23709821.1454
        44.2504         28.0004
 04  7 12 18 18 45.0000000  0  8G 3G14G15G18G19G22G25G11
  23330634.1214   -3223772.54749  -2505266.64547                  23330634.5254
        45.0004         28.5004
  20245978.4344  -10436673.77349  -8109615.87548                  20245976.3204
        49.5004         41.2504
  20988200.7614   -5202869.96149  -4041433.09447                  20988200.0554
        49.7504         37.2504
  23967641.0784   -2958876.45349  -2302792.73446                  23967641.5164
        42.0004         22.2504
  22334031.2464  -10490795.15649  -8148535.12147                  22334028.6334
        46.5004         35.0004
  21680886.4494   -6197010.64849  -4817712.52747                  21680883.3804
        50.5004         38.2504
  23063886.4334  -13835027.60949 -10772539.57047                  23063886.9914
        42.5004         29.0004
  23691462.4804   -9230826.10249  -7184790.84447                  23691461.6674
        42.5004         27.2504
 04  7 12 18 19  0.0000000  0  8G 3G14G15G18G19G22G25G11
  23328889.3364   -3232943.58249  -2512412.94147                  23328888.8224
        46.0004         26.7504
  20238734.3034  -10474742.83649  -8139280.07848                  20238731.8354
        49.2504         41.0004
  20985605.7244   -5216509.52749  -4052061.34847                  20985604.5574
        49.7504         37.2504
  23965188.3034   -2971769.32849  -2312839.20346                  23965187.0744
        41.7504         23.0004
  22327048.2954  -10527492.61749  -8177130.55947                  22327045.5994
        47.7504         35.0004
  21675813.1864   -6223670.60249  -4838486.52347                  21675810.3864
        50.0004         38.5004
  23045333.4484  -13932524.13749 -10848510.85947                  23045333.2894
        43.2504         28.0004
  23673110.0474   -9327266.29749  -7259939.00047                  23673109.6364
        40.7504         27.5004
 04  7 12 18 19 15.0000000  0  8G 3G14G15G18G19G22G25G11
  23327151.3154   -3242077.38749  -2519530.21547                  23327150.6824
        46.0004         28.5004
  20231510.3994  -10512703.47749  -8168859.80548                  20231508.1894
        49.0004         41.0004
  20983029.9284   -5230044.79749  -4062608.32047                  20983028.8774
        49.0004         38.0004
  23962737.5744   -2984648.35949  -2322874.73046                  23962734.8264
        37.5004         21.7504
  22320088.7084  -10564063.02349  -8205626.97747                  22320086.5514
        47.7504         34.7504
  21670745.9304   -6250299.62149  -4859236.41047                  21670743.1854
        50.0004         37.7504
  23026787.4024  -14029987.71549 -10924456.46147                  23026786.5604
        43.0004         28.0004
  23654766.2654   -9423666.55149  -7335056.01647                  23654764.6354
        41.5004         27.0004
 04  7 12 18 19 30.0000000  0  8G 3G14G15G18G19G22G25G11
  23325419.9374   -3251174.55949  -2526618.96147                  23325419.6274
        45.5004         27.7504
  20224307.0774  -10550556.25049  -8198355.47748                  20224305.1304
        49.0004         41.2504
  20980473.8604   -5243476.30149  -4073074.43747                  20980472.8754
        49.0004         38.0004
  23960290.0084   -2997513.82049  -2332899.83646                  23960289.5244
        37.7504         25.0004
  22313153.8584  -10600506.83649  -8234024.77347                  22313151.2834
        48.0004         34.5004
  21665684.0894   -6276898.05549  -4879962.47347                  21665681.5424
        50.2504         38.2504
  23008246.1704  -14127418.45349 -11000376.48847                  23008245.9014
        41.7504         27.2504
  23636429.1574   -9520026.89849  -7410141.94547                  23636428.1834
        41.5004         26.5004
 04  7 12 18 19 45.0000000  0  8G 3G14G15G18G19G22G25G11
  23323695.6784   -3260234.98849  -2533679.06247                  23323695.1984
        45.5004         30.0004
  20217124.7474  -10588300.80549  -8227766.82048                  20217122.4824
        49.0004         41.0004
  20977937.8594   -5256803.67249  -4083459.42247                  20977936.7454
        48.5004         37.7504
  23957844.8524   -3010365.10249  -2342913.91447                  23957845.3984
        40.5004         26.0004
  22306242.8084  -10636823.85249  -8262323.75447                  22306240.2784
        48.5004         34.7504
  21660628.5814   -6303465.36349  -4900664.27347                  21660626.2204
        50.0004         38.2504
  22989712.4044  -14224815.35949 -11076270.14547                  22989711.9774
        42.2504         27.7504
  23618100.6594   -9616346.49649  -7485196.13746                  23618099.3554
        42.7504         25.5004
 04  7 12 18 20  0.0000000  0  8G 3G14G15G18G19G22G25G11
  23321978.6894   -3269259.47749  -2540711.16047                  23321978.2734
        46.0004         28.5004
  20209962.7764  -10625937.88749  -8257094.41448                  20209960.2004
        49.0004         40.5004
  20975421.1054   -5270027.56249  -4093763.75847                  20975420.4074
        50.0004         38.2504
  23955399.8954   -3023202.64549  -2352917.20746                  23955400.7614
        39.5004         22.2504
  22299356.3534  -10673014.65649  -8290524.38747                  22299353.2164
        47.2504         34.7504
  21655578.6654   -6330001.97349  -4921342.15247                  21655576.1184
        50.0004         38.2504
  22971185.1114  -14322178.54349 -11152137.52347                  22971184.2434
        42.7504         27.5004
  23599778.0564   -9712625.51649  -7560218.70747                  23599777.5774
        43.2504         26.5004
 04  7 12 18 20 15.0000000  0  8G 3G14G15G18G19G22G25G11
  23320268.1224   -3278249.34449  -2547716.28547                  23320267.5644
        46.5004         28.5004
  20202820.8074  -10663468.64149  -8286339.16448                  20202818.5404
        48.5004         40.7504
  20972924.3734   -5283149.07449  -4103988.32847                  20972923.6644
        50.0004         38.2504
  23952960.5574   -3036027.50849  -2362910.59846                  23952958.4134
        41.5004         20.5004
  22292493.0244  -10709080.40249  -8318627.57447                  22292490.2044
        47.0004         34.5004
  21650534.9974   -6356508.86749  -4941996.87947                  21650532.5234
        49.7504         38.2504
  22952663.2854  -14419508.64549 -11227979.11747                  22952663.2024
        43.0004         27.5004
  23581464.9284   -9808864.62149  -7635210.18747                  23581463.6034
        43.2504         26.0004
 04  7 12 18 20 30.0000000  0  8G 3G14G15G18G19G22G25G11
  23318563.3334   -3287205.12549  -2554694.85247                  23318563.7584
        45.0004         28.0004
  20195699.1254  -10700893.33649  -8315501.26248                  20195696.9854
        49.7504         40.5004
  20970446.8244   -5296168.38349  -4114133.26647                  20970446.2614
        49.5004         37.7504
  23950523.7204   -3048839.90649  -2372894.33247                  23950523.3334
        44.0004         28.2504
  22285653.6694  -10745021.50449  -8346633.64547                  22285651.1184
        47.5004         35.0004
  21645496.4684   -6382986.12149  -4962628.50847                  21645494.0644
        49.5004         38.2504
  22934147.4564  -14516805.50049 -11303794.80147                  22934147.8124
        42.2504         28.2504
  23563159.4074   -9905063.68049  -7710170.45746                  23563157.5444
        43.7504         23.5004
 04  7 12 18 20 45.0000000  0  8G 3G14G15G18G19G22G25G11
  23616657.9734   -3296126.05149  -2561646.25447                  23616658.1924
        45.5004         28.5004
  20488390.7864  -10738209.24649  -8344578.59848                  20488388.5434
        49.0004         40.5004
  21267781.7094   -5309084.28949  -4124197.62147                  21267781.0844
        50.2504         37.0004
  24247878.7654   -3061638.42249  -2382867.25046                  24247880.6184
        41.2504         23.0004
  22578631.1464  -10780835.21549  -8374540.43747                  22578628.1404
        48.0004         34.5004
  21940256.1824   -6409431.47749  -4983235.28147                  21940253.9094
        50.0004         38.2504
  23215432.9284  -14614061.70749 -11379578.80947                  23215433.1574
        43.2504         28.7504
  23844654.9324  -10001215.52749  -7785093.95746                  23844651.6584
        45.0004         25.2504
 04  7 12 18 21  0.0000000  0  8G 3G14G15G18G19G22G25G11
  23614967.1744   -3305013.34449  -2568571.46547                  23614967.7954
        45.0004         28.0004
  20481309.6064  -10775421.27749  -8373574.98048                  20481307.0624
        49.0004         41.0004
  21265343.2124   -5321898.43449  -4134182.69147                  21265342.4054
        49.5004         37.2504
  24245446.0954   -3074424.44149  -2392830.41046                  24245446.0044
        40.5004         20.5004
  22571839.6764  -10816526.13749  -8402351.55547                  22571836.1254
        48.2504         34.0004
  21935229.2304   -6435848.28549  -5003819.80547                  21935226.9754
        50.0004         38.0004
  23196931.3424  -14711289.65249 -11455340.81247                  23196931.3564
        43.5004         29.7504
  23826364.5204  -10097332.42249  -7859990.23447                  23826361.2814
        43.5004         25.7504
 04  7 12 18 21 15.0000000  0  8G 3G14G15G18G19G22G25G11
  23613283.1044   -3313866.57049  -2575470.12147                  23613282.9684
        45.5004         28.7504
  20474248.4254  -10812526.76249  -8402488.35548                  20474246.2744
        49.5004         40.5004
  21262923.9764   -5334609.88749  -4144087.73047                  21262923.3944
        49.5004         36.5004
  24243017.3134   -3087196.87949  -2402782.93046                  24243014.3584
        43.7504         23.5004
  22565071.2904  -10852091.90649  -8430065.15247                  22565068.2754
        47.5004         34.0004
  21930208.0324   -6462234.37149  -5024380.40647                  21930205.3594
        49.5004         37.5004
  23178436.3044  -14808482.10549 -11531075.14847                  23178436.1164
        44.5004         29.5004
  23808082.4384  -10193407.39149  -7934853.83647                  23808079.0864
        44.7504         26.2504
 04  7 12 18 21 30.0000000  0  8G 3G14G15G18G19G22G25G11
  23611604.4434   -3322687.68449  -2582343.74247                  23611604.0974
        45.7504         28.2504
  20467207.6684  -10849527.60949  -8431320.18448                  20467205.0884
        49.2504         40.5004
  21260524.1984   -5347220.41449  -4153914.12947                  21260523.5574
        49.5004         36.5004
  24240587.5684   -3099957.27749  -2412726.11346                  24240588.1874
        39.2504         22.0004
  22558326.8434  -10887534.23849  -8457682.56247                  22558324.2534
        47.5004         34.0004
  21925192.3494   -6488591.41049  -5044918.36747                  21925189.6374
        49.7504         37.2504
  23159947.9844  -14905640.39549 -11606782.88347                  23159947.6324
        44.0004         29.0004
  23789806.9854  -10289441.69949  -8009685.74246                  23789804.4794
        44.0004         25.5004
 04  7 12 18 21 45.0000000  0  8G 3G14G15G18G19G22G25G11
  23609931.5394   -3331475.90649  -2589191.73447                  23609932.1784
        45.7504         28.5004
  20460186.4774  -10886422.83249  -8460069.70348                  20460184.2254
        48.5004         40.7504
  21258143.7574   -5359728.94149  -4163661.05147                  21258143.1704
        49.0004         36.7504
  24238162.2764   -3112704.26249  -2422659.04346                  24238162.8534
        39.0004         19.2504
  22551606.5424  -10922852.26649  -8485203.12547                  22551603.2124
        48.0004         34.2504
  21920182.6734   -6514918.16849  -5065432.72347                  21920179.7174
        49.5004         37.0004
  23141466.1184  -15002762.95349 -11682462.76247                  23141465.5714
        44.2504         28.0004
  23771540.1174  -10385433.97749  -8084484.89847                  23771537.9324
        44.0004         26.0004
 04  7 12 18 22  0.0000000  0  8G 3G14G15G18G19G22G25G11
  23608265.1204   -3340232.09449  -2596014.78947                  23608265.7614
        45.2504         27.5004
  20453185.6834  -10923213.30949  -8488737.61348                  20453183.3164
        48.5004         41.0004
  21255783.0694   -5372136.21149  -4173329.06647                  21255782.0024
        48.5004         36.2504
  24235739.7884   -3125438.85949  -2432581.98446                  24235736.6634
        42.0004         19.2504
  22544908.8074  -10958046.73449  -8512627.39547                  22544906.1604
        47.0004         34.5004
  21915178.7134   -6541215.22349  -5085923.94147                  21915175.2444
        49.5004         35.7504
  23122990.7794  -15099849.94949 -11758114.92247                  23122990.6894
        43.2504         29.5004
  23753281.9534  -10481384.37949  -8159251.43747                  23753278.9884
        43.2504         25.7504
 04  7 12 18 22 15.0000000  0  8G 3G14G15G18G19G22G25G11
  23606604.7994   -3348956.09049  -2602812.74647                  23606605.2514
        44.0004         27.2504
  20446204.8484  -10959898.60249  -8517323.55548                  20446202.1964
        49.5004         41.0004
  21253441.6924   -5384441.91849  -4182917.94547                  21253440.6314
        48.0004         36.0004
  24233317.3494   -3138160.30548  -2442494.76646                  24233316.1834
        35.7504         20.5004
  22538234.9074  -10993117.40249  -8539955.19547                  22538232.7124
        47.2504         34.7504
  21910180.1314   -6567482.11349  -5106391.66047                  21910176.4344
        49.2504         36.2504
  23104523.1384  -15196900.59049 -11833738.77047                  23104522.3074
        44.2504         29.7504
  23735030.3104  -10577292.19949  -8233984.77047                  23735029.1334
        43.0004         26.5004
 04  7 12 18 22 30.0000000  0  8G 3G14G15G18G19G22G25G11
  23604950.4934   -3357649.05149  -2609586.52747                  23604950.5554
        44.5004         28.0004
  20439243.5204  -10996479.68449  -8545828.29748                  20439241.2134
        48.5004         41.0004
  21251119.1934   -5396646.84449  -4192428.28547                  21251118.0304
        48.0004         36.5004
  24230899.5884   -3150868.88358  -2452397.79356                  24230899.2534
        33.7504         20.0004
  22531584.6544  -11028065.11349  -8567187.18447                  22531582.1424
        47.2504         34.7504
  21905187.6614   -6593719.53149  -5126836.40247                  21905183.3234
        49.5004         37.0004
  23086061.9284  -15293915.15249 -11909334.50447                  23086061.0404
        44.0004         28.5004
  23716788.1724  -10673157.77749  -8308685.20346                  23716786.4824
        41.7504         25.5004
 04  7 12 18 22 45.0000000  0  8G 3G14G15G18G19G22G25G11
  23603302.6984   -3366311.19149  -2616336.29747                  23603302.7594
        45.7504         28.0004
  20432302.4974  -11032956.58649  -8574251.86348                  20432299.9004
        48.5004         41.2504
  21248815.7334   -5408751.05549  -4201860.14847                  21248814.7554
        46.5004         36.5004
  24228484.8384   -3163565.12949  -2462291.01246                  24228484.1764
        40.2504         25.5004
  22524958.0004  -11062889.85949  -8594323.36747                  22524955.1614
        47.2504         35.0004
  21900200.4314   -6619927.32049  -5147258.06247                  21900196.2414
        48.5004         36.7504
  23067607.4094  -15390893.22749 -11984901.79747                  23067606.8464
        44.5004         30.0004
  23698553.5654  -10768980.82049  -8383352.47747                  23698552.5544
        43.5004         26.0004
 04  7 12 18 23  0.0000000  0  8G 3G14G15G18G19G22G25G11
  23601660.1924   -3374942.42649  -2623061.95747                  23601660.3174
        45.0004         28.0004
  20425381.0884  -11069329.14849  -8602594.11348                  20425378.5484
        49.0004         41.5004
  21246531.7784   -5420754.37149  -4211213.39547                  21246530.5724
        49.0004         36.7504
  24226070.1204   -3176248.25049  -2472173.84846                  24226068.2504
        39.5004         20.0004
  22518354.1954  -11097591.44149  -8621363.57047                  22518352.3764
        47.2504         35.5004
  21895219.2724   -6646105.08249  -5167656.32847                  21895214.8494
        50.7504         37.2504
  23049160.0404  -15487833.95749 -12060440.00047                  23049159.9114
        45.0004         29.5004
  23680326.8364  -10864760.52349  -8457985.95747                  23680326.7234
        42.7504         27.0004
 04  7 12 18 23 15.0000000  0  8G 3G14G15G18G19G22G25G11
  23600023.4704   -3383543.26249  -2629763.93747                  23600023.7384
        44.5004         28.0004
  20418479.1804  -11105597.66449  -8630855.29348                  20418477.0494
        48.7504         41.2504
  21244266.3074   -5432657.03549  -4220488.20747                  21244265.6864
        48.7504         36.7504
  24223659.8954   -3188918.43049  -2482046.82846                  24223657.7674
        39.0004         19.0004
  22511774.3864  -11132170.34849  -8648308.18447                  22511771.9124
        47.7504         35.0004
  21890243.4824   -6672252.93749  -5188031.28947                  21890238.8224
        49.7504         36.5004
  23030719.6794  -15584737.13349 -12135948.92647                  23030719.8344
        44.0004         29.2504
  23662109.1944  -10960496.64849  -8532585.47747                  23662108.4374
        42.7504         27.0004
 04  7 12 18 23 30.0000000  0  8G 3G14G15G18G19G22G25G11
  23598393.6084   -3392113.84849  -2636442.37147                  23598392.9184
        46.2504         27.5004
  20411597.2044  -11141762.14149  -8659035.40248                  20411594.8264
        49.5004         41.2504
  21242020.5374   -5444458.93749  -4229684.50847                  21242020.0414
        47.2504         36.5004
  24221252.3744   -3201575.63649  -2491909.59847                  24221251.4074
        45.0004         27.5004
  22505217.8084  -11166626.52349  -8675157.16847                  22505215.1134
        48.2504         35.0004
  21885273.5134   -6698370.61749  -5208382.73447                  21885269.0884
        49.7504         36.0004
  23012287.3814  -15681602.18749 -12211428.15247                  23012286.7224
        44.5004         30.5004
  23643899.4664  -11056188.75049  -8607150.71547                  23643898.6734
        43.0004         27.0004
 04  7 12 18 23 45.0000000  0  8G 3G14G15G18G19G22G25G11
  23596767.8634   -3400655.76649  -2643098.43747                  23596767.9344
        44.7504         27.7504
  20404734.6374  -11177824.22349  -8687135.73048                  20404732.6344
        49.0004         41.0004
  21239793.9084   -5456161.65249  -4238803.52747                  21239793.3934
        45.0004         36.7504
  24218844.4904   -3214220.89149  -2501763.09046                  24218845.5374
        42.5004         22.7504
  22498683.8704  -11200961.45749  -8701911.66847                  22498681.5984
        48.0004         34.2504
  21880308.8994   -6724459.48449  -5228711.73447                  21880304.4104
        47.7504         36.5004
  22993861.4474  -15778429.95749 -12286878.31647                  22993860.9854
        45.2504         30.0004
  23625698.1124  -11151837.93749  -8681682.51647                  23625696.7074
        43.5004         26.2504
 04  7 12 18 24  0.0000000  0  8G 3G14G15G18G19G22G25G11
  23595147.6364   -3409169.09449  -2649732.23047                  23595148.0674
        46.0004         28.5004
  20397892.0094  -11213783.57849  -8715156.00448                  20397889.6104
        48.5004         41.2504
  21237585.7514   -5467764.83249  -4247844.98847                  21237585.5094
        48.2504         36.7504
  24216440.4794   -3226853.74649  -2511606.91846                  24216439.2334
        41.0004         19.0004
  22492173.4554  -11235174.95749  -8728571.55147                  22492170.6844
        48.0004         35.0004
  21875350.0264   -6750519.10249  -5249017.93747                  21875345.3934
        51.0004         36.5004
  22975443.2664  -15875219.91449 -12362299.03147                  22975442.4414
        45.2504         29.7504
  23607505.1944  -11247443.55949  -8756180.40247                  23607503.6744
        42.5004         26.7504
 04  7 12 18 24 15.0000000  0  8G 3G14G15G18G19G22G25G11
  23593532.5564   -3417653.68749  -2656343.63747                  23593533.7994
        45.0004         27.2504
  20391068.7864  -11249640.03149  -8743096.10248                  20391066.1404
        48.7504         41.0004
  21235396.7474   -5479268.31249  -4256808.76247                  21235396.5604
        48.2504         36.7504
  24214040.4324   -3239473.98449  -2521440.83647                  24214037.9964
        45.2504         26.2504
  22485685.4034  -11269266.81249  -8755136.63347                  22485683.5434
        48.0004         34.0004
  21870396.6994   -6776548.96149  -5269300.95747                  21870392.1504
        50.5004         36.5004
  22957031.7224  -15971971.09049 -12437689.52747                  22957031.5934
        45.0004         29.0004
  23589320.2714  -11343004.76249  -8830643.66047                  23589318.5174
        43.5004         26.5004
 04  7 12 18 24 30.0000000  0  8G 3G14G15G18G19G22G25G11
  23591923.8424   -3426109.44949  -2662932.58647                  23591924.3474
        44.5004         28.0004
  20384265.1344  -11285393.21149  -8770955.71548                  20384262.8174
        48.2504         41.2504
  21233226.6244   -5490671.64549  -4265694.48847                  21233226.3914
        47.5004         37.2504
  24211641.1774   -3252080.92249  -2531264.44947                  24211640.3944
        44.5004         28.2504
  22479221.4774  -11303236.61749  -8781606.63347                  22479219.3814
        47.7504         34.2504
  21865449.0784   -6802548.53549  -5289560.36747                  21865444.4764
        49.7504         36.5004
  22938627.6834  -16068682.72349 -12513049.21147                  22938627.4814
        45.5004         29.2504
  23571144.2724  -11438520.81249  -8905071.73847                  23571142.1874
        43.2504         26.7504
 04  7 12 18 24 45.0000000  0  8G 3G14G15G18G19G22G25G11
  23590319.5474   -3434536.89549  -2669499.44947                  23590320.4454
        45.2504         28.0004
  20377481.1214  -11321043.52749  -8798735.18448                  20377478.5044
        49.5004         40.7504
  21231075.9964   -5501975.24249  -4274502.50047                  21231075.3624
        46.2504         37.0004
  24209241.5894   -3264674.74649  -2541077.90646                  24209244.0754
        39.2504         21.2504
  22472780.6454  -11337084.97749  -8807981.98447                  22472777.9364
        48.2504         34.2504
  21860507.2044   -6828518.18749  -5309796.47747                  21860503.1124
        48.2504         35.5004
  22920232.1224  -16165354.56249 -12588377.88347                  22920231.4134
        45.5004         29.0004
  23552976.9394  -11533991.41849  -8979464.41046                  23552974.6254
        43.7504         25.5004
 04  7 12 18 25  0.0000000  0  8G 3G14G15G18G19G22G25G11
  23588721.7894   -3442936.84049  -2676044.90647                  23588721.9964
        44.7504         27.2504
  20370716.4994  -11356591.69949  -8826435.05948                  20370713.7994
        49.5004         41.0004
  21228943.7124   -5513179.71949  -4283233.27347                  21228943.1604
        48.7504         36.7504
  24206851.3524   -3277255.89849  -2550881.45746                  24206847.8504
        45.0004         21.2504
  22466361.6304  -11370812.33249  -8834263.05147                  22466359.7384
        47.7504         34.5004
  21855570.8814   -6854458.19949  -5330009.48447                  21855566.8634
        49.7504         35.7504
  22901843.4234  -16261986.59449 -12663675.52747                  22901843.2054
        45.7504         30.0004
  23534818.5324  -11629416.78549  -9053821.82447                  23534815.5814
        42.7504         26.0004
 04  7 12 18 25 15.0000000  0  8G 3G14G15G18G19G22G25G11
  23587127.8594   -3451309.69149  -2682569.25447                  23587128.4074
        45.0004         26.2504
  20363971.3364  -11392037.94549  -8854055.51248                  20363968.7064
        49.7504         41.2504
  21226830.5064   -5524285.22749  -4291886.93047                  21226829.7094
        48.5004         36.7504
  24204459.0604   -3289824.56649  -2560675.15246                  24204455.4614
        46.5004         25.2504
  22459967.1824  -11404419.21949  -8860450.25047                  22459964.6794
        47.2504         34.5004
  21850640.1484   -6880368.63749  -5350199.43747                  21850636.4184
        49.5004         36.0004
  22883462.6064  -16358578.69149 -12738942.05947                  22883462.3664
        46.0004         30.2504
  23516667.5024  -11724796.80949  -9128143.90646                  23516664.5974
        42.0004         22.7504
 04  7 12 18 25 30.0000000  0  8G 3G14G15G18G19G22G25G11
  23585539.8314   -3459655.06649  -2689072.18447                  23585540.4024
        44.5004         27.0004
  20357245.5734  -11427381.77049  -8881596.15248                  20357243.0654
        50.5004         41.7504
  21224735.9484   -5535291.23449  -4300463.05547                  21224734.9134
        48.5004         36.5004
  24202068.4204   -3302379.93749  -2570458.60546                  24202068.2954
        42.2504         24.2504
  22453595.0234  -11437904.93749  -8886543.03547                  22453592.9264
        47.0004         34.2504
  21845715.5634   -6906248.79749  -5370365.81247                  21845711.7744
        49.0004         36.2504
  22865089.6104  -16455129.70749 -12814176.59847                  22865088.9924
        46.5004         30.2504
  23498526.0374  -11820130.55949  -9202429.94946                  23498523.0934
        43.2504         22.7504
 04  7 12 18 25 45.0000000  0  8G 3G14G15G18G19G22G25G11
  23583957.4374   -3467973.11749  -2695553.84847                  23583957.5044
        44.5004         26.5004
  20350539.5254  -11462623.05549  -8909056.89148                  20350536.8574
        49.5004         42.0004
  21222660.6374   -5546197.62549  -4308961.55547                  21222659.9774
        49.7504         36.0004
  24199682.3794   -3314921.51649  -2580231.36746                  24199682.0054
        43.5004         22.2504
  22447246.2134  -11471269.44149  -8912541.35247                  22447243.8074
        47.2504         34.0004
  21840796.7414   -6932098.27049  -5390508.27047                  21840793.5434
        50.0004         36.5004
  22846724.4744  -16551638.94149 -12889378.56247                  22846723.5594
        46.2504         30.5004
  23480393.6434  -11915417.25849  -9276679.27346                  23480390.7144
        41.7504         25.0004
 04  7 12 18 26  0.0000000  0  8G 3G14G15G18G19G22G25G11
  23582379.2404   -3476264.33249  -2702014.57047                  23582380.5614
        43.5004         27.2504
  20343852.5054  -11497762.21949  -8936438.05548                  20343850.3024
        49.7504         41.7504
  21220603.9774   -5557004.85949  -4317382.79347                  21220603.4414
        49.5004         36.0004
  24197298.9084   -3327449.63349  -2589993.54746                  24197297.7704
        45.0004         22.2504
  22440919.7364  -11504513.17249  -8938445.56247                  22440917.5224
        47.5004         34.5004
  21835883.1294   -6957917.33649  -5410627.03147                  21835880.2344
        49.5004         36.5004
  22828367.6434  -16648106.19949 -12964547.81247                  22828366.6844
        46.0004         29.0004
  23462270.0024  -12010656.86749  -9350891.94246                  23462267.8394
        43.2504         25.2504
 04  7 12 18 26 15.0000000  0  8G 3G14G15G18G19G22G25G11
  23580806.8714   -3484530.28949  -2708455.61747                  23580807.2044
        44.0004         27.0004
  20337184.8964  -11532800.77749  -8963740.82848                  20337182.7914
        49.7504         41.7504
  21218566.0764   -5567714.23049  -4325727.77347                  21218565.2284
        49.0004         36.5004
  24194916.8854   -3339965.55149  -2599746.17246                  24194914.8964
        43.0004         22.0004
  22434616.4224  -11537637.61749  -8964256.83247                  22434614.2484
        47.2504         34.5004
  21830975.5044   -6983707.17249  -5430723.01247                  21830972.6764
        49.7504         36.0004
  22810017.7374  -16744532.46149 -13039685.12147                  22810017.3454
        45.7504         29.2504
  23444155.4674  -12105850.23849  -9425068.51247                  23444153.6194
        41.7504         25.7504
 04  7 12 18 26 30.0000000  0  8G 3G14G15G18G19G22G25G11
  23579238.5904   -3492769.90649  -2714876.12947                  23579239.8124
        45.0004         27.5004
  20330536.6504  -11567737.50049  -8990964.25048                  20330534.3364
        50.0004         42.0004
  21216546.9474   -5578324.48049  -4333995.50447                  21216546.4804
        48.0004         36.2504
  24192535.6994   -3352467.64849  -2609488.16446                  24192536.0214
        38.0004         20.0004
  22428335.8444  -11570641.60549  -8989974.24647                  22428333.6404
        47.0004         34.5004
  21826073.3834   -7009466.39549  -5450795.14547                  21826070.6994
        48.7504         36.7504
  22791676.5764  -16840915.98049 -13114789.12947                  22791676.0594
        45.2504         30.5004
  23426050.1704  -12200995.62549  -9499207.73447                  23426048.3264
        43.2504         26.7504
 04  7 12 18 26 45.0000000  0  8G 3G14G15G18G19G22G25G11
  23577675.5134   -3500984.69949  -2721277.29347                  23577676.5084
        44.7504         27.7504
  20323907.5064  -11602573.66049  -9018109.30948                  20323905.4024
        49.5004         41.5004
  21214546.7234   -5588836.96949  -4342187.07847                  21214546.0164
        49.0004         36.5004
  24190161.3814   -3364957.21949  -2619220.38346                  24190159.8314
        43.7504         21.2504
  22422078.1824  -11603526.36349  -9015598.75047                  22422075.6274
        47.7504         34.2504
  21821177.1414   -7035196.04349  -5470844.23047                  21821174.4814
        49.0004         36.7504
  22773343.0894  -16937257.47749 -13189860.38347                  22773343.2304
        46.0004         30.0004
  23407953.0654  -12296094.00449  -9573310.35247                  23407951.2074
        42.0004         26.5004
 04  7 12 18 27  0.0000000  0  8G 3G14G15G18G19G22G25G11
  23576117.3364   -3509173.52049  -2727658.23847                  23576117.8134
        44.5004         26.7504
  20317298.0294  -11637308.14549  -9045175.14148                  20317295.6454
        49.2504         42.0004
  21212565.2264   -5599250.43749  -4350301.47747                  21212564.3964
        49.2504         36.5004
  24187787.4344   -3377432.80549  -2628941.61346                  24187785.5484
        43.0004         20.0004
  22415843.6704  -11636290.84449  -9041129.51647                  22415841.4584
        47.5004         35.0004
  21816287.0704   -7060894.75849  -5490869.20747                  21816284.4354
        48.7504         36.0004
  22755018.8694  -17033555.17649 -13264897.51247                  22755018.0214
        46.0004         30.7504
  23389865.7044  -12391143.63749  -9647374.95347                  23389864.2354
        41.7504         26.5004
 04  7 12 18 27 15.0000000  0  8G 3G14G15G18G19G22G25G11
  23574563.4154   -3517339.36349  -2734021.26247                  23574564.2964
        43.7504         26.7504
  20310706.9974  -11671943.67649  -9072163.87148                  20310704.7724
        49.7504         41.7504
  21210601.8274   -5609567.58649  -4358340.83247                  21210600.9974
        48.5004         36.5004
  24185413.1044   -3389896.92649  -2638653.83646                  24185412.6904
        39.0004         16.2504
  22409630.4244  -11668937.73849  -9066568.67647                  22409628.6194
        46.5004         34.2504
  21811402.3234   -7086565.03949  -5510872.03147                  21811399.4214
        48.2504         36.0004
  22736701.6524  -17129811.18449 -13339902.16847                  22736701.6094
        46.7504         30.5004
  23371787.1154  -12486146.81649  -9721403.39147                  23371785.8644
        42.7504         27.2504
 04  7 12 18 27 30.0000000  0  8G 3G14G15G18G19G22G25G11
  23573014.6274   -3525480.46149  -2740365.01647                  23573014.7104
        43.7504         26.0004
  20304135.1724  -11706478.31249  -9099073.97748                  20304132.7584
        49.7504         42.0004
  21208657.1634   -5619786.52049  -4366303.64847                  21208657.0274
        49.0004         36.0004
  24183045.3514   -3402347.48849  -2648355.70346                  24183043.1524
        39.5004         17.7504
  22403440.8684  -11701465.11349  -9091914.69547                  22403438.6434
        47.0004         34.2504
  21806523.1954   -7112204.82449  -5530851.09047                  21806520.1024
        48.7504         36.2504
  22718393.4124  -17226023.03949 -13414872.41047                  22718392.5844
        46.0004         31.0004
  23353718.0854  -12581101.09449  -9795393.70347                  23353716.8124
        43.5004         26.2504
 04  7 12 18 27 45.0000000  0  8G 3G14G15G18G19G22G25G11
  23571469.4894   -3533598.84449  -2746691.07446                  23571469.7044
        42.2504         25.2504
  20297582.3144  -11740914.15649  -9125907.09448                  20297579.6834
        49.7504         41.7504
  21206731.0104   -5629909.16449  -4374191.43747                  21206730.2894
        48.0004         36.0004
  24180679.1814   -3414786.30949  -2658048.32046                  24180676.7464
        41.0004         20.0004
  22397273.7944  -11733874.94149  -9117169.11347                  22397271.1604
        46.2504         34.5004
  21801649.4954   -7137815.71549  -5550807.62947                  21801646.5604
        48.0004         36.5004
  22700092.6534  -17322192.11749 -13489809.32847                  22700092.4724
        46.0004         30.2504
  23335658.5464  -12676007.89549  -9869347.02747                  23335657.0234
        43.0004         28.2504
 04  7 12 18 28  0.0000000  0  8G 3G14G15G18G19G22G25G11
  23569928.9904   -3541693.78549  -2752998.87546                  23569929.0404
        41.7504         25.2504
  20291048.3214  -11775250.25849  -9152662.48848                  20291045.5964
        50.7504         41.7504
  21204823.3424   -5639934.63749  -4382003.51647                  21204822.3624
        46.5004         35.7504
  24178312.7504   -3427212.07449  -2667730.79746                  24178312.5854
        40.0004         19.2504
  22391128.7024  -11766166.46149  -9142331.34447                  22391126.1594
        46.5004         33.5004
  21796781.6594   -7163396.71549  -5570740.88347                  21796778.7804
        47.2504         36.5004
  22681800.7664  -17418316.95749 -13564711.75847                  22681800.0054
        46.2504         30.0004
  23317606.8154  -12770865.90649  -9943262.33647                  23317606.0404
        43.5004         27.5004
 04  7 12 18 28 15.0000000  0  8G 3G14G15G18G19G22G25G11
  23568393.1944   -3549764.03149  -2759287.42246                  23568393.1574
        42.2504         25.0004
  20284533.8134  -11809485.06649  -9179338.96548                  20284531.4064
        49.5004         42.0004
  21202934.1934   -5649861.34449  -4389738.62147                  21202933.1814
        47.0004         35.7504
  24175952.1894   -3439623.01249  -2677401.70346                  24175950.6194
        40.0004         18.2504
  22385006.9434  -11798338.12149  -9167400.17647                  22385004.5034
        47.0004         33.7504
  21791919.7274   -7188946.07849  -5590649.48047                  21791916.8184
        48.2504         36.5004
  22663517.4884  -17514395.47349 -13639578.10247                  22663517.2494
        46.2504         30.7504
  23299565.3694  -12865673.10549 -10017138.02747                  23299564.3124
        41.7504         26.5004
 04  7 12 18 28 30.0000000  0  8G 3G14G15G18G19G22G25G11
  23566862.5024   -3557811.44149  -2765558.17646                  23566862.2794
        43.2504         24.7504
  20278037.8324  -11843620.48449  -9205937.99248                  20278035.8764
        50.5004         42.0004
  21201063.8854   -5659691.07449  -4397398.16047                  21201062.6914
        48.5004         35.7504
  24173593.6564   -3452020.91049  -2687062.41846                  24173590.8554
        43.0004         20.0004
  22378907.2454  -11830391.71149  -9192377.00047                  22378904.8244
        47.0004         33.2504
  21787063.6994   -7214465.32849  -5610534.61747                  21787060.8204
        49.5004         36.7504
  22645242.7954  -17610429.01249 -13714409.39847                  22645242.7124
        46.7504         30.5004
  23281533.8264  -12960430.66049 -10090975.03947                  23281532.1594
        42.5004         26.0004
 04  7 12 18 28 45.0000000  0  8G 3G14G15G18G19G22G25G11
  23865127.3724   -3565835.99249  -2771811.11747                  23865128.1714
        43.0004         27.0004
  20571354.1214  -11877654.56649  -9232458.05148                  20571351.7364
        50.0004         42.2504
  21499004.0254   -5669423.50049  -4404981.88747                  21499003.2134
        47.2504         36.0004
  24471029.6624   -3464405.10549  -2696712.45746                  24471026.6184
        43.5004         20.5004
  22672622.9424  -11862325.55149  -9217260.52747                  22672620.3984
        46.2504         34.0004
  22082006.5604   -7239952.91849  -5630395.08647                  22082003.2404
        49.2504         37.2504
  22926770.1664  -17706410.89849 -13789200.46147                  22926769.9044
        46.0004         30.7504
  23563304.9964  -13055132.16849 -10164768.39846                  23563303.6494
        42.7504         25.2504
 04  7 12 18 29  0.0000000  0  8G 3G14G15G18G19G22G25G11
  23863604.8944   -3573839.29749  -2778047.50847                  23863605.1864
        43.0004         26.0004
  20564895.6374  -11911592.13749  -9258902.91448                  20564893.8714
        51.0004         42.0004
  21497170.1444   -5679060.18749  -4412491.00447                  21497169.3354
        48.7504         36.0004
  24468674.8524   -3476777.09449  -2706353.03946                  24468671.7014
        41.0004         18.5004
  22666567.7754  -11894144.25049  -9242054.33647                  22666565.7324
        47.2504         33.5004
  22077161.6254   -7265412.40249  -5650233.65247                  22077158.0714
        50.5004         37.7504
  22908513.3464  -17802353.64549 -13863961.01247                  22908512.6634
        46.2504         29.7504
  23545292.3104  -13149790.03949 -10238527.75446                  23545290.2554
        43.7504         25.0004
 04  7 12 18 29 15.0000000  0  8G 3G14G15G18G19G22G25G11
  23862085.4414   -3581821.15649  -2784267.17647                  23862086.3804
        43.7504         26.5004
  20558456.7634  -11945431.25449  -9285271.05548                  20558454.5854
        49.7504         42.0004
  21495354.7804   -5688600.65249  -4419925.15647                  21495353.8784
        48.0004         36.0004
  24466323.2964   -3489136.14149  -2715983.48846                  24466320.2864
        42.5004         19.0004
  22660535.3704  -11925845.98049  -9266757.00047                  22660533.2164
        47.2504         34.5004
  22072322.5494   -7290841.98449  -5670048.90247                  22072318.7464
        50.0004         37.0004
  22890264.3714  -17898250.58649 -13938685.87147                  22890263.9274
        46.2504         30.7504
  23527288.4554  -13244397.78149 -10312248.03146                  23527287.1964
        43.0004         25.5004
 04  7 12 18 29 30.0000000  0  8G 3G14G15G18G19G22G25G11
  23860570.9684   -3589782.62149  -2790470.94547                  23860571.6904
        44.0004         26.0004
  20552035.6604  -11979172.76649  -9311563.14548                  20552033.5144
        50.2504         42.0004
  21493557.6094   -5698045.85249  -4427285.06247                  21493556.4604
        47.0004         36.2504
  24463974.3814   -3501483.14549  -2725604.52746                  24463971.4294
        44.0004         21.7504
  22654524.7874  -11957431.59049  -9291369.16847                  22654522.5184
        47.5004         34.2504
  22067489.0964   -7316242.46549  -5689841.49647                  22067485.0344
        49.5004         37.5004
  22872024.4994  -17994101.94949 -14013375.21547                  22872023.9894
        46.0004         30.5004
  23509294.8134  -13338955.75449 -10385929.53146                  23509293.2644
        43.5004         25.5004
 04  7 12 18 29 45.0000000  0  8G 3G14G15G18G19G22G25G11
  23859059.5514   -3597723.18049  -2796658.43046                  23859060.4854
        43.2504         25.0004
  20545633.4484  -12012815.96149  -9337778.62148                  20545631.8164
        50.2504         42.0004
  21491778.4744   -5707395.05549  -4434570.17247                  21491777.5704
        47.7504         34.7504
  24461626.5174   -3513817.22749  -2735215.49646                  24461624.3294
        43.7504         22.7504
  22648536.5644  -11988900.56249  -9315890.46547                  22648534.3694
        47.0004         34.5004
  22062661.2364   -7341612.93449  -5709610.69547                  22062657.4284
        50.2504         37.5004
  22853793.8004  -18089906.60249 -14088028.14847                  22853793.0504
        46.0004         30.0004
  23491311.2314  -13433462.92249 -10459571.44147                  23491309.2164
        44.5004         27.7504
 04  7 12 18 30  0.0000000  0  8G 3G14G15G18G19G22G25G11
  23857552.4124   -3605642.21149  -2802829.14147                  23857553.4514
        43.0004         26.0004
  20539250.3154  -12046360.27049  -9363917.04348                  20539248.5274
        50.7504         41.7504
  21490018.0624   -5716647.38749  -4441779.80147                  21490017.0604
        48.0004         35.5004
  24459281.8674   -3526137.08249  -2744815.44946                  24459280.7024
        43.0004         22.5004
  22642570.7704  -12020252.02349  -9340320.17647                  22642568.4074
        46.7504         33.2504
  22057839.2594   -7366952.27749  -5729355.64547                  22057835.6064
        50.2504         36.7504
  22835571.6984  -18185663.12549 -14162643.59847                  22835571.5554
        46.5004         29.5004
  23473337.4644  -13527917.85249 -10533172.66447                  23473334.7514
        45.7504         26.5004
 04  7 12 18 30 15.0000000  0  8G 3G14G15G18G19G22G25G11
  23856049.5064   -3613542.53549  -2808985.28946                  23856050.1794
        43.0004         25.2504
  20532885.4404  -12079808.25449  -9389980.41048                  20532883.5774
        50.0004         42.0004
  21488275.0224   -5725805.58249  -4448916.06647                  21488274.5904
        49.0004         35.2504
  24456939.6944   -3538445.35249  -2754406.36746                  24456938.9534
        40.7504         22.5004
  22636625.8834  -12051488.71949  -9364660.46947                  22636623.6584
        46.2504         33.5004
  22053023.0844   -7392262.96549  -5749078.26247                  22053019.0924
        51.2504         37.0004
  22817358.5974  -18281373.75849 -14237223.27747                  22817357.9104
        46.5004         31.0004
  23455373.0684  -13622322.62149 -10606734.81247                  23455370.2504
        45.5004         27.2504
 04  7 12 18 30 30.0000000  0  8G 3G14G15G18G19G22G25G11
  23854549.9544   -3621422.45749  -2815125.53146                  23854550.4564
        42.2504         24.5004
  20526539.1554  -12113158.12549  -9415967.32448                  20526537.1894
        50.5004         41.2504
  21486550.8884   -5734867.72749  -4455977.50847                  21486550.0074
        49.0004         36.0004
  24454600.5994   -3550739.96949  -2763986.59846                  24454599.5574
        42.2504         23.2504
  22630704.2824  -12082608.95349  -9388910.02047                  22630702.0614
        45.7504         33.5004
  22048212.2484   -7417543.07849  -5768777.06247                  22048208.5004
        50.7504         37.0004
  22799154.9074  -18377036.05149 -14311765.29747                  22799154.1954
        47.5004         30.5004
  23437418.3844  -13716675.03949 -10680256.13747                  23437416.2624
        45.5004         28.2504
 04  7 12 18 30 45.0000000  0  8G 3G14G15G18G19G22G25G11
  23853053.5144   -3629284.90649  -2821252.16846                  23853054.3554
        42.5004         25.2504
  20520210.9414  -12146412.60949  -9441879.90248                  20520208.6954
        49.7504         41.0004
  21484843.6754   -5743836.60949  -4462966.25847                  21484843.0384
        49.5004         36.0004
  24452262.8934   -3563023.38749  -2773558.14146                  24452261.7564
        41.0004         22.5004
  22624803.7514  -12113615.48049  -9413070.96147                  22624801.9114
        46.7504         34.0004
  22043406.6504   -7442795.02049  -5788453.90247                  22043403.1414
        50.0004         36.5004
  22780959.7614  -18472652.13349 -14386271.29747                  22780958.9414
        47.0004         30.0004
  23419472.6044  -13810977.41449 -10753738.49647                  23419471.2994
        45.7504         26.5004
 04  7 12 18 31  0.0000000  0  8G 3G14G15G18G19G22G25G11
  23851560.8474   -3637128.84849  -2827364.35946                  23851561.3874
        43.2504         24.5004
  20513900.8524  -12179570.66449  -9467717.35248                  20513898.8644
        49.2504         40.5004
  21483154.8544   -5752711.13749  -4469881.48847                  21483154.1574
        49.7504         35.2504
  24449926.8824   -3575294.34449  -2783119.98846                  24449926.5034
        40.0004         21.0004
  22618925.5954  -12144507.15649  -9437142.41047                  22618923.4824
        46.7504         33.2504
  22038607.1064   -7468017.60249  -5808107.87547                  22038603.6214
        50.0004         36.7504
  22762773.8824  -18568220.47349 -14460740.10947                  22762772.6754
        47.5004         30.2504
  23401537.3364  -13905227.94949 -10827180.44547                  23401536.0894
        45.5004         27.5004
 04  7 12 18 31 15.0000000  0  8G 3G14G15G18G19G22G25G11
  23850072.6464   -3644953.99649  -2833461.91846                  23850071.8664
        43.5004         24.7504
  20507610.0274  -12212631.82049  -9493479.28948                  20507607.3684
        50.5004         40.7504
  21481484.4124   -5761490.77749  -4476722.78147                  21481483.5074
        49.2504         35.5004
  24447595.2494   -3587552.12149  -2792671.54746                  24447593.3694
        40.5004         20.5004
  22613068.9994  -12175283.55549  -9461124.03947                  22613066.7094
        47.0004         34.0004
  22033812.9524   -7493209.98849  -5827738.31647                  22033809.3864
        49.5004         37.0004
  22744596.9254  -18663739.91849 -14535170.81647                  22744595.9174
        46.7504         31.7504
  23383612.6394  -13999425.72749 -10900581.28547                  23383610.6524
        46.0004         27.7504
 04  7 12 18 31 30.0000000  0  8G 3G14G15G18G19G22G25G11
  23848586.5114   -3652761.56249  -2839545.78146                  23848587.3854
        43.7504         24.5004
  20501336.6734  -12245597.19149  -9519166.59448                  20501334.2184
        50.2504         41.5004
  21479831.6194   -5770176.53149  -4483490.92247                  21479830.9614
        49.2504         35.5004
  24445265.9124   -3599797.56249  -2802213.49646                  24445263.9344
        41.5004         22.5004
  22607234.5224  -12205945.79749  -9485016.70347                  22607231.8974
        47.5004         33.7504
  22029024.5904   -7518373.01249  -5847345.87547                  22029021.3164
        49.7504         37.0004
  22726429.5024  -18759210.99649 -14609563.82847                  22726428.1804
        46.7504         30.0004
  23365697.1314  -14093571.33649 -10973941.46947                  23365695.1534
        45.7504         27.5004
 04  7 12 18 31 45.0000000  0  8G 3G14G15G18G19G22G25G11
  23847103.9774   -3660551.71549  -2845616.06647                  23847104.5624
        43.0004         26.0004
  20495082.0264  -12278466.70349  -9544779.20348                  20495079.7884
        51.0004         41.5004
  21478196.3094   -5778768.42249  -4490185.91847                  21478195.9524
        48.2504         36.0004
  24442936.2964   -3612030.48049  -2811745.69946                  24442936.7204
        38.5004         22.5004
  22601420.6354  -12236493.74249  -9508820.30547                  22601418.9154
        47.5004         34.2504
  22024241.6384   -7543506.54349  -5866930.44947                  22024238.6244
        50.0004         36.5004
  22708270.9604  -18854633.06649 -14683918.66447                  22708270.3144
        47.2504         30.5004
  23347791.2014  -14187664.25049 -11047260.60247                  23347790.0434
        44.5004         26.7504
 04  7 12 18 32  0.0000000  0  8G 3G14G15G18G19G22G25G11
  23845624.4264   -3668324.55549  -2851672.85546                  23845625.9304
        40.0004         25.2504
  20488845.0004  -12311240.29349  -9570317.07448                  20488843.0654
        50.5004         41.5004
  21476579.6194   -5787266.27349  -4496807.64147                  21476579.3454
        47.7504         36.0004
  24440610.4654   -3624250.47349  -2821267.86746                  24440611.8134
        38.0004         20.0004
  22595629.6214  -12266927.61349  -9532535.02747                  22595627.3684
        47.7504         34.0004
  22019465.0584   -7568610.18049  -5886491.73847                  22019461.5244
        49.2504         36.0004
  22690122.1004  -18950005.38349 -14758234.72747                  22690121.1184
        46.2504         30.5004
  23329895.3474  -14281703.81649 -11120538.16047                  23329894.6644
        44.0004         27.2504
 04  7 12 18 32 15.0000000  0  8G 3G14G15G18G19G22G25G11
  23844148.9214   -3676080.66449  -2857716.62547                  23844149.9744
        41.5004         26.5004
  20482626.9304  -12343918.62149  -9595780.70348                  20482624.7074
        51.0004         41.0004
  21474980.2194   -5795670.65649  -4503356.52747                  21474979.6874
        48.0004         36.0004
  24438288.9474   -3636458.07849  -2830780.36746                  24438288.0784
        40.7504         19.2504
  22589860.2614  -12297248.05149  -9556161.36347                  22589857.2114
        48.0004         34.2504
  22014693.4444   -7593684.36749  -5906030.07847                  22014690.4084
        50.0004         36.2504
  22671983.1774  -19045328.14149 -14832512.16447                  22671981.9404
        47.0004         30.7504
  23312011.3994  -14375690.14849 -11193774.23847                  23312009.5064
        45.5004         26.7504
 04  7 12 18 32 30.0000000  0  8G 3G14G15G18G19G22G25G11
  23842676.3484   -3683820.03549  -2863747.35246                  23842677.4554
        44.0004         25.5004
  20476426.7904  -12376501.40649  -9621169.89548                  20476424.4814
        50.5004         41.2504
  21473398.9884   -5803981.38349  -4509832.43747                  21473398.3354
        49.0004         35.7504
  24435968.3884   -3648652.83249  -2840282.75446                  24435966.2584
        43.0004         21.5004
  22584112.1694  -12327454.75849  -9579699.06647                  22584109.1704
        47.7504         34.0004
  22009927.8684   -7618728.62949  -5925545.09447                  22009924.6164
        49.7504         36.5004
  22653853.2084  -19140600.43749 -14906750.29347                  22653852.5454
        47.2504         31.0004
  23294136.4034  -14469622.66049 -11266968.35947                  23294134.5304
        46.0004         27.0004
 04  7 12 18 32 45.0000000  0  8G 3G14G15G18G19G22G25G11
  23841206.1524   -3691543.11349  -2869765.36746                  23841207.6464
        42.7504         23.0004
  20470244.6464  -12408988.95349  -9646484.86348                  20470241.9694
        50.7504         41.2504
  21471834.8594   -5812198.60949  -4516235.48447                  21471834.5304
        49.0004         35.5004
  24433650.4924   -3660834.64149  -2849775.06246                  24433647.4234
        43.5004         21.2504
  22578385.5794  -12357547.97349  -9603148.33247                  22578382.6874
        47.5004         34.5004
  22005167.5474   -7643742.96549  -5945036.78547                  22005164.4804
        50.0004         37.0004
  22635732.5854  -19235822.02749 -14980948.90647                  22635732.2384
        46.0004         30.5004
  23276272.6874  -14563500.92249 -11340120.22747                  23276270.1134
        46.0004         26.5004
 04  7 12 18 33  0.0000000  0  8G 3G14G15G18G19G22G25G11
  23839739.2644   -3699250.77049  -2875771.39546                  23839740.7624
        42.5004         24.5004
  20464080.3884  -12441382.10949  -9671726.28548                  20464077.6854
        50.2504         40.7504
  21470289.0184   -5820323.17649  -4522566.33247                  21470288.5664
        49.0004         35.5004
  24431334.3134   -3673003.98449  -2859257.69946                  24431332.9654
        41.0004         21.7504
  22572680.3454  -12387528.53949  -9626509.83247                  22572677.6414
        46.5004         34.0004
  22000413.0364   -7668727.98049  -5964505.62947                  22000409.9684
        50.5004         36.7504
  22617621.6644  -19330993.19549 -15055108.22747                  22617621.8394
        45.2504         31.0004
  23258417.8714  -14657325.25449 -11413230.07446                  23258414.9134
        46.0004         25.2504
 04  7 12 18 33 15.0000000  0  8G 3G14G15G18G19G22G25G11
  23838276.2494   -3706943.06249  -2881765.43446                  23838276.6064
        43.5004         23.5004
  20457933.9484  -12473680.78949  -9696894.09048                  20457931.3414
        50.0004         40.7504
  21468760.6214   -5828354.99249  -4528824.90647                  21468760.0744
        48.7504         34.7504
  24429020.4084   -3685160.62949  -2868730.49246                  24429019.7494
        40.7504         21.0004
  22566996.8144  -12417396.47349  -9649783.56247                  22566994.4364
        47.5004         34.0004
  21995664.1634   -7693683.26649  -5983951.30947                  21995661.1064
        50.0004         36.5004
  22599521.0764  -19426113.32449 -15129227.78147                  22599520.8804
        45.5004         30.7504
  23240574.4844  -14751095.09049 -11486297.45347                  23240571.6384
        46.5004         26.2504
 04  7 12 18 33 30.0000000  0  8G 3G14G15G18G19G22G25G11
  23836815.4324   -3714620.15649  -2887747.64146                  23836815.9984
        43.2504         25.5004
  20451805.7194  -12505884.95349  -9721988.24648                  20451803.0864
        49.5004         40.7504
  21467249.9174   -5836293.96949  -4535011.14547                  21467249.2334
        49.0004         34.5004
  24426710.7284   -3697304.41449  -2878193.24246                  24426709.4124
        43.0004         21.7504
  22561334.2894  -12447151.84049  -9672969.57847                  22561331.5124
        45.5004         34.5004
  21990921.2494   -7718608.63749  -6003373.68447                  21990918.2314
        49.7504         36.5004
  22581430.4844  -19521181.71549 -15203307.01647                  22581429.8294
        47.5004         31.5004
  23222741.4484  -14844809.83249 -11559321.91447                  23222738.3954
        46.0004         25.7504
 04  7 12 18 33 45.0000000  0  8G 3G14G15G18G19G22G25G11
  23835357.5384   -3722281.75449  -2893717.74646                  23835357.6204
        43.5004         25.2504
  20445695.4164  -12537994.27349  -9747008.49648                  20445692.9304
        50.2504         40.2504
  21465756.9944   -5844139.73449  -4541124.74247                  21465755.7514
        48.7504         34.7504
  24424401.7214   -3709434.59049  -2887645.32846                  24424400.7104
        42.0004         19.0004
  22555693.8574  -12476794.37949  -9696067.68047                  22555690.9614
        46.2504         34.5004
  21986183.9664   -7743503.40249  -6022772.20747                  21986180.4574
        50.0004         36.5004
  22563349.9064  -19616197.36349 -15277345.15647                  22563349.3344
        47.0004         31.7504
  23204918.1054  -14938468.65249 -11632302.80947                  23204916.4464
        45.7504         26.0004
 04  7 12 18 34  0.0000000  0  8G 3G14G15G18G19G22G25G11
  23833903.1614   -3729928.06649  -2899675.94546                  23833903.0784
        43.7504         25.5004
  20439603.1734  -12570008.74649  -9771954.84048                  20439600.8624
        50.2504         41.0004
  21464281.4314   -5851892.26249  -4547165.69547                  21464280.8924
        48.7504         35.0004
  24422095.9984   -3721551.02749  -2897086.71546                  24422094.0114
        41.7504         20.0004
  22550074.5474  -12506324.01649  -9719077.79747                  22550071.8904
        47.0004         34.2504
  21981452.2414   -7768367.44149  -6042146.78547                  21981448.7244
        49.7504         36.0004
  22545279.1544  -19711159.67249 -15351341.73447                  22545278.6144
        47.0004         31.5004
  23187106.2134  -15032071.02349 -11705239.69147                  23187104.0254
        45.5004         26.5004
 04  7 12 18 34 15.0000000  0  8G 3G14G15G18G19G22G25G11
  23832449.4424   -3737560.47349  -2905623.33646                  23832450.5934
        43.2504         24.5004
  20433528.8714  -12601929.71549  -9796828.32448                  20433526.5034
        50.0004         41.0004
  21462823.7754   -5859552.86749  -4553135.01647                  21462823.1634
        48.5004         35.0004
  24419793.8114   -3733654.81649  -2906518.31246                  24419791.5254
        43.5004         22.5004
  22544476.5184  -12535742.06249  -9742000.96547                  22544473.3184
        47.5004         34.0004
  21976726.4204   -7793201.75449  -6061498.20747                  21976723.1964
        49.0004         36.0004
  22527218.2464  -19806069.43049 -15425297.36347                  22527217.9544
        47.2504         32.0004
  23169304.9214  -15125617.75049 -11778133.21946                  23169302.5264
        45.7504         25.5004
 04  7 12 18 34 30.0000000  0  8G 3G14G15G18G19G22G25G11
  23830999.9964   -3745179.19149  -2911560.03146                  23831001.1284
        43.5004         24.5004
  20427472.4884  -12633757.26249  -9821629.01648                  20427469.6484
        50.2504         40.7504
  21461383.5744   -5867121.57449  -4559032.73447                  21461382.8794
        48.5004         35.2504
  24417492.8104   -3745745.86749  -2915939.98446                  24417491.8934
        45.0004         25.0004
  22538899.3814  -12565048.58249  -9764837.22747                  22538896.8824
        47.0004         34.0004
  21972006.3604   -7818006.19549  -6080826.35547                  21972003.0704
        49.7504         36.2504
  22509167.7134  -19900926.14849 -15499211.66047                  22509167.3174
        47.0004         32.5004
  23151513.6914  -15219108.44549 -11850983.09847                  23151511.9184
        45.2504         28.2504
 04  7 12 18 34 45.0000000  0  8G 3G14G15G18G19G22G25G11
  23829552.3774   -3752784.86349  -2917486.57846                  23829553.7184
        43.2504         23.5004
  20421433.7674  -12665491.80949  -9846357.23448                  20421430.8324
        50.5004         40.5004
  21459961.0344   -5874598.88749  -4564859.23047                  21459960.2124
        48.2504         35.0004
  24415194.8624   -3757824.39849  -2925351.87946                  24415193.6994
        45.5004         22.2504
  22533343.6234  -12594244.21949  -9787587.09447                  22533340.7134
        46.7504         33.5004
  21967291.6744   -7842781.02049  -6100131.41447                  21967288.6914
        49.5004         35.7504
  22491127.3134  -19995729.75049 -15573084.56247                  22491127.1594
        47.5004         32.5004
  23133733.7824  -15312542.93749 -11923789.15647                  23133732.1954
        45.2504         27.0004
 04  7 12 18 35  0.0000000  0  8G 3G14G15G18G19G22G25G11
  23828108.1684   -3760377.04349  -2923402.60546                  23828109.3164
        43.2504         23.0004
  20415412.2714  -12697132.91849  -9871012.64148                  20415409.7094
        50.5004         40.2504
  21458555.7664   -5881984.16849  -4570614.01247                  21458554.8174
        49.0004         35.2504
  24412897.8404   -3769889.49249  -2934753.25846                  24412896.0764
        43.7504         19.2504
  22527808.9674  -12623328.52049  -9810250.20347                  22527805.8664
        47.2504         34.7504
  21962582.7054   -7867525.45349  -6119412.79747                  21962579.6304
        49.5004         35.5004
  22473097.2594  -20090479.12149 -15646915.20747                  22473096.6964
        47.0004         32.0004
  23115964.1684  -15405920.20349 -11996550.65646                  23115962.8594
        44.7504         25.5004
 04  7 12 18 35 15.0000000  0  8G 3G14G15G18G19G22G25G11
  23826666.2014   -3767955.82449  -2929308.16846                  23826667.9674
        42.5004         23.5004
  20409409.1134  -12728680.57449  -9895595.23848                  20409406.6364
        50.2504         40.2504
  21457167.6644   -5889277.42649  -4576297.08247                  21457166.5504
        49.0004         35.0004
  24410604.8474   -3781940.88749  -2944143.80146                  24410600.0784
        42.5004         15.5004
  22522296.0604  -12652301.38349  -9832826.46547                  22522293.1154
        46.2504         33.5004
  21957880.2744   -7892239.18449  -6138670.26247                  21957876.3134
        49.0004         36.0004
  22455077.5294  -20185173.61349 -15720703.09447                  22455076.5364
        48.0004         32.2504
  23098206.0664  -15499239.75449 -12069267.14147                  23098204.6664
        44.7504         27.2504
 04  7 12 18 35 30.0000000  0  8G 3G14G15G18G19G22G25G11
  23825226.3644   -3775522.08249  -2935204.01647                  23825228.0694
        42.7504         26.0004
  20403423.5204  -12760135.49649  -9920105.56648                  20403420.9204
        50.7504         40.0004
  21455797.1574   -5896479.43049  -4581909.04747                  21455796.7904
        49.0004         35.2504
  24408313.4484   -3793979.43049  -2953524.49646                  24408310.1924
        42.5004         17.7504
  22516803.5454  -12681163.63349  -9855316.55547                  22516800.4004
        47.5004         33.7504
  21953182.8704   -7916922.82849  -6157904.27747                  21953179.3944
        49.0004         35.0004
  22437068.4984  -20279813.41849 -15794448.36747                  22437067.4204
        48.5004         33.0004
  23080458.8264  -15592501.87149 -12141938.90647                  23080457.3164
        45.0004         27.2504
 04  7 12 18 35 45.0000000  0  8G 3G14G15G18G19G22G25G11
  23823789.5674   -3783075.59049  -2941089.92246                  23823790.3194
        43.0004         25.2504
  20397455.4754  -12791497.17249  -9944543.24248                  20397453.0534
        50.0004         40.5004
  21454444.1504   -5903589.66849  -4587449.51247                  21454443.5554
        48.5004         36.0004
  24406025.3254   -3806004.19549  -2962894.51646                  24406023.5864
        43.0004         19.2504
  22511332.4274  -12709914.82449  -9877720.07447                  22511329.6434
        47.0004         34.0004
  21948492.0714   -7941575.51649  -6177114.17647                  21948488.1244
        49.2504         35.2504
  22419069.4894  -20374397.52349 -15868150.24247                  22419068.3424
        47.5004         32.0004
  23062723.0114  -15685705.39549 -12214565.00447                  23062721.1774
        45.2504         27.7504
 04  7 12 18 36  0.0000000  0  8G 3G14G15G18G19G22G25G11
  23822354.0834   -3790616.87549  -2946966.28946                  23822355.3654
        42.7504         25.0004
  20391505.0164  -12822766.21149  -9968908.72748                  20391503.0004
        50.0004         40.2504
  21453108.7704   -5910608.58649  -4592918.81647                  21453107.9044
        48.5004         35.5004
  24403740.2134   -3818015.25049  -2972253.86746                  24403738.0774
        42.5004         19.5004
  22505882.6814  -12738555.53549  -9900037.53547                  22505879.1004
        47.0004         33.5004
  21943806.5254   -7966197.54349  -6196300.18047                  21943802.9324
        49.0004         35.5004
  22401081.0474  -20468925.83249 -15941808.64547                  22401080.0964
        47.0004         32.0004
  23044998.7604  -15778850.32449 -12287145.44147                  23044996.6104
        45.5004         27.2504
 04  7 12 18 36 15.0000000  0  8G 3G14G15G18G19G22G25G11
  23820921.2144   -3798146.35549  -2952833.44946                  23820922.4494
        40.0004         23.7504
  20385572.6264  -12853942.80949  -9993202.18448                  20385570.4724
        50.5004         39.5004
  21451790.1664   -5917536.52349  -4598317.22347                  21451789.6714
        47.7504         35.2504
  24401457.7694   -3830012.75449  -2981602.58246                  24401454.6824
        40.7504         18.2504
  22500453.1904  -12767086.12149  -9922269.16447                  22500450.1354
        48.0004         33.5004
  21939127.1104   -7990789.02749  -6215462.38747                  21939122.9934
        49.5004         35.5004
  22383103.4564  -20563398.12549 -16015423.39547                  22383102.7304
        47.2504         31.7504
  23027285.1674  -15871936.59049 -12359680.18047                  23027282.0104
        46.5004         26.7504
 04  7 12 18 36 30.0000000  0  8G 3G14G15G18G19G22G25G11
  23819490.6594   -3805664.68049  -2958691.92246                  23819491.2004
        38.5004         24.7504
  20379656.9804  -12885027.59049 -10017424.09048                  20379654.5104
        50.2504         39.7504
  21450488.8064   -5924373.96949  -4603645.12147                  21450488.3284
        47.2504         34.7504
  24399176.0154   -3841997.09449  -2990941.00046                  24399173.5854
        38.2504         17.5004
  22495044.7834  -12795507.27349  -9944415.52747                  22495041.7914
        46.7504         33.5004
  21934453.4674   -8015350.19149  -6234600.96147                  21934449.2694
        50.5004         35.7504
  22365136.9394  -20657814.35249 -16088994.45347                  22365135.7434
        47.0004         32.0004
  23009582.8574  -15964964.11749 -12432169.15247                  23009579.6524
        45.7504         28.0004
 04  7 12 18 36 45.0000000  0  8G 3G14G15G18G19G22G25G11
  24117854.9604   -3813170.66449  -2964540.80546                  24117855.4884
        42.5004         25.2504
  20673552.5614  -12916017.62949 -10041572.18048                  20673550.0024
        50.2504         40.0004
  21748998.0984   -5931119.51649  -4608901.41447                  21748997.3654
        48.0004         34.5004
  24696690.0244   -3853966.39549  -3000267.80546                  24696688.8574
        37.0004         17.5004
  22789450.0454  -12823816.17649  -9966474.42247                  22789447.0774
        47.5004         33.5004
  22229578.1544   -8039878.34849  -6253713.81647                  22229574.2844
        50.0004         36.2504
  22646974.0094  -20752166.59849 -16162515.65647                  22646973.6424
        46.5004         31.5004
  23291685.5304  -16057925.21949 -12504606.34447                  23291682.5734
        46.5004         26.5004
 04  7 12 18 37  0.0000000  0  8G 3G14G15G18G19G22G25G11
  24116428.7414   -3820664.38749  -2970380.10246                  24116429.5184
        42.5004         24.0004
  20667672.9284  -12946915.93749 -10065648.78148                  20667670.2104
        51.0004         40.5004
  21747731.6894   -5937773.00049  -4614085.97347                  21747731.4244
        49.0004         34.5004
  24694416.5294   -3865920.89149  -3009583.05146                  24694414.8404
        38.0004         18.5004
  22784084.0334  -12852015.48849  -9988447.93747                  22784080.5204
        47.5004         33.0004
  22224916.4474   -8064375.43449  -6272802.44947                  22224912.7144
        49.5004         36.0004
  22629029.4484  -20846465.80949 -16235995.53147                  22629029.0054
        46.7504         31.5004
  23274005.6714  -16150830.77049 -12577000.26247                  23274002.9264
        46.0004         26.0004
 04  7 12 18 37 15.0000000  0  8G 3G14G15G18G19G22G25G11
  24115005.2784   -3828147.77349  -2976211.37146                  24115005.7684
        43.0004         25.0004
  20661810.8574  -12977722.71949 -10089654.06648                  20661807.8304
        50.7504         40.7504
  21746483.0264   -5944336.24249  -4619200.20747                  21746482.5314
        48.7504         35.0004
  24692144.3824   -3877861.77749  -3018887.71946                  24692143.3804
        39.5004         20.0004
  22778739.0284  -12880105.73049 -10010336.44947                  22778735.2924
        48.2504         33.0004
  22220261.1784   -8088841.85949  -6291867.20747                  22220257.3434
        50.2504         37.0004
  22611096.1904  -20940707.48049 -16309430.56647                  22611095.4884
        46.7504         31.5004
  23256337.1794  -16243676.39149 -12649347.48046                  23256335.3804
        46.0004         24.5004
 04  7 12 18 37 30.0000000  0  8G 3G14G15G18G19G22G25G11
  24113582.7024   -3835621.52749  -2982035.12547                  24113583.3534
        42.0004         25.7504
  20655965.5334  -13008438.70349 -10113588.60248                  20655963.1364
        50.7504         40.7504
  21745251.0154   -5950809.90649  -4624244.64147                  21745250.4064
        49.5004         34.7504
  24689873.9844   -3889789.44949  -3028182.09446                  24689872.9864
        39.0004         20.0004
  22773413.8244  -12908087.61749 -10032140.52347                  22773411.1814
        48.2504         33.0004
  22215610.5604   -8113277.98849  -6310908.35547                  22215606.6894
        50.5004         37.7504
  22593173.7064  -21034891.68049 -16382820.83647                  22593172.4794
        47.7504         31.0004
  23238680.8524  -16336462.13749 -12721648.04747                  23238678.1014
        45.2504         25.7504
 04  7 12 18 37 45.0000000  0  8G 3G14G15G18G19G22G25G11
  24112162.8644   -3843084.30549  -2987850.31247                  24112164.1544
        43.0004         25.7504
  20650137.9644  -13039062.39849 -10137451.21948                  20650135.4934
        50.2504         41.0004
  21744036.8184   -5957192.47749  -4629218.09047                  21744035.7624
        48.5004         35.5004
  24687607.5534   -3901702.22349  -3037464.80546                  24687605.2164
        39.0004         18.5004
  22768110.5604  -12935959.71549 -10053859.05147                  22768107.2964
        48.2504         33.5004
  22210966.6664   -8137682.20349  -6329924.63747                  22210962.9034
        50.5004         37.0004
  22575262.4864  -21129016.32449 -16456164.69547                  22575261.1084
        47.7504         31.7504
  23221035.7074  -16429186.02049 -12793900.39147                  23221033.4064
        44.5004         26.0004
 04  7 12 18 38  0.0000000  0  8G 3G14G15G18G19G22G25G11
  24110743.8894   -3850538.03549  -2993658.47346                  24110745.6514
        42.2504         25.2504
  20644327.5954  -13069595.59449 -10161243.32048                  20644325.5074
        50.0004         40.7504
  21742839.1304   -5963485.74249  -4634121.95347                  21742838.1684
        49.2504         34.7504
  24685343.2724   -3913601.78549  -3046737.18446                  24685341.1044
        37.0004         19.0004
  22762827.1594  -12963723.92249 -10075493.50447                  22762824.1734
        47.5004         33.0004
  22206328.5174   -8162055.89849  -6348917.13347                  22206325.1534
        50.5004         37.5004
  22557362.2484  -21223082.82049 -16529463.24247                  22557361.0864
        47.5004         31.5004
  23203402.0354  -16521849.23849 -12866105.48447                  23203400.3984
        43.2504         26.5004
 04  7 12 18 38 15.0000000  0  8G 3G14G15G18G19G22G25G11
  24109328.1324   -3857980.97749  -2999458.24247                  24109329.2864
        42.2504         26.0004
  20638535.0634  -13100036.50449 -10184963.50848                  20638532.6254
        50.5004         40.2504
  21741658.7484   -5969687.84049  -4638954.76647                  21741657.7824
        48.7504         35.2504
  24683081.6994   -3925486.03149  -3055997.64546                  24683080.2284
        36.7504         17.7504
  22757564.1234  -12991378.50849 -10097042.53947                  22757561.0804
        47.2504         33.7504
  22201696.6664   -8186397.12549  -6367884.33647                  22201693.4364
        50.0004         37.2504
  22539473.2874  -21317088.66449 -16602714.51647                  22539472.6934
        48.0004         32.7504
  23185780.4324  -16614449.49649 -12938261.49647                  23185779.1804
        43.5004         26.0004
 04  7 12 18 38 30.0000000  0  8G 3G14G15G18G19G22G25G11
  24107912.9994   -3865414.57449  -3005250.67646                  24107915.7664
        41.7504         23.0004
  20632759.5094  -13130386.47749 -10208612.83648                  20632757.2584
        50.5004         41.0004
  21740495.7164   -5975800.06649  -4643717.55147                  21740494.8364
        48.7504         35.0004
  24680822.4484   -3937355.78548  -3065246.91846                  24680822.3004
        35.2504         19.0004
  22752322.3914  -13018924.62149 -10118507.05147                  22752319.6834
        47.2504         33.7504
  22197070.7514   -8210706.90649  -6386827.03547                  22197067.3324
        50.5004         37.2504
  22521596.0104  -21411034.49649 -16675919.03547                  22521595.1764
        47.7504         32.7504
  23168171.6374  -16706987.64149 -13010369.09847                  23168169.5094
        43.5004         25.7504
 04  7 12 18 38 45.0000000  0  7G 3G14G15G19G22G25G11
  24106500.7404   -3872840.50849  -3011037.19546                  24106502.2554
        43.0004         24.0004
  20627001.0544  -13160646.91049 -10232192.39548                  20626998.7434
        50.7504         41.2504
  21739349.5294   -5981823.96149  -4648411.50847                  21739349.1234
        49.0004         35.5004
  22747100.8504  -13046363.93049 -10139888.34047                  22747097.9724
        47.5004         33.7504
  22192450.3394   -8234986.52349  -6405746.22347                  22192446.9374
        50.2504         38.0004
  22503729.7634  -21504921.35249 -16749077.59047                  22503729.4204
        47.7504         32.7504
  23150574.2954  -16799464.67649 -13082429.09447                  23150571.8684
        44.7504         26.7504
 04  7 12 18 39  0.0000000  0  7G 3G14G15G19G22G25G11
  24105089.3494   -3880258.30149  -3016817.35946                  24105091.0954
        43.2504         23.0004
  20621259.8634  -13190817.31649 -10255701.80948                  20621257.3294
        51.0004         41.2504
  21738220.0944   -5987758.86749  -4653036.12947                  21738219.4394
        48.7504         35.5004
  22741899.9954  -13073695.93749 -10161186.03147                  22741896.7244
        47.2504         33.2504
  22187835.8484   -8259235.18449  -6424641.28147                  22187832.6894
        49.7504         36.7504
  22485874.7264  -21598748.03549 -16822189.26247                  22485874.7254
        47.0004         32.0004
  23132988.0444  -16891879.41849 -13154440.56247                  23132985.6144
        44.2504         26.0004
 04  7 12 18 39 15.0000000  0  7G 3G14G15G19G22G25G11
  24103678.2524   -3887669.03949  -3022591.96546                  24103680.8594
        42.2504         22.7504
  20615535.6164  -13220898.70349 -10279141.84848                  20615533.0074
        50.7504         41.0004
  21737107.1144   -5993605.80949  -4657592.20747                  21737106.8584
        48.5004         35.0004
  22736718.6184  -13100921.67649 -10182400.89847                  22736716.8204
        47.2504         33.7504
  22183227.1684   -8283453.57049  -6443512.76647                  22183224.1174
        49.7504         36.0004
  22468031.5114  -21692514.87549 -16895254.30947                  22468031.0994
        47.7504         31.7504
  23115414.2644  -16984232.34049 -13226403.85947                  23115411.7354
        45.0004         28.0004
 04  7 12 18 39 30.0000000  0  7G 3G14G15G19G22G25G11
  24102271.0634   -3895070.52049  -3028359.42246                  24102272.2704
        43.0004         24.5004
  20609828.5794  -13250888.78149 -10302510.74248                  20609826.0894
        51.0004         41.2504
  21736011.6854   -5999362.58649  -4662078.03147                  21736011.5694
        48.2504         35.0004
  22731558.5144  -13128039.02749 -10203531.32447                  22731555.8164
        47.5004         33.7504
  22178624.6494   -8307639.15649  -6462358.68447                  22178622.1674
        49.7504         36.2504
  22450200.7394  -21786219.05549 -16968270.52347                  22450199.5744
        47.2504         32.0004
  23097852.3604  -17076520.69949 -13298316.85247                  23097849.9694
        45.0004         27.2504
 04  7 12 18 39 45.0000000  0  7G 3G14G15G19G22G25G11
  24100863.1684   -3902464.01249  -3034120.62946                  24100865.1654
        41.7504         22.5004
  20604139.1314  -13280788.59049 -10325809.29348                  20604136.5504
        50.7504         41.5004
  21734933.2234   -6005030.16449  -4666494.35547                  21734933.0434
        48.7504         34.5004
  22726418.9544  -13155048.97349 -10224578.05147                  22726416.4444
        47.2504         33.5004
  22174028.3334   -8331792.77349  -6481179.69947                  22174025.4404
        50.0004         35.7504
  22432380.8714  -21879861.10249 -17041238.32847                  22432380.3374
        47.5004         32.5004
  23080302.7254  -17168744.85249 -13370179.79747                  23080301.1584
        45.5004         26.5004
 04  7 12 18 40  0.0000000  0  7G 3G14G15G19G22G25G11
  24099458.0654   -3909847.65249  -3039874.15246                  24099459.8174
        42.5004         22.5004
  20598466.8674  -13310596.37949 -10349036.14548                  20598464.5614
        51.0004         41.5004
  21733872.1414   -6010606.55549  -4670839.60547                  21733871.8894
        48.0004         34.7504
  22721300.3364  -13181949.74649 -10245539.71147                  22721297.1514
        47.0004         33.5004
  22169438.8264   -8355912.27749  -6499974.13347                  22169436.1094
        49.2504         35.5004
  22414573.7754  -21973438.69949 -17114155.91047                  22414572.6434
        47.2504         31.5004
  23062765.9534  -17260902.63749 -13441991.03947                  23062763.7924
        46.0004         27.2504
 04  7 12 18 40 15.0000000  0  7G 3G14G15G19G22G25G11
  24098054.9664   -3917222.75849  -3045621.03546                  24098055.8254
        42.7504         22.5004
  20592811.9444  -13340313.25049 -10372192.15248                  20592809.2724
        51.0004         41.5004
  21732828.1504   -6016092.91849  -4675114.71947                  21732827.4604
        48.5004         34.5004
  22716201.4414  -13208742.44149 -10266417.15247                  22716198.8624
        47.2504         33.2504
  22164855.3184   -8379998.41449  -6518742.55147                  22164852.3384
        49.2504         36.0004
  22396778.5684  -22066952.23049 -17187023.57047                  22396777.8384
        47.5004         32.0004
  23045241.4134  -17352994.53149 -13513750.95747                  23045238.8994
        46.5004         28.0004
 04  7 12 18 40 30.0000000  0  7G 3G14G15G19G22G25G11
  24096653.2234   -3924590.43049  -3051362.11746                  24096653.9224
        43.2504         22.2504
  20587174.1244  -13369940.06249 -10395277.97348                  20587171.9974
        51.5004         42.0004
  21731801.2024   -6021490.23849  -4679320.44547                  21731800.5894
        48.7504         34.7504
  22711123.3444  -13235428.04749 -10287211.14547                  22711120.4114
        47.7504         33.5004
  22160278.0564   -8404051.94549  -6537485.57047                  22160275.2164
        48.7504         35.2504
  22378995.7164  -22160401.91049 -17259841.47347                  22378995.0834
        47.2504         33.0004
  23027728.9484  -17445020.81649 -13585459.71947                  23027727.0784
        46.5004         29.7504
 04  7 12 18 40 45.0000000  0  7G 3G14G15G19G22G25G11
  24095252.2994   -3931951.28949  -3057097.90246                  24095253.8214
        43.7504         23.5004
  20581553.3064  -13399477.43749 -10418294.10548                  20581551.0294
        51.2504         41.5004
  21730791.2094   -6026798.98849  -4683457.14847                  21730790.5184
        48.7504         34.5004
  22706065.2544  -13262007.25449 -10307922.23047                  22706062.9164
        47.2504         33.7504
  22155706.8684   -8428073.24249  -6556203.46947                  22155704.1264
        48.2504         35.0004
  22361225.2214  -22253787.82849 -17332609.69547                  22361224.1874
        47.7504         32.0004
  23010229.2464  -17536981.71949 -13657117.55147                  23010227.2234
        45.5004         28.2504
 04  7 12 18 41  0.0000000  0  7G 3G14G15G19G22G25G11
  24093853.3384   -3939305.49249  -3062828.52046                  24093854.5264
        44.0004         23.5004
  20575949.2334  -13428925.45749 -10441240.61748                  20575947.3794
        50.7504         41.7504
  21729797.7784   -6032019.26649  -4687524.91447                  21729797.2264
        48.7504         34.7504
  22701027.5104  -13288480.15249 -10328550.48047                  22701024.9254
        47.0004         33.5004
  22151141.8564   -8452062.05549  -6574896.04747                  22151138.9804
        49.0004         34.5004
  22343466.3074  -22347109.55549 -17405327.90247                  22343465.7984
        48.0004         32.5004
  22992742.2954  -17628876.64149 -13728723.94947                  22992740.3064
        45.5004         27.5004
 04  7 12 18 41 15.0000000  0  7G 3G14G15G19G22G25G11
  24092454.5544   -3946653.67249  -3068554.40646                  24092456.4244
        42.5004         23.2504
  20570362.5174  -13458284.62949 -10464117.89148                  20570360.5384
        51.0004         41.7504
  21728821.1314   -6037151.50449  -4691524.08247                  21728820.5484
        48.7504         35.5004
  22696010.2064  -13314847.36349 -10349096.39147                  22696007.5464
        47.0004         34.0004
  22146582.7544   -8476018.73449  -6593563.58647                  22146580.0394
        49.5004         34.5004
  22325720.1794  -22440366.84449 -17477995.89547                  22325719.0904
        47.7504         32.2504
  22975267.4594  -17720705.57849 -13800278.93747                  22975265.2984
        45.0004         27.7504
 04  7 12 18 41 30.0000000  0  7G 3G14G15G19G22G25G11
  24091057.0574   -3953996.71949  -3074276.29746                  24091058.8374
        43.0004         24.7504
  20564792.6604  -13487555.66849 -10486926.49648                  20564790.0354
        51.2504         42.0004
  21727861.2264   -6042196.46949  -4695455.24647                  21727860.7894
        48.7504         35.5004
  22691013.0864  -13341109.66849 -10369560.53547                  22691010.0354
        47.0004         34.2504
  22142030.1084   -8499943.69549  -6612206.41447                  22142026.8924
        48.0004         35.0004
  22307986.1664  -22533560.03549 -17550613.93747                  22307985.4074
        47.5004         32.5004
  22957805.8394  -17812468.80549 -13871782.72347                  22957803.5624
        45.7504         26.0004
 04  7 12 18 41 45.0000000  0  7G 3G14G15G19G22G25G11
  24089660.3584   -3961336.23049  -3079995.43746                  24089662.2844
        44.2504         22.5004
  20559238.7814  -13516740.19149 -10509667.67648                  20559236.0994
        51.2504         41.7504
  21726917.4944   -6047155.70749  -4699319.60947                  21726916.9624
        48.7504         35.0004
  22686034.8844  -13367268.71949 -10389944.21947                  22686032.3984
        47.2504         34.2504
  22137483.2814   -8523838.34049  -6630825.63347                  22137480.4254
        48.7504         35.5004
  22290263.8234  -22626690.05549 -17623182.76247                  22290263.3344
        47.5004         32.5004
  22940356.1394  -17904167.34849 -13943236.11747                  22940353.9544
        46.0004         27.2504
 04  7 12 18 42  0.0000000  0  7G 3G14G15G19G22G25G11
  24088264.9114   -3968671.07449  -3085710.95346                  24088266.4854
        43.5004         23.2504
  20553702.1874  -13545836.85549 -10532340.39548                  20553699.6964
        51.0004         41.7504
  21725990.1974   -6052027.87549  -4703116.11347                  21725989.6624
        49.2504         34.5004
  22681077.2384  -13393323.18749 -10410246.41847                  22681074.5394
        48.0004         34.2504
  22132942.0764   -8547701.02349  -6649419.93447                  22132939.5404
        48.7504         35.2504
  22272554.1454  -22719755.10949 -17695700.95747                  22272553.5094
        48.0004         33.0004
  22922919.1594  -17995799.43749 -14014637.73047                  22922916.7954
        44.7504         26.5004
 04  7 12 18 42 15.0000000  0  7G 3G14G15G19G22G25G11
  24086870.7874   -3976002.96949  -3091424.18446                  24086871.4444
        44.0004         23.2504
  20548181.4624  -13574847.25849 -10554945.91048                  20548179.2014
        51.7504         42.0004
  21725079.2164   -6056814.57049  -4706846.03147                  21725078.6834
        48.7504         35.0004
  22676138.4534  -13419274.89549 -10430468.54347                  22676136.2024
        47.7504         34.0004
  22128407.5484   -8571533.09049  -6667990.37947                  22128404.3054
        49.0004         35.7504
  22254856.7604  -22812756.18049 -17768169.28947                  22254856.0424
        47.2504         32.5004
  22905493.8784  -18087365.81649 -14085988.14547                  22905492.0504
        45.0004         27.2504
 04  7 12 18 42 30.0000000  0  7G 3G14G15G19G22G25G11
  24085475.3504   -3983332.53549  -3097135.57446                  24085476.3264
        44.0004         23.2504
  20542677.3334  -13603771.91849 -10577484.59848                  20542675.0054
        51.5004         42.0004
  21724184.4694   -6061516.26249  -4710509.69947                  21724184.6994
        47.7504         34.2504
  22671219.6934  -13445124.24249 -10450610.91447                  22671216.8244
        47.2504         34.0004
  22123878.2554   -8595334.67649  -6686537.08247                  22123874.6074
        49.2504         35.2504
  22237171.3804  -22905693.08249 -17840587.62947                  22237170.5564
        46.7504         32.5004
  22888082.4844  -18178866.69149 -14157287.49247                  22888080.0764
        46.0004         27.5004
 04  7 12 18 42 45.0000000  0  7G 3G14G15G19G22G25G11
  24084080.7724   -3990659.15649  -3102844.66446                  24084081.9074
        43.0004         25.0004
  20537189.3024  -13632610.16049 -10599955.96548                  20537187.5514
        51.0004         41.7504
  21723306.1564   -6066132.31249  -4714106.65247                  21723305.6564
        48.7504         34.0004
  22666319.9504  -13470870.62149 -10470673.03547                  22666317.9164
        47.0004         34.5004
  22119354.7394   -8619104.88749  -6705059.32847                  22119351.5674
        49.0004         35.0004
  22219498.2874  -22998564.49249 -17912954.92647                  22219497.9324
        47.2504         32.7504
  22870683.4454  -18270300.92249 -14228534.91847                  22870681.1374
        45.7504         27.5004
 04  7 12 18 43  0.0000000  0  7G 3G14G15G19G22G25G11
  24082687.7554   -3997984.06649  -3108552.43746                  24082687.6024
        43.2504         24.5004
  20531718.3014  -13661363.00849 -10622360.78948                  20531716.2414
        51.0004         41.5004
  21722443.4664   -6070663.82449  -4717637.72347                  21722443.4994
        48.2504         34.5004
  22661439.7744  -13496515.25449 -10490655.88747                  22661437.9444
        47.0004         34.2504
  22114837.7254   -8642844.64849  -6723557.86347                  22114834.3744
        49.5004         35.5004
  22201838.0384  -23091370.96949 -17985271.64147                  22201836.9744
        47.0004         32.5004
  22853296.6624  -18361669.08649 -14299730.87147                  22853294.3974
        45.7504         28.2504
